     2              OBSERVATION DATA    GPS                 RINEX VERSION / TYPE
teqc 1997Jun30 19970702                                     PGM / RUN BY / DATE
                                                            COMMENT
BIT 2 OF LLI FLAGS DATA COLLECTED UNDER A-S CONDITION       COMMENT
BIT 2 OF LLI FLAGS DATA COLLECTED UNDER A-S CONDITION       COMMENT
Original Marker Name: HMCP                                  COMMENT
Campaign Name: HMC San Gabriel Valley 1993-1996             COMMENT
4-Character Station Name: HMCP                              COMMENT
6-Character Antenna Code: DMRCHT                            COMMENT
Vertical Measurement Point: BPA                             COMMENT
Vertical Offset to Rinex Ref. Point: 0.0000                 COMMENT
Radial Measurement Point: RRP                               COMMENT
Radial Offset to Rinex Ref. Point: 0.0000                   COMMENT
Antenna Height from Field Measurement: 0.0000 m             COMMENT
Additional Antenna Identification Info.:                    COMMENT
Turborogue and Ashtech Choke Ring                           COMMENT
Fixed antenna mounting on roof of Parsons                   COMMENT
building, HMC.                                              COMMENT
Original XYZ: -2458615.3581 -4680493.3967 3556457.0966      COMMENT
New XYZ position is based on association with SCEC monument COMMENT
E1D0R2C7+0011. Position of that monument is believed to be  COMMENT
valid to within 1 m horizontally; vertical accuracy         COMMENT
should be no worse than 3-times this value.                 COMMENT
                                                            COMMENT
Revised Rinex header created by UCSD GPS archive for        COMMENT
GSAC on 13-Apr-1999 (1999:103) 19:32:03 GMT                 COMMENT
For assistance contact dagnew@ucsd.edu or hjohnson@ucsd.edu COMMENT
                                                            COMMENT
HARVEY MUDD COLLEGE PHYSICS                                 MARKER NAME
MGB HARVEY MUDD COLLEGE                                     OBSERVER / AGENCY
T-262/263 TURBOROGUE SNR-8000 95.03.08                      REC # / TYPE / VERS
260/329 DORNE-MARGOL. TYPE T                                ANT # / TYPE
 -2458598.0000 -4680494.0000  3556451.0000                  APPROX POSITION XYZ
        0.0000        0.0000        0.0000                  ANTENNA: DELTA H/E/N
     1     1     0                                          WAVELENGTH FACT L1/2
     5    L1    L2    C1    P2    P1                        # / TYPES OF OBSERV
     0                                                      INTERVAL
  1996     2    24     0     0    0.000000                  TIME OF FIRST OBS
  1996     2    24    23    59   30.000000                  TIME OF LAST OBS
     0                                                      # OF SATELLITES
                                                            END OF HEADER
 96  2 24  0  0  0.0000000  0  8G27G 7G 4G 9G 2G24G12G26
 -10814929.94544  -8427215.31644  23326333.5874   23326334.9874
 -24239493.40544 -18887883.31144  20441652.1154   20441652.4254
 -10332264.48744  -8051106.48844  22088070.6944   22088070.6694
 -11798546.69944  -9193666.97244  22515109.8064   22515108.6704
 -16013531.57944 -12478061.24544  21722243.1034   21722243.4374
   -324502.12344                  24520723.2274
 -17356618.548 4 -13524623.861 4  20951341.577    20951340.257
  -6334427.93544  -4935917.34444  23348874.6524   23348876.0634
 96  2 24  0  0 30.0000000  0  8G27G 7G 4G 9G 2G24G12G26
 -10704320.23544  -8341025.98244  23347381.3054   23347384.2654
 -24208099.09244 -18863420.20844  20447626.3274   20447626.6524
 -10417449.33844  -8117484.22144  22071860.5314   22071860.9794
 -11879181.40544  -9256499.18444  22499765.1154   22499765.7734
 -15977426.19744 -12449927.18644  21729114.0914   21729114.2514
   -432675.60144                  24500137.8214
 -17333703.137 4 -13506767.704 4  20955702.166    20955700.926
  -6280257.91844  -4893706.95644  23359183.6434   23359183.6774
 96  2 24  0  1  0.0000000  0  8G27G 7G 4G 9G 2G24G12G26
 -10593530.75244  -8254696.57944  23368464.1854   23368464.1764
 -24176380.86444 -18838704.69944  20453661.9094   20453662.0224
 -10502307.47444  -8183607.38244  22055712.3654   22055712.8304
 -11959491.61444  -9319078.54144  22484482.7954   22484483.2214
 -15941129.60144 -12421644.13544  21736020.9884   21736021.3414
   -540847.66544                  24479551.3234
 -17310400.181 4 -13488609.566 4  20960136.737    20960135.292
  -6225770.40044  -4851249.16844  23369551.7894   23369553.0104
 96  2 24  0  1 30.0000000  0  8G27G 7G 4G 9G 2G24G12G26
 -10482543.77444  -8168213.27444  23389583.9904   23389585.0994
 -24144343.18844 -18813740.27144  20459758.5424   20459758.7454
 -10586810.86844  -8249454.10844  22039632.0164   22039632.5714
 -12039492.18544  -9381416.64344  22469259.2604   22469259.0464
 -15904636.42144 -12393207.90244  21742965.7394   21742965.6004
   -649001.22144                  24458969.9014
 -17286705.465 4 -13470146.169 4  20964645.729    20964644.469
  -6170961.36844  -4808540.83844  23379981.4614   23379982.0114
 96  2 24  0  2  0.0000000  0  7G27G 7G 4G 9G 2G12G26
 -10371344.65844  -8081564.64444  23410744.9204   23410745.5484
 -24111998.74544 -18788536.80544  20465913.3984   20465913.6684
 -10670957.20644  -8315022.62344  22023619.2634   22023619.8614
 -12119179.61144  -9443510.72944  22454094.8134   22454094.8784
 -15867927.05144 -12364603.20944  21749950.9754   21749950.8884
 -17262619.205 4 -13451377.666 4  20969229.212    20969227.849
  -6115833.86944  -4765584.37844  23390472.1354   23390472.0694
 96  2 24  0  2 30.0000000  0  7G27G 7G 4G 9G 2G12G26
 -10259931.41544  -7994749.16544  23431946.3584   23431948.1624
 -24079340.03244 -18763088.45944  20472128.2154   20472128.6404
 -10754748.16544  -8380314.23244  22007674.3884   22007674.4194
 -12198580.48944  -9505381.52344  22438985.4764   22438985.8544
 -15830994.87844 -12335824.89744  21756979.1614   21756979.5484
 -17238150.191 4 -13432310.912 4  20973885.361    20973884.183
  -6060399.52344  -4722388.83144  23401019.9244   23401023.5994
 96  2 24  0  3  0.0000000  0  7G27G 7G 4G 9G 2G12G26
 -10148279.15244  -7907747.47344  23453191.6544   23453191.9624
 -24046344.04044 -18737377.29944  20478407.2674   20478407.0504
 -10838157.03244  -8445308.09644  21991802.3174   21991802.8484
 -12277698.21644  -9567031.68844  22423929.3284   22423928.9994
 -15793805.11544 -12306845.86944  21764055.9324   21764056.0384
 -17213283.348 4 -13412934.150 4  20978617.473    20978616.245
  -6004638.20144  -4678938.50044  23411632.0974   23411634.2384
 96  2 24  0  3 30.0000000  0  7G27G 7G 4G 9G 2G12G26
 -10036416.34844  -7820581.70644  23474478.3234   23474480.4414
 -24013031.40844 -18711419.40144  20484746.2844   20484746.3884
 -10921219.92344  -8510032.36544  21975995.3544   21975995.7514
 -12356545.34944  -9628470.99544  22408925.9544   22408925.3244
 -15756383.90344 -12277686.48844  21771176.4574   21771176.9064
 -17188057.954 4 -13393277.994 4  20983417.540    20983416.411
  -5948583.52344  -4635259.55744  23422299.8314   23422300.0874
 96  2 24  0  4  0.0000000  0  7G27G 7G 4G 9G 2G12G26
  -9924377.51744  -7733278.79144  23495799.0594   23495799.6814
 -23979395.53444 -18685209.63244  20491147.1104   20491147.4064
 -11003971.57444  -8574514.11044  21960248.3354   21960248.6894
 -12435106.70844  -9689687.62944  22393976.3534   22393975.9594
 -15718755.56944 -12248365.71644  21778337.5204   21778337.3474
 -17162480.340 4 -13373347.393 4  20988284.899    20988283.626
  -5892258.89044  -4591370.26744  23433018.4704   23433018.6374
 96  2 24  0  4 30.0000000  0  7G27G 7G 4G 9G 2G12G26
  -9812178.34944  -7645850.92544  23517150.5964   23517151.6954
 -23945418.00344 -18658733.62844  20497612.8144   20497612.9364
 -11086396.55444  -8638741.31944  21944563.4964   21944563.5534
 -12513372.11444  -9750673.64344  22379082.1194   22379082.0024
 -15680927.74744 -12218889.49444  21785536.2304   21785536.0684
 -17136537.872 4 -13353132.490 4  20993221.530    20993220.377
  -5835658.73044  -4547266.22844  23443788.6134   23443788.0344
 96  2 24  0  5  0.0000000  0  8G27G 7G 4G 9G 2G24G12G26
  -9699835.70644  -7558311.28344  23538529.3114   23538530.4184
 -23911109.77544 -18631999.94244  20504141.1794   20504141.5244
 -11168504.58744  -8702721.56444  21928939.0214   21928939.6314
 -12591333.90144  -9811423.07044  22364246.4904   22364246.9514
 -15642911.36444 -12189266.35944  21792770.0284   21792770.2364
        -1.20754                  24314840.7964
 -17110232.518 4 -13332634.808 4  20998227.380    20998226.123
  -5778797.66144  -4502958.95144  23454608.0364   23454608.5914
 96  2 24  0  5 30.0000000  0  8G27G 7G 4G 9G 2G24G12G26
  -9587323.46444  -7470639.46844  23559939.6424   23559940.0164
 -23876458.60244 -18604999.02744  20510735.1544   20510735.6314
 -11250261.79544  -8766428.44444  21913381.0224   21913381.3194
 -12668935.21244  -9871891.60444  22349479.5574   22349479.5704
 -15604665.38144 -12159464.31544  21800048.6584   21800048.6264
   -108249.02844                  24294241.4384
 -17083521.139 4 -13311820.755 4  21003310.370    21003309.142
  -5721638.03244  -4458419.02444  23465484.6984   23465486.8024
 96  2 24  0  6  0.0000000  0  8G27G 7G 4G 9G 2G24G12G26
  -9474646.19044  -7382839.05944  23581381.8814   23581383.1354
 -23841493.73944 -18577753.68144  20517388.5244   20517388.8084
 -11331664.41344  -8829859.02244  21897890.6624   21897891.0904
 -12746199.71044  -9932097.69544  22334776.5214   22334776.4574
 -15566191.37944 -12129484.58444  21807369.5354   21807369.7464
   -216441.07144                  24273653.6174
 -17056403.737 4 -13290690.313 4  21008470.657    21008469.388
  -5664187.50644  -4413652.40344  23476419.0584   23476418.7094
 96  2 24  0  6 30.0000000  0  8G27G 7G 4G 9G 2G24G12G26
  -9361756.63644  -7294873.23944  23602863.0194   23602863.3694
 -23806224.23844 -18550270.94844  20524100.2774   20524100.0954
 -11412679.89044  -8892987.93644  21882474.3614   21882474.5724
 -12823125.10144  -9992039.54844  22320138.2964   22320138.9054
 -15527448.22444 -12099295.13344  21814742.0934   21814742.2504
   -324557.47944                  24253081.3764
 -17028868.872 4 -13269234.571 4  21013710.369    21013709.134
  -5606422.58544  -4368640.79144  23487410.7914   23487410.4854
 96  2 24  0  7  0.0000000  0  8G27G 7G 4G 9G 2G24G12G26
  -9248629.17044  -7206722.00744  23624390.3384   23624391.0554
 -23770662.61944 -18522560.58744  20530867.7124   20530867.5244
 -11493300.82344  -8955809.41044  21867131.7944   21867132.0924
 -12899698.18844 -10051706.86644  22305566.7494   22305567.1474
 -15488417.41344 -12068881.52644  21822169.4494   21822169.9184
   -432604.32644                  24232518.3084
 -17000909.049 4 -13247447.701 4  21019030.909    21019029.838
  -5548334.54944  -4323377.40144  23498464.2244   23498464.6934
 96  2 24  0  7 30.0000000  0  8G27G 7G 4G 9G 2G24G12G26
  -9135296.22344  -7118410.70244  23645956.9774   23645959.6044
 -23734840.87844 -18494647.53644  20537684.1474   20537684.2094
 -11573549.98844  -9018341.19544  21851861.4874   21851861.7894
 -12975940.96844 -10111116.80644  22291058.5484   22291058.2814
 -15449154.89244 -12038287.36344  21829641.0284   21829641.7604
   -540654.52544                  24211957.3464
 -16972563.040 4 -13225359.913 4  21024424.948    21024423.691
  -5489950.79644  -4277883.59744  23509574.1074   23509575.1684
 96  2 24  0  8  0.0000000  0  8G27G 7G 4G 9G 2G24G12G26
  -9021763.28744  -7029943.55744  23667562.6434   23667563.4484
 -23698733.62544 -18466512.01644  20544555.0364   20544555.3374
 -11653431.14944  -9080586.21844  21836660.4764   21836660.7524
 -13051856.11144 -10170271.46044  22276612.4024   22276612.3024
 -15409689.85744 -12007535.39444  21837150.8234   21837151.2804
   -648727.44144                  24191390.6664
 -16943839.806 4 -13202978.193 4  21029890.950    21029889.734
  -5431281.78544  -4232167.53244  23520739.2904   23520739.2814
 96  2 24  0  8 30.0000000  0  8G27G 7G 4G 9G 2G24G12G26
  -8908108.09244  -6941381.11444  23689189.5264   23689192.4134
 -23662401.11644 -18438200.96944  20551469.0064   20551468.9694
 -11733012.91844  -9142597.95744  21821516.3634   21821516.7224
 -13127495.02144 -10229210.86044  22262218.2064   22262218.0304
 -15370104.53344 -11976689.69544  21844683.7704   21844684.2564
   -756880.70944                  24170810.8564
 -16914808.843 4 -13180356.693 4  21035415.344    21035414.103
  -5372390.18744  -4186277.99744  23531945.6964   23531946.3594
 96  2 24  0  9  0.0000000  0  7G27G 7G 4G 9G 2G24G12
  -8794383.37044  -6852764.49144  23710831.7414   23710833.7264
 -23625838.56344 -18409710.66744  20558426.5564   20558426.9214
 -11812310.57844  -9204388.29944  21806426.6194   21806427.1414
 -13202862.04744 -10287938.37744  22247876.6064   22247876.9404
 -15330438.44444 -11945781.05944  21852231.4974   21852231.7024
   -865113.27844   -674112.63244  24150213.5544
 -16885484.552 4 -13157506.613 4  21040995.577    21040994.304
 96  2 24  0  9 30.0000000  0  8G27G 7G 4G 9G 2G24G12G 5
  -8680513.58544  -6764034.85844  23732499.8724   23732499.9584
 -23588930.05544 -18380950.79744  20565449.9924   20565450.2154
 -11891234.45544  -9265887.37244  21791408.0634   21791408.4964
 -13277873.51644 -10346388.84944  22233602.7454   22233602.1824
 -15290604.20644 -11914741.39944  21859812.0184   21859812.0554
   -973320.47744   -758429.89744  24129622.8884   24129623.0544
 -16855778.722 4 -13134359.215 4  21046648.363    21046647.226
        -0.36154                  25358193.7124
 96  2 24  0 10  0.0000000  0  7G27G 7G 4G 9G 2G24G12
  -8566495.49844  -6675189.67144  23754196.7684   23754196.3254
 -23551683.46344 -18351927.47944  20572537.8594   20572537.9674
 -11969788.88544  -9327098.57344  21776459.2164   21776459.5984
 -13352544.62244 -10404574.12444  22219392.9584   22219392.5214
 -15250568.93444 -11883545.09344  21867430.3854   21867430.8724
  -1081476.74644   -842707.39844  24109041.7644   24109045.4494
 -16825681.998 4 -13110907.232 4  21052375.660    21052374.137
 96  2 24  0 10 30.0000000  0  8G27G 7G 4G 9G 2G24G12G 5
  -8452335.10744  -6586233.56044  23775920.5554   23775926.0074
 -23514112.68944 -18322651.55244  20579687.2754   20579687.3954
 -12047973.17544  -9388021.34944  21761581.4914   21761581.5324
 -13426880.79544 -10462498.40044  22205246.9864   22205247.4534
 -15210303.92544 -11852169.77344  21875092.7514   21875092.9124
  -1189569.89744   -926935.73344  24088471.4724   24088471.7064
 -16795186.665 4 -13087144.645 4  21058178.739    21058177.426
        -0.83554                  25327878.6804
 96  2 24  0 11  0.0000000  0  8G27G 7G 4G 9G 2G24G12G 5
  -8338021.76844  -6497158.32144  23797673.6214   23797675.1664
 -23476204.65444 -18293112.82144  20586901.0214   20586901.3794
 -12125779.73944  -9448649.81044  21746775.4214   21746775.9274
 -13500888.55744 -10520166.76844  22191164.0924   22191164.4084
 -15169785.52544 -11820597.00444  21882803.1224   21882803.6764
  -1297605.96844  -1011119.62344  24067913.3974   24067915.1304
 -16764279.896 4 -13063061.455 4  21064060.153    21064058.761
    -79739.73344                  25312706.0214
 96  2 24  0 11 30.0000000  0  8G27G 7G 4G 9G 2G24G12G 5
  -8223543.86744  -6407954.85344  23819458.8974   23819459.5844
 -23437986.09144 -18263332.12744  20594173.8744   20594174.3164
 -12203202.27444  -9508979.02644  21732042.0364   21732041.9404
 -13574576.65544 -10577586.05444  22177141.7034   22177141.8674
 -15129001.14744 -11788816.96844  21890564.5184   21890564.9874
  -1405604.63344  -1095274.34244  24047361.8294   24047367.2224
 -16732968.014 4 -13038662.593 4  21070018.484    21070017.312
   -159530.58144   -124309.52344  25297521.9934
 96  2 24  0 12  0.0000000  0  8G27G 7G 4G 9G 2G24G12G 5
  -8108905.44344  -6318626.27044  23841272.5244   23841278.6444
 -23399480.44444 -18233327.73144  20601501.2474   20601501.6534
 -12280224.56944  -9568996.37444  21717385.6634   21717385.5724
 -13647929.18144 -10634743.85744  22163183.5254   22163183.1694
 -15087935.90144 -11756818.08744  21898378.8024   21898379.1004
  -1513551.74344  -1179388.89044  24026820.7514   24026822.8044
 -16701246.117 4 -13013944.252 4  21076054.968    21076053.810
   -239352.13244   -186507.99244  25282333.5224   25282336.3714
 96  2 24  0 12 30.0000000  0  8G27G 7G 4G 9G 2G24G12G 5
  -7994088.75544  -6229158.81144  23863122.1764
 -23360666.10144 -18203082.79144  20608887.5794   20608887.6284
 -12356811.32144  -9628674.32544  21702811.2444   21702810.9064
 -13720901.90444 -10691605.70644  22149296.9534   22149296.9954
 -15046578.45344 -11724591.51544  21906249.1324   21906248.6514
  -1621421.97844  -1263443.51344  24006293.0974   24006295.3694
 -16669092.827 4 -12988889.758 4  21082173.616    21082172.336
   -319166.14544   -248700.64744  25267145.9264   25267149.0734
 96  2 24  0 13  0.0000000  0  8G27G 7G 4G 9G 2G24G12G 5
  -7879082.92444  -6139543.93844  23885008.4744   23885008.0914
 -23321539.79344 -18172594.75544  20616332.8384   20616332.8574
 -12432936.06244  -9687992.27044  21688324.9524   21688324.7054
 -13793467.21744 -10748150.09344  22135488.3534   22135487.8624
 -15004922.37144 -11692132.24644  21914175.8484   21914176.0314
  -1729209.19844  -1347433.43944  23985781.7144   23985785.5854
 -16636503.319 4 -12963495.349 4  21088375.195    21088373.857
   -398965.90544                  25251960.6144
 96  2 24  0 13 30.0000000  0  8G27G 7G 4G 9G 2G24G12G 5
  -7763963.60344  -6049840.58544  23906913.7394
 -23282186.62844 -18141929.95444  20623821.1914   20623821.5164
 -12508665.73444  -9747002.36344  21673914.2414   21673914.4584
 -13865672.39744 -10804413.87044  22121748.8384   22121748.5434
 -14963045.35244 -11659500.81844  21922144.1294   21922145.1804
  -1836968.89744  -1431401.91744  23965276.3494   23965281.0084
 -16603547.892 4 -12937815.799 4  21094646.464    21094645.164
   -478824.90844   -373109.83144  25236764.8284
 96  2 24  0 14  0.0000000  0  8G27G 7G 4G 9G 2G24G12G 5
  -7648786.94344  -5960092.57844  23928829.9964
 -23242646.82444 -18111119.72344  20631345.5504   20631345.8914
 -12584056.90944  -9805748.69044  21659567.9104   21659567.8424
 -13937558.91044 -10860429.31644  22108068.8824   22108068.5344
 -14921013.08544 -11626748.40844  21930142.9204   21930143.5394
  -1944744.05944  -1515382.45644  23944767.6694   23944769.5734
 -16570268.015 4 -12911883.432 4  21100979.335    21100978.028
   -558777.68344   -435410.63144  25221548.3954
 96  2 24  0 14 30.0000000  0  8G27G 7G 4G 9G 2G24G12G 5
  -7533481.15244                  23950773.1844
 -23202852.75044 -18080111.35644  20638918.1764   20638918.2334
 -12659052.91644  -9864187.09744  21645296.8754   21645297.1784
 -14009072.02244 -10916153.79944  22094459.9084   22094460.3594
 -14878785.64044 -11593843.90744  21938178.1934   21938179.3234
  -2052484.51444  -1599335.92744  23924264.3204   23924267.4794
 -16536602.447 4 -12885650.557 4  21107385.771    21107384.270
   -638777.27844   -497747.90144  25206326.5814
 96  2 24  0 15  0.0000000  0  8G27G 7G 4G 9G 2G24G12G 5
  -7418068.00744                  23972735.6544
 -23162822.90444 -18048919.26244  20646535.5424   20646535.5384
 -12733676.63744  -9922335.41144  21631096.0934   21631096.1694
 -14080247.43844 -10971615.15044  22080915.8924   22080915.4004
 -14836383.69744 -11560803.44444  21946247.5094   21946248.4244
  -2160209.09444  -1683277.06344  23903765.1634   23903767.0004
 -16502570.968 4 -12859132.557 4  21113861.743    21113860.438
   -718847.57744                  25191088.2934
 96  2 24  0 15 30.0000000  0  8G27G 7G 4G 9G 2G24G12G 5
  -7302532.54144                  23994721.4134
 -23122528.09544 -18017520.71544  20654203.4584   20654203.6584
 -12807917.78244  -9980185.61144  21616968.4164   21616968.4034
 -14151080.32544 -11026809.59844  22067436.9934   22067436.2794
 -14793806.63244 -11527626.53644  21954349.6464   21954350.0754
  -2267897.33244  -1767189.84944  23883272.4554   23883275.6654
 -16468156.752 4 -12832316.296 4  21120410.602    21120409.129
   -798975.18144   -622577.24944  25175841.4654
 96  2 24  0 16  0.0000000  0  8G27G 7G 4G 9G 2G24G12G 5
  -7186838.14544                  24016736.8594
 -23081917.94644 -17985876.44844  20661931.4594   20661931.7914
 -12881738.04444 -10037707.84744  21602921.2434   21602921.0144
 -14221546.96744 -11081718.65344  22054027.3474   22054027.4604
 -14751011.34144 -11494279.57644  21962493.2204   21962493.6004
  -2375512.29744  -1851045.57444  23862794.4754   23862796.6384
 -16433329.454 4 -12805178.145 4  21127037.938    21127036.687
   -879136.24644   -685040.33544  25160586.9654   25160587.5914
 96  2 24  0 16 30.0000000  0  8G27G 7G 4G 9G 2G24G12G 5
  -7070960.14844                  24038787.8734
 -23040968.19344 -17953967.55044  20669723.7204   20669723.7544
 -12955109.22544 -10094880.15444  21588958.3154   21588958.3944
 -14291627.44744 -11136326.79844  22040691.2254   22040690.9884
 -14707953.80344 -11460728.26344  21970686.5504   21970687.6074
  -2483025.32244  -1934821.84444  23842334.6534   23842336.5964
 -16398068.771 4 -12777702.300 4  21133747.814    21133746.602
   -959309.94144   -747513.19144  25145328.7734
 96  2 24  0 17  0.0000000  0  8G27G 7G 4G 9G 2G24G12G 5
  -6954917.36144                  24060872.1964
 -22999683.64344 -17921797.76644  20677580.3274   20677580.4754
 -13028036.62944 -10151706.65544  21575081.0304   21575081.5044
 -14361325.07544 -11190636.61944  22027428.4794   22027428.3914
 -14664630.60644 -11426969.93544  21978931.4054   21978932.0714
  -2590448.72444  -2018528.31144  23821892.9594   23821894.6384
 -16362386.627 4 -12749898.039 4  21140537.966    21140536.585
  -1039506.35544                  25130068.1144
 96  2 24  0 17 30.0000000  0  8G27G 7G 4G 9G 2G24G12G 5
  -6838778.28444                  24082970.7124
 -22958133.75544 -17889421.23044  20685486.7514   20685486.5834
 -13100573.19444 -10208228.61444  21561277.6054   21561277.9754
 -14430690.85344 -11244687.87144  22014228.4984   22014228.2004
 -14621106.57444 -11393055.10844  21987213.9344   21987214.3244
  -2697842.10044  -2102211.35144  23801456.4944   23801460.9754
 -16326348.262 4 -12721816.210 4  21147395.824    21147394.627
  -1119791.83344                  25114790.0544
 96  2 24  0 18  0.0000000  0  8G27G 7G 4G 9G 2G24G12G 5
  -6722505.23844                  24105095.1144
 -22916289.12944 -17856815.02944  20693449.6134   20693449.4354
 -13172666.24444 -10264404.98644  21547558.6844   21547558.7584
 -14499675.24144 -11298441.91944  22001101.2574   22001101.7304
 -14577332.61944 -11358945.54844  21995543.2444   21995543.3294
  -2805149.24144  -2185827.23244  23781036.1484   23781038.3754
 -16289909.493 4 -12693422.375 4  21154329.855    21154328.615
  -1200109.66044   -935149.12544  25099505.0134
 96  2 24  0 18 30.0000000  0  8G27G 7G 4G 9G 2G24G12G 5
  -6606109.68644                  24127245.2174
 -22874162.50244 -17823989.08444  20701465.9944   20701465.6894
 -13244314.13344 -10320234.47744  21533924.6264   21533925.1774
 -14568268.00544 -11351890.80544  21988048.6694   21988048.9884
 -14533321.67844 -11324651.33544  22003918.1174   22003919.0144
  -2912371.14744  -2269376.70344  23760633.6444   23760636.9104
 -16253070.402 4 -12664716.596 4  21161340.146    21161338.853
  -1280466.27244                  25084211.7024
 96  2 24  0 19  0.0000000  0  8G27G 7G 4G 9G 2G24G12G 5
  -6489588.90844                  24149418.7294
 -22831763.24344 -17790950.70044  20709534.5144   20709534.3364
 -13315507.28644 -10375709.62444  21520377.2784   21520377.6864
 -14636462.10444 -11405029.05444  21975071.5474   21975071.2734
 -14489082.61944 -11290179.35144  22012337.0774   22012337.6174
  -3019488.99844  -2352845.06944  23740249.0694   23740250.4884
 -16215830.489 4 -12635698.490 4  21168426.717    21168425.336
  -1360873.11144  -1060419.24244  25068912.1174
 96  2 24  0 19 30.0000000  0  8G27G 7G 4G 9G 2G24G12G 5
  -6372919.61044                  24171621.3254
 -22789075.90244 -17757687.84044  20717657.3244   20717657.4444
 -13386215.08144 -10430806.57844  21506921.6124   21506922.1494
 -14704232.20144 -11457836.91144  21962175.7334   21962175.1754
 -14444576.91644 -11255499.59544  22020806.5164   22020806.7494
  -3126450.16744  -2436191.37844  23719895.4454   23719898.3784
 -16178156.039 4 -12606341.787 4  21175595.981    21175594.637
  -1441290.55444  -1123082.04544  25053609.5484   25053612.6424
 96  2 24  0 20  0.0000000  0  8G27G 7G 4G 9G 2G24G12G 5
  -6256121.20644                  24193848.6574
 -22746120.23444 -17724215.89444  20725831.6914   20725831.9374
 -13456470.37844 -10485550.92644  21493552.5714   21493552.9014
 -14771602.99244 -11510333.61844  21949355.6614   21949355.3464
 -14399814.07844 -11220619.48044  22029323.9104   22029325.1704
  -3233272.36344  -2519429.39844  23699568.0374   23699570.9224
 -16140067.842 4 -12576662.686 4  21182843.826    21182842.571
  -1521739.71744                  25038299.7904
 96  2 24  0 20 30.0000000  0  8G27G 7G 4G 9G 2G24G12G 5
  -6139223.20244                  24216089.3854
 -22702928.96044 -17690560.36244  20734050.5114   20734050.7144
 -13526304.18844 -10539966.83844  21480263.7094   21480264.3044
 -14838598.30444 -11562537.74444  21936606.7904   21936606.3514
 -14354811.90344 -11185552.86544  22037887.2724   22037888.3354
  -3339996.01644  -2602590.60744  23679258.0834   23679260.0864
 -16101591.090 4 -12546680.826 4  21190165.812    21190164.536
  -1602254.81744  -1248508.55144  25022980.1644   25022983.8484
 96  2 24  0 21  0.0000000  0  8G27G 7G 4G 9G 2G24G12G 5
  -6022234.63144                  24238354.1944
 -22659511.52744 -17656728.60244  20742312.6904   20742312.9714
 -13595710.83644 -10594049.90144  21467056.4574   21467056.9044
 -14905223.65144 -11614453.58344  21923927.9304   21923928.1594
 -14309570.81644 -11150300.07944  22046496.7484   22046497.3834
  -3446622.28044  -2685675.94244  23658967.3804   23658969.9474
 -16062726.221 4 -12516396.534 4  21197561.612    21197560.229
  -1682820.69844  -1311287.11444  25007649.7854   25007650.7704
 96  2 24  0 21 30.0000000  0  8G27G 7G 4G 9G 2G24G12G 5
  -5905182.19444                  24260628.8384
 -22615869.83244 -17622722.09544  20750617.1884   20750617.3484
 -13664712.18144 -10647817.14844  21453925.6334   21453925.9334
 -14971477.94044 -11666080.29444  21911320.0884   21911319.7814
 -14264115.11944 -11114880.07644  22055146.9444   22055147.6254
  -3553187.09844  -2768713.40244  23638689.2514   23638692.5904
 -16023485.072 4 -12485819.029 4  21205028.937    21205027.505
  -1763439.23144  -1374106.73644  24992309.2734
 96  2 24  0 22  0.0000000  0  8G27G 7G 4G 9G 2G24G12G 5
  -5788035.21944                  24282920.6664
 -22571973.44744 -17588517.12044  20758970.7844   20758970.6424
 -13733284.60444 -10701250.17444  21440877.0914   21440877.2044
 -15037321.84044 -11717387.22344  21898790.6914   21898790.8524
 -14218443.50644 -11079291.82844  22063837.8194   22063838.1914
  -3659689.17844  -2851701.96544  23618422.2824   23618425.7674
 -15983844.644 4 -12454930.412 4  21212572.212    21212570.793
  -1844093.89344  -1436954.43844  24976957.7124
 96  2 24  0 22 30.0000000  0  8G27G 7G 4G 9G 2G24G12G 5
  -5670782.43844                  24305235.2494
 -22527804.11544 -17554099.45844  20767375.4914   20767375.5624
 -13801403.44944 -10754329.76444  21427913.7874   21427913.9214
 -15102726.42944 -11768351.81644  21886344.6644   21886344.6374
 -14172548.32844 -11043529.36944  22072571.1624   22072571.6194
  -3766118.17544  -2934633.58844  23598170.1384   23598171.9004
 -15943783.184 4 -12423713.709 4  21220195.790    21220194.411
  -1924764.43444  -1499814.52044  24961608.3804   24961610.0874
 96  2 24  0 23  0.0000000  0  8G27G 7G 4G 9G 2G24G12G 5
  -5553424.97844                  24327567.1444
 -22483364.75044 -17519471.38344  20775832.6034   20775832.7834
 -13869087.10944 -10807070.25244  21415034.0934   21415034.3604
 -15167707.71744 -11818986.56644  21873978.8214   21873978.4144
 -14126441.02544 -11007601.61344  22081345.3944   22081345.8944
  -3872469.34944  -3017504.58544  23577931.8424   23577934.1464
 -15903311.045 4 -12392177.004 4  21227897.386    21227895.816
  -2005459.48244  -1562693.71444  24946253.7544   24946259.3374
 96  2 24  0 23 30.0000000  0  8G27G 7G 4G 9G 2G24G12G 5
  -5436017.85744                  24349905.1534
 -22438714.94344 -17484679.32944  20784328.8744   20784329.0844
 -13936423.64044 -10859540.24444  21402220.3124   21402220.6764
 -15232343.06544 -11869351.77344  21861679.0574   21861678.7204
 -14080173.51344 -10971549.02344  22090150.1944   22090150.7394
  -3978811.36344  -3100368.44844  23557695.4294   23557697.8554
 -15862499.376 4 -12360375.718 4  21235663.665    21235662.218
  -2086258.73244  -1625654.08944  24930877.1224
 96  2 24  0 24  0.0000000  0  8G27G 7G 4G 9G 2G24G12G 5
  -5318460.21344                  24372279.6104
 -22393781.00244 -17449665.86744  20792879.5924   20792879.9884
 -14003312.72044 -10911661.58144  21389491.7584   21389491.7524
 -15296555.28744 -11919387.26244  21849459.9914   21849460.3524
 -14033635.96344 -10935286.00744  22099006.1974   22099006.6144
  -4085031.01544  -3183136.96844  23537482.3334   23537485.7024
 -15821257.161 4 -12328238.945 4  21243511.779    21243510.320
  -2167078.94444  -1688630.86644  24915497.2544   24915499.1234
 96  2 24  0 24 30.0000000  0  8G27G 7G 4G 9G 2G24G12G 5
  -5200741.08244                  24394677.3194
 -22348550.14444 -17414421.04244  20801486.7454   20801487.1434
 -14069720.70244 -10963408.04044  21376855.0464   21376855.2514
 -15360334.06344 -11969084.99644  21837322.9064   21837323.0114
 -13986790.36444 -10898782.96844  22107920.0864   22107920.7294
  -4191074.01044  -3265767.84244  23517303.4974   23517307.6514
 -15779562.231 4 -12295749.400 4  21251445.920    21251444.608
  -2247890.19444  -1751600.52644  24900118.2584   24900121.4264
 96  2 24  0 25  0.0000000  0  8G27G 7G 4G 9G 2G24G12G 5
  -5082936.34044                  24417096.0514
 -22303109.33544 -17379012.62644  20810133.8144   20810134.1154
 -14135715.70144 -11014832.68744  21364296.4634   21364296.4964
 -15423760.66944 -12018508.31444  21825253.4554   21825253.2774
 -13939711.18144 -10862097.91044  22116878.3944   22116879.5834
  -4297007.29844  -3348313.20844  23497144.8944   23497149.1894
 -15737498.324 4 -12262972.331 4  21259450.529    21259449.128
  -2328775.88644  -1814628.25444  24884728.0204   24884728.4344
 96  2 24  0 25 30.0000000  0  8G27G 7G 4G 9G 2G24G12G 5
  -4965047.27644                  24439530.7084
 -22257447.73544 -17343432.16344  20818823.2684   20818823.3634
 -14201253.18344 -11065900.82644  21351824.8064   21351825.1714
 -15486796.14644 -12067626.85844  21813258.7454   21813258.2174
 -13892388.71644 -10825223.28344  22125884.3094   22125885.3164
  -4402803.55044  -3430751.78544  23477012.9994   23477016.1554
 -15695043.360 4 -12229890.551 4  21267529.528    21267527.946
  -2409722.84444  -1877703.74844  24869323.1494   24869326.5714
 96  2 24  0 26  0.0000000  0  8G27G 7G 4G 9G 2G24G12G 5
  -4847118.06944                  24461972.0434
 -22211597.96344 -17307705.06944  20827547.7834   20827548.0234
 -14266323.89744 -11116605.24944  21339442.5584   21339442.5774
 -15549446.75644 -12116445.51344  21801336.4544   21801336.4064
 -13844857.36744 -10788185.87944  22134928.7254   22134929.0704
  -4508475.37744  -3513093.40244  23456903.9814   23456906.1994
 -15652216.573 4 -12196519.045 4  21275679.047    21275677.781
  -2490742.72544  -1940836.13244  24853903.8184   24853908.7104
 96  2 24  0 26 30.0000000  0  8G27G 7G 4G 9G 2G24G12G 5
  -4729163.75644                  24484418.5414
 -22165554.49244 -17271827.04044  20836309.8454   20836309.7554
 -14330933.56044 -11166950.40644  21327147.6344   21327147.4504
 -15611718.22644 -12164968.72644  21789486.6884   21789486.6544
 -13797125.97844 -10750992.61244  22144012.0094   22144013.0304
  -4614046.98944  -3595356.92844  23436814.1184   23436817.7224
 -15609022.661 4 -12162861.460 4  21283898.633    21283897.263
  -2571831.11144  -2004021.68844  24838473.5844
 96  2 24  0 27  0.0000000  0  8G27G 7G 4G 9G 2G24G12G 5
  -4611164.90844                  24506872.7564
 -22119300.54844 -17235785.01044  20845111.4894   20845111.9204
 -14395076.36544 -11216931.77444  21314941.4574   21314941.4204
 -15673592.76644 -12213182.64344  21777712.1264   21777711.8374
 -13749185.56744 -10713636.46444  22153134.2874   22153135.4034
  -4719527.28844  -3677549.29244  23416742.1334   23416744.6344
 -15565450.069 4 -12128908.813 4  21292190.305    21292188.856
  -2652987.04844  -2067260.02144  24823033.0934   24823035.8524
 96  2 24  0 27 30.0000000  0  8G27G 7G 4G 9G 2G24G12G 5
  -4493122.84344                  24529335.6864
 -22072829.47044 -17199573.78444  20853954.9484   20853955.0114
 -14458753.50944 -11266550.29044  21302824.6144   21302824.6074
 -15735065.83844 -12261083.73644  21766013.6364   21766013.4364
 -13701035.89244 -10676117.26944  22162297.0304   22162297.3474
  -4824909.85044  -3759665.52644  23396687.2674   23396689.7174
 -15521492.225 4 -12094655.978 4  21300555.246    21300553.847
  -2734203.54644  -2130545.55444  24807577.8484   24807581.6204
 96  2 24  0 28  0.0000000  0  8G27G 7G 4G 9G 2G24G12G 5
  -4374985.52744                  24551816.9954
 -22026096.22344 -17163158.27244  20862848.1104   20862848.4084
 -14521938.69444 -11315785.46944  21290800.4104   21290800.7694
 -15796110.08444 -12308650.68344  21754398.1854   21754397.8234
 -13652628.13444 -10638396.96544  22171508.9024   22171509.2454
  -4930166.99344  -3841684.02344  23376657.5464   23376659.5684
 -15477117.015 4 -12060077.920 4  21308999.454    21308998.174
  -2815431.56844  -2193840.00444  24792120.3874   24792122.7964
 96  2 24  0 28 30.0000000  0  8G27G 7G 4G 9G 2G24G12G 5
  -4256741.74544                  24574318.0424
 -21979104.02444 -17126540.98444  20871789.6994   20871790.1764
 -14584651.48444 -11364652.54544  21278867.0994   21278866.9654
 -15856730.30344 -12355887.20144  21742862.0864   21742862.4134
 -13603967.18044 -10600479.36544  22180769.3394   22180770.4424
  -5035291.59244  -3923599.23944  23356653.1724   23356654.7984
 -15432331.891 4 -12025180.435 4  21317522.029    21317520.496
  -2896691.73244  -2257159.61044  24776657.6134   24776657.9104
 96  2 24  0 29  0.0000000  0  8G27G 7G 4G 9G 2G24G12G 5
  -4138401.36744                  24596837.9894
 -21931862.69344 -17089729.56544  20880779.7714   20880780.2014
 -14646896.84044 -11413155.38744  21267021.9624   21267021.9604
 -15916905.72344 -12402777.13144  21731411.9894   21731411.7694
 -13555063.39344 -10562372.54744  22190074.8654   22190076.0394
  -5140256.70344  -4005390.17344  23336679.7184   23336682.7774
 -15387144.859 4 -11989969.779 4  21326120.843    21326119.244
  -2977998.43444  -2320515.44744  24761185.6744   24761189.6454
 96  2 24  0 29 30.0000000  0  8G27G 7G 4G 9G 2G24G12G 5
  -4019984.12444  -3132455.78144  24619370.7074
 -21884376.73844 -17052727.52244  20889816.1234   20889816.3214
 -14708683.24544 -11461300.59744  21255264.2314   21255264.2024
 -15976639.90944 -12449323.25444  21720043.8434   21720043.5224
 -13505924.64344 -10524082.64544  22199426.1844   22199426.6714
  -5245052.88044  -4087049.45544  23316737.1104   23316739.0214
 -15341561.969 4 -11954450.677 4  21334795.024    21334793.395
  -3059342.83144  -2383900.66444  24745706.1004   24745710.1864
 96  2 24  0 30  0.0000000  0  8G27G 7G 4G 9G 2G24G12G 5
  -3901512.52844                  24641915.8064
 -21836662.38944 -17015547.51344  20898895.6904   20898895.8104
 -14770020.31344 -11509095.67444  21243592.1744   21243592.0844
 -16035942.29844 -12495532.89544  21708759.0974   21708759.0574
 -13456561.69544 -10485618.04644  22208819.5534   22208819.8624
  -5349700.35444  -4168592.86044  23296823.6014   23296826.3994
 -15295599.565 4 -11918635.829 4  21343541.174    21343539.904
  -3140737.23244  -2447324.74844  24730218.3114   24730219.3274
 96  2 24  0 30 30.0000000  0  8G27G 7G 4G 9G 2G24G12G 5
  -3783001.82744                  24664468.2394
 -21788712.24944 -16978183.77044  20908020.5454   20908020.9324
 -14830890.99044 -11556527.34744  21232009.0454   21232008.7994
 -16094799.01444 -12541395.25644  21697559.1564   21697559.0234
 -13406971.87344 -10446976.65744  22218255.7714   22218256.4504
  -5454193.28144  -4250015.84244  23276939.1954   23276942.2724
 -15249245.644 4 -11882515.894 4  21352362.153    21352360.773
  -3222178.76944  -2510785.65444  24714720.7114   24714723.7564
 96  2 24  0 31  0.0000000  0  8G27G 7G 4G 9G 2G24G12G 5
  -3664467.46744                  24687024.1964
 -21740514.09244 -16940626.76744  20917192.5734   20917192.5944
 -14891281.46944 -11603584.85044  21220517.1634   21220516.9654
 -16153212.01244 -12586911.87344  21686443.4704   21686443.5184
 -13357149.11344 -10408153.76444  22227737.1314   22227737.7804
  -5558551.57844  -4331333.91544  23257080.6034   23257083.5354
 -15202493.548 4 -11846085.702 4  21361258.789    21361257.310
  -3303645.19344  -2574265.95244  24699217.9904   24699220.2114
 96  2 24  0 31 30.0000000  0  8G27G 7G 4G 9G 2G24G12G 5
  -3545908.24744                  24709586.6554
 -21692071.16244 -16902879.02944  20926410.6384   20926410.6384
 -14951178.59444 -11650257.91844  21209118.8064   21209118.8344
 -16211202.91844 -12632099.58244  21675408.3114   21675407.8994
 -13307083.90244 -10369141.93644  22237265.0464   22237265.3544
  -5662794.90344  -4412562.42644  23237243.6814   23237245.4524
 -15155339.039 4 -11809341.957 4  21370231.920    21370230.698
  -3385127.41544  -2637758.55344  24683713.3794   24683715.0894
 96  2 24  0 32  0.0000000  0  8G27G 7G 4G 9G 2G24G12G 5
  -3427336.01844                  24732149.3874
 -21643403.26344 -16864955.98844  20935671.9734   20935672.1374
 -15010573.48944 -11696539.62944  21197816.4854   21197816.3454
 -16268773.63944 -12676959.87344  21664453.5404   21664453.0974
 -13256780.79444 -10329944.73944  22246836.6064   22246837.7364
  -5766942.23744  -4493716.10944  23217425.5014   23217427.3514
 -15107792.220 4 -11772292.495 4  21379279.930    21379278.367
  -3466644.36244  -2701278.19544  24668200.0434   24668198.8294
 96  2 24  0 32 30.0000000  0  8G27G 7G 4G 9G 2G24G12G 5
  -3308740.88544                  24754715.7254
 -21594507.69844 -16826855.55244  20944976.2124   20944976.6094
 -15069459.22044 -11742424.59244  21186610.8744   21186610.6054
 -16325920.92844 -12721490.21344  21653578.2914   21653578.3264
 -13206231.88344 -10290556.01044  22256454.9884   22256456.1284
  -5870973.48344  -4574779.36144  23197628.9164   23197631.9704
 -15059845.997 4 -11734931.817 4  21388403.762    21388402.272
  -3548185.75644  -2764816.90344  24652683.1784   24652681.0884
 96  2 24  0 33  0.0000000  0  8G27G 7G 4G 9G 2G24G12G 5
  -3190100.83944                  24777292.5664
 -21545390.42944 -16788582.36144  20954322.9324   20954323.1914
 -15127832.46944 -11787910.22344  21175502.6564   21175502.5184
 -16382635.29244 -12765683.21344  21642785.5424   21642785.8404
 -13155425.57644 -10250966.72144  22266123.9644   22266125.3304
  -5974862.63044  -4655731.88244  23177858.5454   23177861.3474
 -15011493.052 4 -11697254.224 4  21397605.136    21397603.752
  -3629736.54044  -2828362.88344  24637163.7914   24637165.5354
 96  2 24  0 33 30.0000000  0  8G27G 7G 4G 9G 2G24G12G 5
  -3071411.03444                  24799878.5834
 -21496071.77344 -16750152.24444  20963707.9524   20963708.0784
 -15185701.83244 -11833003.20244  21164490.5824   21164490.3484
 -16438903.26844 -12809528.38044  21632078.5144   21632078.4154
 -13104370.30344 -10211183.43544  22275839.6314   22275840.7154
  -6078594.50444  -4736561.84144  23158118.7974   23158121.5734
 -14962740.793 4 -11659265.468 4  21406882.281    21406880.675
  -3711315.71144  -2891930.96944  24621639.6134   24621640.6674
 96  2 24  0 34  0.0000000  0  8G27G 7G 4G 9G 2G24G12G 5
  -2952664.61744                  24822476.6854
 -21446545.91944 -16711560.67044  20973132.6004   20973132.5674
 -15243071.29744 -11877706.64844  21153573.2854   21153573.1104
 -16494704.04744 -12853009.49544  21621459.3694   21621459.5484
 -13053063.33944 -10171204.01544  22285602.8484   22285603.9294
  -6182154.95744  -4817258.21944  23138411.8734   23138414.6464
 -14913585.703 4 -11620962.796 4  21416236.188    21416234.729
  -3792931.72044  -2955527.84744  24606107.1284   24606110.2014
 96  2 24  0 34 30.0000000  0  8G27G 7G 4G 9G 2G24G12G 5
  -2833862.62044                  24845081.8244
 -21396813.45344 -16672808.09144  20982596.0694   20982596.4574
 -15299962.19544 -11922037.19444  21142747.4664   21142747.3864
 -16550055.06244 -12896140.14844  21610926.8644   21610926.3464
 -13001518.27944 -10131039.06744  22295411.5734   22295412.3054
  -6285542.23444  -4897819.66744  23118738.1574   23118739.5494
 -14864039.443 4 -11582355.327 4  21425664.551    21425663.145
  -3874596.28244  -3019162.50144  24590566.2524   24590569.7754
 96  2 24  0 35  0.0000000  0  8G27G 7G 4G 9G 2G24G12G 5
  -2714986.70344                  24867705.2754
 -21346864.91644 -16633887.17644  20992101.2954   20992101.8594
 -15356365.14344 -11965987.53244  21132014.1514   21132014.1804
 -16604938.59644 -12938906.53844  21600483.2854   21600482.9534
 -12949728.55844 -10090683.48044  22305267.0644   22305266.5684
  -6388749.83644  -4978241.13144  23099098.7604   23099100.5004
 -14814093.217 4 -11543436.209 4  21435168.962    21435167.644
  -3956311.58244  -3082836.65244  24575016.1134   24575018.7134
 96  2 24  0 35 30.0000000  0  8G27G 7G 4G 9G 2G24G12G 5
  -2596033.64144                  24890340.8724
 -21296700.72944 -16594798.21044  21001647.4254   21001647.7414
 -15412278.96844 -12009556.73444  21121373.8174   21121373.6184
 -16659359.49544 -12981312.42144  21590127.2464   21590127.1034
 -12897697.69244 -10050139.98444  22315168.3464   22315168.7314
  -6491781.55544  -5058525.53544  23079492.7004   23079494.1774
 -14763755.125 4 -11504211.742 4  21444747.978    21444746.585
  -4038094.78944  -3146563.81744  24559454.5014   24559453.0004
 96  2 24  0 36  0.0000000  0  8G27G 7G 4G 9G 2G24G12G 5
  -2477012.86344                  24912989.0044
 -21246327.52844 -16555546.36244  21011233.2334   21011233.2894
 -15467692.77444 -12052736.29344  21110829.2754   21110829.2194
 -16713336.47444 -13023372.39444  21579855.2104   21579855.2264
 -12845423.29344 -10009406.70944  22325115.3864   22325115.8474
  -6594636.56844  -5138672.23944  23059919.7114   23059920.2534
 -14713024.903 4 -11464681.716 4  21454401.669    21454400.109
  -4119927.22444  -3210329.28444  24543881.7874   24543882.1544
 96  2 24  0 36 30.0000000  0  8G27G 7G 4G 9G 2G24G12G 5
  -2357941.70444                  24935648.3514
 -21195762.58944 -16516145.10444  21020854.8754   21020854.7874
 -15522608.37244 -12095527.63444  21100378.7214   21100378.8714
 -16766880.21344 -13065094.78944  21569666.0894   21569665.7304
 -12792926.63844  -9968500.25344  22335105.3054   22335105.7114
  -6697322.14744  -5218686.90844  23040379.0084   23040381.8984
 -14661914.033 4 -11424855.070 4  21464127.773    21464126.193
  -4201800.75444  -3274126.81044  24528301.9834   24528302.8664
 96  2 24  0 37  0.0000000  0  8G27G 7G 4G 9G 2G24G12G 5
  -2238800.72344                  24958320.8054
 -21144990.58244 -16476582.50444  21030516.8404   21030516.8974
 -15576983.97244 -12137898.19444  21090032.0204   21090031.6374
 -16819946.97444 -13106445.51244  21559568.2864   21559568.0754
 -12740173.16244  -9927393.68444  22345144.2354   22345144.7524
  -6799799.93744  -5298539.67944  23020878.0754   23020879.5314
 -14610382.101 4 -11384700.333 4  21473933.938    21473932.552
  -4283668.08144  -3337919.47744  24512722.8454   24512723.1804
 96  2 24  0 37 30.0000000  0  8G27G 7G 4G 9G 2G24G12G 5
  -2119637.46444                  24980995.9594
 -21094034.33244 -16436876.33644  21040213.3504   21040213.6174
 -15630823.53244 -12179851.06244  21079786.6984   21079786.4844
 -16872556.32744 -13147439.80544  21549556.7094   21549556.6104
 -12687179.34944  -9886099.84744  22355228.1274   22355228.7174
  -6902090.35844  -5378246.45244  23001413.2604   23001416.3444
 -14558445.089 4 -11344229.964 4  21483817.278    21483815.859
  -4365543.14544  -3401718.18644  24497143.2874   24497144.9264
 96  2 24  0 38  0.0000000  0  8G27G 7G 4G 9G 2G24G12G 5
  -2000493.73244                  25003666.4664
 -21042916.83844 -16397044.51444  21049940.6574   21049940.6714
 -15684148.46644 -12221402.92044  21069638.9694   21069638.8054
 -16924724.94044 -13188090.66544  21539629.6384   21539629.7464
 -12633971.39844  -9844639.13044  22365353.6564   22365354.1974
  -7004215.82744  -5457824.70444  22981978.8704   22981980.3704
 -14506118.247 4 -11303455.830 4  21493774.834    21493773.217
  -4447439.32944  -3465533.32944  24481557.7924   24481560.6084
 96  2 24  0 38 30.0000000  0  8G27G 7G 4G 9G 2G24G12G 5
  -1881348.77144                  25026342.1184
 -20991605.85444 -16357061.92744  21059705.1934   21059705.5184
 -15736947.51944 -12262544.99644  21059591.9454   21059591.4364
 -16976418.19544 -13228371.11644  21529792.8954   21529792.7934
 -12580525.45744  -9802992.96544  22375524.2594   22375524.8144
  -7106151.91644  -5537255.37844  22962580.7964   22962582.3734
 -14453383.706 4 -11262364.018 4  21503809.790    21503808.423
  -4529366.35444  -3529372.52244  24465967.8154   24465968.2184
 96  2 24  0 39  0.0000000  0  7G 7G 4G 9G 2G24G12G 5
 -20940092.24244 -16316921.44744  21069507.4844   21069507.6174
 -15789212.49944 -12303270.92044  21049646.0264   21049645.8754
 -17027641.55644 -13268285.41544  21520045.4274   21520045.0444
 -12526815.29144  -9761140.92544  22385745.1564   22385746.1684
  -7207882.76644  -5616526.11644  22943222.4224   22943224.1414
 -14400238.023 4 -11220951.823 4  21513923.201    21513921.761
  -4611345.93844  -3593252.72044  24450367.2764   24450368.8724
 96  2 24  0 39 30.0000000  0  7G 7G 4G 9G 2G24G12G 5
 -20888383.13644 -16276628.63544  21079347.6304   21079347.4364
 -15840955.00144 -12343589.72344  21039799.5844   21039799.2354
 -17078418.94644 -13307852.20544  21510382.8484   21510382.4424
 -12472847.66044  -9719088.25244  22396014.8064   22396015.8164
  -7309424.18244  -5695649.25144  22923899.6264   22923901.8264
 -14346705.673 4 -11179238.320 4  21524110.047    21524108.563
  -4693415.07044  -3657202.57744  24434750.5864   24434752.9364
 96  2 24  0 40  0.0000000  0  8G26G 7G 4G 9G 2G24G12G 5
        -0.41154        -0.46254  24320778.1004   24320783.1384
 -20836431.75344 -16236147.03244  21089233.6134   21089233.6104
 -15892152.27744 -12383483.67844  21030057.2364   21030056.8204
 -17128712.51744 -13347042.00144  21500811.8074   21500811.7224
 -12418593.26044  -9676812.13444  22406339.1584   22406339.5144
  -7410734.09444  -5774592.01444  22904621.2124   22904623.0854
 -14292756.013 4 -11137199.650 4  21534376.427    21534374.891
  -4775540.37744  -3721196.28644  24419122.2304   24419121.6014
 96  2 24  0 40 30.0000000  0  8G26G 7G 4G 9G 2G24G12G 5
     70822.83344     55186.35644  24334256.5364   24334261.2494
 -20784244.46944 -16195481.61644  21099164.3984   21099164.6234
 -15942809.95044 -12422957.17144  21020417.0584   21020416.7914
 -17178530.61144 -13385861.28544  21491331.7274   21491331.7234
 -12364047.53644  -9634309.00344  22416718.7064   22416719.1504
  -7511825.00544  -5853364.11644  22885384.3934   22885386.2944
 -14238401.252 4 -11094845.331 4  21544719.771    21544718.198
  -4857730.43744  -3785240.47444  24403481.3194   24403482.7864
 96  2 24  0 41  0.0000000  0  8G26G 7G 4G 9G 2G24G12G 5
    141700.10544    110415.35944  24347745.8744   24347750.4964
 -20731853.79444 -16154657.72144  21109134.0954   21109134.2364
 -15992954.95344 -12462031.17844  21010874.7964   21010874.4234
 -17227895.21444 -13424327.20344  21481938.3434   21481937.8154
 -12309236.99044  -9591599.52844  22427148.8574   22427149.1874
  -7612727.86844  -5931989.68944  22866183.0664   22866185.0814
 -14183662.462 4 -11052191.749 4  21555136.178    21555134.755
  -4939974.37344  -3849326.58944  24387831.2324   24387834.3314
 96  2 24  0 41 30.0000000  0  8G26G 7G 4G 9G 2G24G12G 5
    212650.61744    165701.43444  24361249.7184   24361250.2634
 -20679257.42044 -16113673.53944  21119142.9124   21119142.7794
 -16042589.85344 -12500707.69244  21001429.9324   21001429.7364
 -17276780.91844 -13462419.95744  21472635.9044   21472635.2624
 -12254185.02444  -9548701.96544  22437625.0074   22437626.5134
  -7713448.36044  -6010473.15444  22847016.4884   22847018.8844
 -14128529.893 4 -11009231.322 4  21565627.565    21565626.191
  -5022228.99044  -3913421.03844  24372180.0534   24372179.7624
 96  2 24  0 42  0.0000000  0  8G26G 7G 4G 9G 2G24G12G 5
    283689.31544    221056.25844  24374769.1084   24374767.3394
 -20626448.23944 -16072523.53244  21129192.0134   21129192.1974
 -16091714.37544 -12538986.51144  20992081.4344   20992081.0224
 -17325170.16344 -13500125.85544  21463427.4734   21463427.0924
 -12198894.42244  -9505618.39444  22448146.2884   22448146.8064
  -7813971.58944  -6088802.91844  22827887.4764   22827889.3564
 -14072989.711 4 -10965953.282 4  21576196.457    21576195.151
  -5104452.12044  -3977490.91844  24356533.2544   24356535.3154
 96  2 24  0 42 30.0000000  0  8G26G 7G 4G 9G 2G24G12G 5
    354808.54844    276473.80744  24388303.2864   24388300.2484
 -20573460.62244 -16031234.48044  21139275.4294   21139275.8264
 -16140335.50344 -12576873.07844  20982829.2354   20982828.7844
 -17373081.24844 -13537459.15544  21454309.9034   21454309.6214
 -12143364.46544  -9462348.32244  22458713.2594   22458713.6224
  -7914299.11644  -6166980.16544  22808796.0384   22808798.5564
 -14017054.608 4 -10922367.514 4  21586840.745    21586839.190
  -5186650.24344  -4041541.36744  24340891.1154   24340891.5234
 96  2 24  0 43  0.0000000  0  8G26G 7G 4G 9G 2G24G12G 5
    425979.70744    331931.82944  24401846.5594   24401846.3454
 -20520324.44744 -15989829.67544  21149386.7044   21149386.8904
 -16188478.37144 -12614386.97844  20973668.0214   20973667.9834
 -17420541.20944 -13574440.93644  21445278.3194   21445278.6324
 -12087644.45944  -9418930.17044  22469316.3444   22469316.7764
  -8014441.12944  -6245012.86444  22789739.4884   22789741.8134
 -13960755.676 4 -10878498.234 4  21597554.074    21597552.540
  -5268853.27444  -4105595.66544  24325249.2134   24325249.7624
 96  2 24  0 43 30.0000000  0  8G26G 7G 4G 9G 2G24G12G 5
    497212.26744    387437.68444  24415400.4324   24415400.7694
 -20467031.24544 -15948302.51244  21159527.8834   21159528.2144
 -16236114.34544 -12651505.89344  20964603.0494   20964602.8864
 -17467530.63944 -13611056.07244  21436337.0144   21436336.9744
 -12031715.67744  -9375349.33644  22479959.2274   22479960.3214
  -8114372.09744  -6322881.11844  22770722.9514   22770725.2064
 -13904080.617 4 -10834335.859 4  21608339.053    21608337.418
  -5351068.53644  -4169659.47544  24309603.7404   24309604.3604
 96  2 24  0 44  0.0000000  0  8G26G 7G 4G 9G 2G24G12G 5
    568509.83444    442994.22844  24428964.8944   24428969.9894
 -20413568.81344 -15906643.48444  21169701.6984   21169702.1224
 -16283212.07444 -12688205.39744  20955640.7694   20955640.5164
 -17514036.50944 -13647294.40744  21427487.5474   21427486.9894
 -11975534.39844  -9331571.75244  22490650.1074   22490651.3264
  -8214069.44144  -6400567.32144  22751750.9144   22751753.2294
 -13847016.430 4 -10789870.289 4  21619198.015    21619196.560
  -5433316.04644  -4233748.33944  24293952.2774   24293954.3244
 96  2 24  0 44 30.0000000  0  8G26G 7G 4G 9G 2G24G12G 5
    639876.34444    498604.36044  24442542.2304   24442551.6624
 -20359938.54744 -15864853.67044  21179907.0864   21179907.4754
 -16329762.80644 -12724478.67144  20946782.5494   20946782.2584
 -17560041.12944 -13683142.15644  21418732.9254   21418732.5514
 -11919100.33344  -9287597.19244  22501389.5184   22501390.0424
  -8313535.71544  -6478073.46744  22732823.2224   22732825.0214
 -13789563.176 4 -10745101.550 4  21630130.759    21630129.401
  -5515623.57444  -4297883.98444  24278289.3994   24278293.0564
 96  2 24  0 45  0.0000000  0  8G26G 7G 4G 9G 2G24G12G 5
    711308.23744    554265.47844  24456137.2514   24456139.2074
 -20306136.49844 -15822930.00044  21190145.6004   21190145.5944
 -16375759.87944 -12760320.52344  20938029.8994   20938029.4044
 -17605530.68744 -13718588.56244  21410076.5614   21410076.1654
 -11862434.11644  -9243441.73544  22512172.8874   22512173.5584
  -8412795.49144  -6555418.71444  22713935.0254   22713936.6974
 -13731723.073 4 -10700031.368 4  21641137.527    21641136.177
  -5597993.70644  -4362068.47544  24262615.5644   24262615.9214
 96  2 24  0 45 30.0000000  0  8G26G 7G 4G 9G 2G24G12G 5
    782801.52444    609974.48944  24469745.1604   24469745.7194
 -20252160.23344 -15780870.57844  21200416.9584   21200416.9724
 -16421192.31444 -12795722.39544  20929383.8154   20929383.3664
 -17650496.94144 -13753627.19644  21401519.7804   21401519.7094
 -11805512.19944  -9199087.03344  22523004.5994   22523005.8444
  -8511859.99244  -6632611.79144  22695083.5404   22695086.3114
 -13673485.873 4 -10654651.738 4  21652219.825    21652218.300
  -5680418.93344  -4426295.90644  24246929.4264   24246930.4454
 96  2 24  0 46  0.0000000  0  8G26G 7G 4G 9G 2G24G12G 5
    854374.68644    665745.75544  24483366.6514   24483367.2144
 -20197988.15944 -15738658.57244  21210725.2234   21210725.3324
 -16466053.36944 -12830679.03744  20920847.2274   20920846.9274
 -17694939.48344 -13788257.74944  21393062.7384   21393062.3744
 -11748336.93444  -9154534.89144  22533885.2484   22533885.1474
  -8610713.99444  -6709640.84044  22676272.1474   22676274.1934
 -13614841.821 4 -10608955.098 4  21663379.356    21663377.843
  -5762883.23044  -4490553.74444  24231236.4074   24231239.5614
 96  2 24  0 46 30.0000000  0  8G26G 7G 4G 9G 2G24G12G 5
    926049.76344    721596.43144  24497007.1924   24497006.4924
 -20143610.04644 -15696286.01744  21221072.9284   21221073.3354
 -16510339.04444 -12865187.33344  20912419.7904   20912419.6904
 -17738855.96544 -13822478.38244  21384705.4654   21384705.1614
 -11690898.45244  -9109777.65844  22544814.8404   22544815.6024
  -8709332.83644  -6786486.64844  22657505.2074   22657507.1814
 -13555778.701 4 -10562931.897 4  21674618.735    21674617.321
  -5845349.14544  -4554812.86244  24215544.5194   24215545.6594
 96  2 24  0 47  0.0000000  0  8G26G 7G 4G 9G 2G24G12G 5
    997813.72244    777516.35644  24510662.3644   24510659.1594
 -20089024.58944 -15653751.89044  21231460.1554   21231460.1254
 -16554052.42744 -12899249.68744  20904101.3034   20904100.8854
 -17782281.85144 -13856316.72844  21376441.9804   21376441.5504
 -11633188.34644  -9064808.77144  22555797.4984   22555798.2764
  -8807712.86044  -6863146.36144  22638784.4094   22638786.1734
 -13496303.528 4 -10516587.625 4  21685936.606    21685935.003
  -5927805.68644  -4619064.65444  24199853.9214   24199855.3684
 96  2 24  0 47 30.0000000  0  8G26G 7G 4G 9G 2G24G12G 5
   1069677.88444    833514.39444  24524336.9964   24524336.1344
 -20034221.86644 -15611048.46944  21241888.9514   21241889.1004
 -16597197.80944 -12932869.43744  20895891.3194   20895891.1964
 -17825222.71544 -13889777.13844  21368270.5914   21368270.0234
 -11575186.03444  -9019612.19344  22566834.5754   22566834.9904
  -8905804.33044  -6939581.23744  22620118.0404   22620119.4274
 -13436408.322 4 -10469916.057 4  21697334.256    21697332.788
  -6010243.50244  -4683301.89344  24184166.2114   24184167.0034
 96  2 24  0 48  0.0000000  0  8G26G 7G 4G 9G 2G24G12G 5
   1141640.70844    889589.28644  24538030.5564   24538029.0314
 -19979212.94444 -15568184.37844  21252357.0594   21252356.7874
 -16639790.82144 -12966058.76744  20887785.7504   20887785.4444
 -17867684.50044 -13922864.24444  21360190.4124   21360190.0894
 -11516900.78344  -8974195.13844  22577925.8534   22577927.2514
  -9003597.61044  -7015783.75144  22601508.8574   22601510.6984
 -13376106.335 4 -10422927.517 4  21708809.371    21708807.944
  -6092662.71444  -4747524.61644  24168481.6254   24168483.9134
 96  2 24  0 48 30.0000000  0  8G26G 7G 4G 9G 2G24G12G 5
   1213647.45744    945698.49544  24551731.0474
 -19924030.55444 -15525185.11744  21262857.7034   21262857.7214
 -16681862.55144 -12998841.90544  20879779.7374   20879779.3284
 -17909682.72044 -13955590.12044  21352198.1064   21352198.2234
 -11458349.52844  -8928570.81744  22589068.1834   22589068.9524
  -9101130.44644  -7091783.33144  22582949.1794   22582950.8794
 -13315430.179 4 -10375647.416 4  21720355.731    21720354.146
  -6175087.59444  -4811751.72944  24152796.3434   24152797.4774
 96  2 24  0 49  0.0000000  0  8G26G 7G 4G 9G 2G24G12G 5
   1285639.46644   1001796.06644  24565428.8184   24565434.2164
 -19868697.58744 -15482068.52944  21273387.0794   21273387.3694
 -16723447.08444 -13031245.42444  20871866.4824   20871866.3804
 -17951236.39044 -13987969.56944  21344290.9384   21344290.5014
 -11399577.44544  -8882774.42744  22600251.4254   22600252.8404
  -9198443.74444  -7167611.84544  22564430.8214   22564432.3474
 -13254416.492 4 -10328104.313 4  21731966.233    21731964.627
  -6257566.31044  -4876020.84044  24137101.4114   24137105.6554
 96  2 24  0 49 30.0000000  0  8G26G 7G 4G 9G 2G24G12G 5
   1357630.17144   1057892.63744  24579127.9714   24579134.8124
 -19813214.02644 -15438834.58644  21283945.4034   21283945.9474
 -16764531.39044 -13063259.06744  20864048.2454   20864047.7634
 -17992308.06344 -14019973.58044  21336475.3474   21336474.9394
 -11340577.69444  -8836800.61544  22611478.6974   22611479.8704
  -9295524.84344  -7243259.41444  22545956.6904   22545958.5814
 -13193049.014 4 -10280285.536 4  21743644.058    21743642.313
  -6340096.45344  -4940329.98044  24121396.5444   24121396.5314
 96  2 24  0 50  0.0000000  0  8G26G 7G 4G 9G 2G24G12G 5
   1429617.25644   1113986.39344  24592828.9864   24592832.9184
 -19757587.08444 -15395488.91944  21294530.9174   21294531.3194
 -16805099.48544 -13094870.58344  20856328.6474   20856328.1494
 -18032887.74944 -14051594.08244  21328753.0904   21328752.8454
 -11281353.01444  -8790651.53544  22622748.1804   22622750.1474
  -9392400.94944  -7318747.25444  22527521.7154   22527522.9494
 -13131326.272 4 -10232189.912 4  21755389.537    21755387.900
  -6422675.69844  -5004677.37644  24105682.9554   24105683.7434
 96  2 24  0 50 30.0000000  0  8G26G 7G 4G 9G 2G24G12G 5
   1501598.71044   1170075.79244  24606529.4614   24606531.0064
 -19701821.98044 -15352035.59544  21305142.4284   21305142.8304
 -16845139.60044 -13126070.65044  20848709.2724   20848708.7894
 -18072978.25244 -14082833.41744  21321124.7784   21321124.2534
 -11221917.31144  -8744338.01944  22634059.2124   22634060.4424
  -9489065.83344  -7394070.50344  22509127.0394   22509128.2354
 -13069245.522 4 -10183815.324 4  21767203.265    21767201.577
  -6505310.16644  -5069067.79544  24089958.4574   24089959.3114
 96  2 24  0 51  0.0000000  0  8G26G 7G 4G 9G 2G24G12G 5
   1573611.17044   1226189.36244  24620234.0714   24620234.6694
 -19645922.74744 -15308477.75744  21315780.0174   21315780.3624
 -16884621.69244 -13156835.89644  20841195.9024   20841195.4424
 -18112564.81444 -14113680.08244  21313591.3114   21313590.8154
 -11162264.45644  -8697855.29744  22645410.6174   22645411.2034
  -9585486.80444  -7469203.70044  22490779.0774   22490781.1474
 -13006788.569 4 -10135147.597 4  21779088.343    21779086.774
  -6587987.42444  -5133491.61144  24074226.3204   24074224.4704
 96  2 24  0 51 30.0000000  0  8G26G 7G 4G 9G 2G24G12G 5
   1645696.99244   1282360.10344  24633951.3994   24633954.1214
 -19589893.08444 -15264818.27944  21326442.4444   21326442.1374
 -16923513.62744 -13187141.28144  20833795.3194   20833794.6194
 -18151627.38444 -14144118.43544  21306158.0844   21306157.6464
 -11102377.95144  -8651190.50844  22656806.8014   22656807.9204
  -9681646.27744  -7544133.10744  22472480.0494   22472482.1884
 -12943935.179 4 -10086170.949 4  21791048.908    21791047.570
  -6670668.40244  -5197918.31144  24058492.2854   24058491.3734
 96  2 24  0 52  0.0000000  0  8G26G 7G 4G 9G 2G24G12G 5
   1717855.78344   1338587.69844  24647682.2574   24647684.0034
 -19533729.35144 -15221054.33044  21337129.7034   21337129.5914
 -16961803.43544 -13216977.47144  20826508.9784   20826508.3564
 -18190164.51444 -14174147.36544  21298824.0904   21298823.7124
 -11042247.87744  -8604335.93844  22668249.1794   22668251.3024
  -9777542.82444  -7618857.65444  22454231.5584   22454233.5154
 -12880687.169 4 -10036886.816 4  21803084.737    21803083.378
  -6753346.03744  -5262342.37444  24042758.9724   24042758.8154
 96  2 24  0 52 30.0000000  0  8G26G 7G 4G 9G 2G24G12G 5
   1790084.93744   1394870.14944  24661423.1064   24661425.0094
 -19477421.86344 -15177178.37344  21347844.0024   21347844.4264
 -16999493.82144 -13246346.58144  20819336.8414   20819336.1044
 -18228163.16344 -14203756.69644  21291592.9734   21291593.0254
 -10981860.56244  -8557280.90744  22679740.2474   22679742.3414
  -9873158.11244  -7693363.04744  22436037.0104   22436038.7094
 -12817042.723 4  -9987293.761 4  21815195.871    21815194.264
  -6836026.46044  -5326768.61944  24027025.1134   24027024.5994
 96  2 24  0 53  0.0000000  0  8G26G 7G 4G 9G 2G24G12G 5
   1862381.00744   1451204.70144  24675179.2734
 -19420969.45944 -15133189.49344  21358587.1234   21358587.0214
 -17036598.86144 -13275259.57944  20812275.5964   20812275.1064
 -18265625.82844 -14232948.37744  21284464.4444   21284464.5484
 -10921201.40944  -8510014.08944  22691283.7024   22691285.3174
  -9968514.99044  -7767667.07244  22417891.0554   22417892.5564
 -12753007.615 4  -9937396.302 4  21827381.313    21827379.575
  -6918712.19544  -5391199.00944  24011290.4944   24011288.5844
 96  2 24  0 53 30.0000000  0  8G26G 7G 4G 9G 2G24G12G 5
   1934709.31344   1507564.36144  24688944.1334
 -19364363.06844 -15089080.61344  21369358.6154   21369358.9264
 -17073145.14744 -13303737.17944  20805320.9984   20805320.8384
 -18302564.76244 -14261731.95544  21277435.3654   21277434.9574
 -10860278.48944  -8462541.70144  22702876.5714   22702878.6374
 -10063633.76744  -7841785.55444  22399790.6214   22399791.8844
 -12688593.214 4  -9887203.289 4  21839639.110    21839637.250
  -7001413.82244  -5455641.82044  23995553.2204   23995551.9474
 96  2 24  0 54  0.0000000  0  8G26G 7G 4G 9G 2G24G12G 5
   2007054.38144   1563937.11744  24702712.3054   24702712.9134
 -19307568.47844 -15044825.09544  21380166.2224   21380166.8364
 -17109130.23344 -13331777.48544  20798473.2834   20798472.8804
 -18338967.63644 -14290097.82544  21270508.2574   21270507.9374
 -10799072.20144  -8414848.52044  22714523.7534   22714525.0294
 -10158485.24644  -7915695.76844  22381740.7694   22381741.6364
 -12623785.844 4  -9836704.067 4  21851971.554    21851969.785
  -7084128.40544  -5520094.65844  23979811.4874   23979813.3574
 96  2 24  0 54 30.0000000  0  8G26G 7G 4G 9G 2G24G12G 5
   2079386.01544   1620299.39444  24716478.4624   24716479.0384
 -19250602.86944 -15000436.31544  21391006.7444   21391006.7994
 -17144576.52944 -13359397.95744  20791728.2134   20791727.9274
 -18374848.80944 -14318057.17544  21263680.2434   21263679.5554
 -10737617.79244  -8366962.01744  22726218.7534   22726218.6554
 -10253081.46944  -7989407.06844  22363739.9334   22363741.2484
 -12558601.298 4  -9785910.932 4  21864375.714    21864373.963
  -7166865.24844  -5584564.85144  23964067.6104   23964068.4934
 96  2 24  0 55  0.0000000  0  8G26G 7G 4G 9G 2G24G12G 5
   2151688.15944   1676638.69044  24730237.9984   24730239.8134
 -19193470.82344 -14955917.84144  21401878.6194   21401878.6614
 -17179490.74344 -13386603.81944  20785084.0734   20785083.5124
 -18410212.06744 -14345612.96544  21256950.7144   21256950.4114
 -10675925.78844  -8318890.33644  22737958.4684   22737958.3184
 -10347428.53244  -8062924.23344  22345786.2994   22345787.4834
 -12493043.796 4  -9734827.198 4  21876850.985    21876849.413
  -7249615.92044  -5649045.82644  23948320.4974   23948321.0714
 96  2 24  0 55 30.0000000  0  8G26G 7G 4G 9G 2G24G12G 5
   2223966.42844   1732959.36544  24743992.4834   24743995.4064
 -19136157.91944 -14911258.43544  21412785.0724   21412785.2684
 -17213845.83144 -13413374.00144  20778546.9184   20778546.4634
 -18445035.27844 -14372747.92844  21250324.0554   21250323.8204
 -10613982.67944  -8270623.00344  22749745.5614   22749745.7044
 -10441491.59844  -8136220.08544  22327885.8494   22327888.1014
 -12427097.792 4  -9683440.730 4  21889400.039    21889398.498
  -7332372.98844  -5713531.78444  23932571.6664   23932572.8974
 96  2 24  0 56  0.0000000  0  8G26G 7G 4G 9G 2G24G12G 5
   2296234.25544   1789271.94344  24757744.4534   24757745.7174
 -19078675.66944 -14866467.07444  21423723.9084   21423723.6524
 -17247619.74444 -13439691.30844  20772119.4854   20772118.8264
 -18479309.27344 -14399454.93744  21243801.6664   21243801.3644
 -10551774.20544  -8222148.89144  22761583.2614   22761584.7714
 -10535258.07744  -8209284.83844  22310043.2094   22310044.6984
 -12360758.066 4  -9631747.481 4  21902024.130    21902022.382
  -7415136.61144  -5778022.87144  23916822.3594   23916825.1534
 96  2 24  0 56 30.0000000  0  8G26G 7G 4G 9G 2G24G12G 5
   2368501.26544   1845583.84344  24771494.0924   24771494.6514
 -19021040.35544 -14821556.43644  21434691.4214   21434691.2524
 -17280809.91744 -13465553.75744  20765803.9724   20765803.4744
 -18513043.51644 -14425741.35744  21237382.5724   21237382.2224
 -10489297.30044  -8173465.63444  22773471.7374   22773473.7754
 -10628735.27944  -8282124.16644  22292254.8544   22292256.9404
 -12294028.319 4  -9579750.310 4  21914722.287    21914720.679
  -7497916.19044  -5842526.40544  23901070.3544   23901071.5854
 96  2 24  0 57  0.0000000  0  8G26G 7G 4G 9G 2G24G12G 5
   2440771.29044                  24785241.8084
 -18963246.38144 -14776522.17744  21445688.9264   21445688.9184
 -17313415.55744 -13490960.72844  20759599.0734   20759598.6654
 -18546249.52344 -14451616.16744  21231063.3944   21231063.0504
 -10426530.95644  -8124556.82444  22785417.0454   22785418.6464
 -10721908.91944  -8354726.96744  22274524.8124   22274526.3564
 -12226905.665 4  -9527446.975 4  21927495.319    21927493.851
  -7580710.89444  -5907041.73444  23885315.9114   23885316.9754
 96  2 24  0 57 30.0000000  0  8G26G 7G 4G 9G 2G24G12G 5
   2513045.43944                  24798997.3274
 -18905308.85044 -14731376.05944  21456714.1704   21456714.1154
 -17345424.89744 -13515903.05144  20753507.8464   20753507.3604
 -18578945.54944 -14477093.58644  21224842.1274   21224841.7054
 -10363492.20844  -8075435.76944  22797412.5024   22797413.5014
 -10814767.88644  -8427084.56944  22256853.8734   22256855.6604
 -12159393.053 4  -9474839.770 4  21940342.742    21940341.103
  -7663525.41444  -5971572.46544  23869555.9274   23869556.9924
 96  2 24  0 58  0.0000000  0  8G26G 7G 4G 9G 2G24G12G 5
   2585319.75744   2014533.20644  24812753.5224
 -18847224.21544 -14686115.31244  21467767.1414   21467767.5784
 -17376830.69244 -13540375.07844  20747531.4414   20747530.9404
 -18611127.51844 -14502170.44744  21218717.7854   21218717.6144
 -10300189.78144  -8026109.22944  22809458.6594   22809460.2784
 -10907302.45744  -8499189.39544  22239245.3754   22239246.4704
 -12091489.110 4  -9421927.639 4  21953264.413    21953262.757
  -7746338.39344  -6036102.00244  23853797.3084   23853797.2224
 96  2 24  0 58 30.0000000  0  8G26G 7G 4G 9G 2G24G12G 5
   2657595.66744   2070852.04344  24826509.8944   24826507.6634
 -18788991.53344 -14640739.19444  21478848.5904   21478848.9864
 -17407646.79344 -13564387.60344  20741667.4084   20741666.8874
 -18642801.79444 -14526851.70544  21212690.3404   21212690.0384
 -10236632.76444  -7976584.31144  22821553.2114   22821554.0954
 -10999503.80544  -8571034.57044  22221700.0454   22221701.4444
 -12023199.703 4  -9368715.146 4  21966259.504    21966257.964
  -7829139.58344  -6100622.34844  23838041.5194   23838042.2174
 96  2 24  0 59  0.0000000  0  8G26G 7G 4G 9G 2G24G12G 5
   2729871.28044   2127170.71544  24840263.3514   24840262.7194
 -18730619.99044 -14595254.86944  21489956.3594   21489955.9094
 -17437883.22044 -13587948.43944  20735913.7754   20735913.1214
 -18673967.81944 -14551136.91944  21206759.1794   21206759.1104
 -10172844.47944  -7926879.17744  22833691.4634   22833692.9854
 -11091381.72344  -8642627.71244  22204216.1204   22204217.5264
 -11954540.521 4  -9315214.507 4  21979324.861    21979323.387
  -7911931.67244  -6165135.60844  23822285.8584   23822285.9984
 96  2 24  0 59 30.0000000  0  8G26G 7G 4G 9G 2G24G12G 5
   2802149.31544   2183491.23744  24854017.0684   24854018.2024
 -18672116.82844 -14549667.99544  21501089.3074   21501089.5554
 -17467543.93144 -13611060.66244  20730269.2024   20730268.6484
 -18704611.70244 -14575015.27144  21200928.4944   21200928.1244
 -10108843.94844  -7877008.65344  22845870.1574   22845871.6694
 -11182954.23244  -8713982.87544  22186790.1034   22186791.4634
 -11885523.771 4  -9261435.232 4  21992458.380    21992456.928
  -7994723.04244  -6229648.31944  23806531.4254   23806531.0924
 96  2 24  1  0  0.0000000  0  8G26G 7G 4G 9G 2G24G12G 5
   2874443.76844   2239824.59144  24867772.7674   24867774.4034
 -18613479.26244 -14503976.39044  21512247.5614   21512247.5924
 -17496644.55844 -13633736.45444  20724731.7154   20724731.1984
 -18734719.94244 -14598476.23544  21195198.9724   21195198.6624
 -10044603.50644  -7826951.19744  22858094.5274   22858095.8644
 -11274230.88944  -8785107.50344  22169420.7234   22169422.3834
 -11816148.542 4  -9207376.628 4  22005660.118    22005658.473
  -8077516.43044  -6294162.57644  23790775.7474   23790776.3354
 96  2 24  1  0 30.0000000  0  8G26G 7G 4G 9G 2G24G12G 5
   2946774.98744   2296186.45744  24881532.9014   24881542.8294
 -18554708.99944 -14458181.38444  21523430.8454   21523431.1604
 -17525193.63544 -13655982.46844  20719298.9654   20719298.5134
 -18764283.25344 -14621512.58244  21189573.3264   21189572.9854
  -9980107.67344  -7776694.73144  22870368.2284   22870369.9764
 -11365214.90044  -8856004.09644  22152107.3224   22152108.4414
 -11746409.021 4  -9153034.168 4  22018931.086    22018929.559
  -8160313.28244  -6358679.52244  23775019.6374   23775020.1544
 96  2 24  1  1  0.0000000  0  8G26G 7G 4G 9G 2G24G12G 5
   3019112.73644                  24895297.8664
 -18495798.64744 -14412277.21044  21534641.0894   21534641.1714
 -17553179.01344 -13677789.24144  20713973.3264   20713972.7784
 -18793298.34444 -14644121.74744  21184051.7684   21184051.4474
  -9915361.90744  -7726243.51644  22882688.1834   22882689.3764
 -11455923.50744  -8926686.09744  22134845.8264   22134847.0384
 -11676307.462 4  -9098409.598 4  22032271.055    22032269.331
  -8243116.77544  -6423201.67944  23759261.1404   23759262.6134
 96  2 24  1  1 30.0000000  0  8G26G 7G 4G 9G 2G24G12G 5
   3091419.24144   2408896.13044  24909062.0284
 -18436763.09944 -14366275.48944  21545875.3324   21545875.3644
 -17580606.73744 -13699161.47844  20708754.1614   20708753.6034
 -18821787.00744 -14666320.70144  21178630.4604   21178629.9834
  -9850370.26644  -7675600.71144  22895056.0374   22895056.2184
 -11546359.33344  -8997155.52844  22117636.4054   22117638.1444
 -11605856.019 4  -9043512.408 4  22045677.590    22045675.541
  -8325945.19944  -6487743.23244  23743500.3054   23743500.6214
 96  2 24  1  2  0.0000000  0  8G26G 7G 4G 9G 2G24G12G 5
   3163677.12744   2465200.99444  24922813.3104   24922806.3584
 -18377604.46544 -14320177.84944  21557133.0954   21557132.7824
 -17607477.12644 -13720099.42744  20703640.8124   20703640.1584
 -18849764.13444 -14688121.06644  21173306.5564   21173306.3654
  -9785126.30944  -7624761.29844  22907472.1314   22907473.3424
 -11636509.72144  -9067402.55544  22100481.5704   22100482.5574
 -11535054.181 4  -8988342.194 4  22059150.738    22059148.791
  -8408797.23944  -6552303.23844  23727734.6874   23727735.2404
 96  2 24  1  2 30.0000000  0  8G26G 7G 4G 9G 2G24G12G 5
   3235874.85544   2521458.97944  24936552.5824   24936549.3764
 -18318295.79944 -14273963.31244  21568418.7134   21568419.0544
 -17633758.20144 -13740578.17144  20698639.4794   20698639.0894
 -18877216.72544 -14709512.69244  21168082.8174   21168082.3964
  -9719631.02844  -7573726.04344  22919934.6374   22919935.8234
 -11726352.05344  -9137409.52944  22083384.6444   22083386.8544
 -11463889.004 4  -8932888.847 4  22072693.000    22072691.257
  -8491644.06744  -6616859.16144  23711969.3224   23711969.8674
 96  2 24  1  3  0.0000000  0  8G26G 7G 4G 9G 2G24G12G 5
   3307973.78644   2577640.01944  24950271.5784   24950264.9864
 -18258859.05744 -14227648.97444  21579728.8664   21579729.2924
 -17659467.20144 -13760611.13944  20693747.5394   20693746.9624
 -18904179.67644 -14730522.78744  21162951.8474   21162951.2514
  -9653897.92144  -7522505.48144  22932443.7984   22932444.9034
 -11815892.68344  -9207181.42244  22066345.9604   22066347.3444
 -11392382.900 4  -8877169.838 4  22086300.216    22086298.502
  -8574504.23344  -6681425.46144  23696202.0614   23696203.4924
 96  2 24  1  3 30.0000000  0  8G26G 7G 4G 9G 2G24G12G 5
   3379998.25644   2633762.93644  24963975.0164   24963976.3944
 -18199314.05844 -14181250.27444  21591060.6774   21591060.3524
 -17684619.42044 -13780210.25044  20688961.0844   20688960.4834
 -18930649.89544 -14751148.92944  21157914.9544   21157914.5474
  -9587917.06044  -7471091.85244  22944999.8264   22945000.3954
 -11905119.18244  -9276708.53444  22049366.8784   22049368.6574
 -11320535.227 4  -8821184.675 4  22099972.393    22099970.817
  -8657388.75244  -6746010.72044  23680429.7724   23680430.1514
 96  2 24  1  4  0.0000000  0  8G26G 7G 4G 9G 2G24G12G 5
   3451985.25244                  24977671.3064
 -18139646.11944 -14134755.76344  21602414.9884   21602414.5414
 -17709189.00744 -13799355.35244  20684285.4604   20684284.9674
 -18956578.89944 -14771353.34444  21152980.3604   21152980.1004
  -9521665.10744  -7419466.98644  22957607.7194   22957608.5034
 -11994014.61644  -9345977.66644  22032450.1264   22032452.0234
 -11248318.459 4  -8764911.903 4  22113714.895    22113713.309
  -8740261.05344  -6810586.50544  23664659.7994   23664660.1984
 96  2 24  1  4 30.0000000  0  8G26G 7G 4G 9G 2G24G12G 5
   3523952.16544                  24991366.2294
 -18079854.39544 -14088164.81044  21613792.4844   21613793.2074
 -17733157.58844 -13818032.13944  20679724.5164   20679723.8744
 -18981937.26744 -14791113.11644  21148154.8234   21148154.6334
  -9455132.46944  -7367623.39744  22970267.6904   22970269.7064
 -12082567.02444  -9414979.51044  22015599.1774   22015601.1684
 -11175720.229 4  -8708341.884 4  22127529.880    22127528.323
  -8823111.77144  -6875145.46644  23648892.8804   23648892.5124
 96  2 24  1  5  0.0000000  0  8G26G 7G 4G 9G 2G24G12G 5
   3595893.99344   2801990.10344  25005059.6044   25005063.8014
 -18019967.31444 -14041499.55444  21625188.8664   21625188.7204
 -17756541.44044 -13836253.28944  20675274.5174   20675273.9624
 -19006730.99744 -14810432.90644  21143436.9314   21143436.4744
  -9388338.28444  -7315576.01344  22982978.0564   22982978.8634
 -12170790.18144  -9483724.79244  21998810.8034   21998812.6884
 -11102761.460 4  -8651490.920 4  22141413.468    22141411.830
  -8905970.85244  -6939710.94044  23633125.2894   23633126.3324
 96  2 24  1  5 30.0000000  0  8G26G 7G 4G 9G 2G24G12G 5
   3667798.01844   2858019.23344  25018744.1324   25018744.6364
 -17960007.49444 -13994777.61744  21636598.8664   21636598.5924
 -17779353.04844 -13854028.53644  20670933.7484   20670933.2274
 -19030956.35244 -14829309.81144  21138826.9634   21138826.2114
  -9321320.45244  -7263354.36944  22995731.6624   22995733.2824
 -12258711.62944  -9552234.97444  21982079.9254   21982081.4884
 -11029465.667 4  -8594377.340 4  22155361.341    22155359.467
  -8988861.91844  -7004301.34544  23617351.1594   23617352.3244
 96  2 24  1  6  0.0000000  0  8G26G 7G 4G 9G 2G24G12G 5
   3739672.20944   2914025.09244  25032421.2434   25032420.8674
 -17899937.07944 -13947969.51144  21648030.2464   21648030.0824
 -17801555.29544 -13871328.97344  20666708.7834   20666708.2444
 -19054589.34944 -14847725.12844  21134329.3374   21134328.8264
  -9254068.35444  -7210950.16444  23008528.7164   23008529.5924
 -12346301.10244  -9620486.48344  21965412.1304   21965413.8334
 -10955810.750 4  -8536983.930 4  22169377.350    22169375.563
  -9071741.86044  -7068883.06844  23601580.6624   23601582.0164
 96  2 24  1  6 30.0000000  0  8G26G 7G 4G 9G 2G24G12G 5
   3811503.37244   2969997.39644  25046089.2564
 -17839754.21044 -13901073.77444  21659482.4784   21659482.1534
 -17823158.55944 -13888162.67644  20662597.8374   20662597.2894
 -19077657.74344 -14865700.50044  21129939.7714   21129939.5374
  -9186589.98644  -7158369.65744  23021369.4404   23021370.0464
 -12433564.90344  -9688484.21244  21948806.0814   21948807.4074
 -10881805.869 4  -8479317.819 4  22183459.969    22183458.185
  -9154622.27044  -7133465.16744  23585808.7514   23585808.2314
 96  2 24  1  7  0.0000000  0  8G26G 7G 4G 9G 2G24G12G 5
   3883310.45244                  25059749.9494
 -17779438.16244 -13854074.25044  21670959.7404   21670960.1504
 -17844148.78744 -13904518.68244  20658603.4364   20658602.8664
 -19100159.73244 -14883234.50944  21125658.2734   21125657.7504
  -9118873.55444  -7105603.63044  23034255.4994   23034257.6254
 -12520493.79844  -9756220.97744  21932264.7904   21932265.7864
 -10807434.549 4  -8421366.170 4  22197612.366    22197610.630
  -9237477.45444  -7198027.60044  23570041.0794   23570039.4894
 96  2 24  1  7 30.0000000  0  8G26G 7G 4G 9G 2G24G12G 5
   3955066.94844   3081865.03944  25073406.3464   25073411.0064
 -17719012.43544 -13806989.27044  21682458.5614   21682458.7804
 -17864554.24044 -13920419.01344  20654720.1144   20654719.4774
 -19122134.23944 -14900357.50244  21121476.1094   21121475.8114
  -9050941.75344  -7052669.78644  23047182.3914   23047183.5244
 -12607109.39244  -9823713.62544  21915782.1524   21915782.7734
 -10732714.437 4  -8363142.741 4  22211831.232    22211829.470
  -9320320.91144  -7262580.91444  23554277.3494   23554276.9824
 96  2 24  1  8  0.0000000  0  8G26G 7G 4G 9G 2G24G12G 5
   4026784.40544   3137748.66944  25087055.6214   25087057.9134
 -17658447.91144 -13759796.14144  21693983.7804   21693983.4644
 -17884356.29644 -13935849.16444  20650952.2504   20650951.3384
 -19143577.11744 -14917066.23744  21117396.1394   21117395.7624
  -8982763.87744  -6999544.20644  23060155.6484   23060157.4994
 -12693381.14844  -9890938.33444  21899365.1264   21899366.5754
 -10657619.778 4  -8304627.458 4  22226121.240    22226119.601
  -9403116.03944  -7327096.57544  23538522.1474   23538522.5684
 96  2 24  1  8 30.0000000  0  8G26G 7G 4G 9G 2G24G12G 5
   4098477.85744   3193613.65144  25100698.8034   25100697.6654
 -17597729.49844 -13712483.09644  21705538.0264   21705538.1284
 -17903544.02544 -13950800.61744  20647300.8274   20647300.2724
 -19164466.56244 -14933343.72844  21113420.4384   21113420.1464
  -8914305.83744  -6946200.33344  23073183.8764   23073185.4204
 -12779287.01144  -9957877.93844  21883017.7354   21883018.8054
 -10582130.487 4  -8245804.673 4  22240486.318    22240484.810
  -9485852.81144  -7391566.74044  23522778.6084   23522778.2254
 96  2 24  1  9  0.0000000  0  8G26G 7G 4G 9G 2G24G12G 5
   4170112.70744   3249432.99244  25114332.2474   25114331.3944
 -17536874.87144 -13665063.90144  21717118.4564   21717118.1974
 -17922135.80744 -13965287.70144  20643762.9994   20643762.1034
 -19184810.58144 -14949196.21544  21109549.3474   21109548.7234
  -8845587.41944  -6892653.55244  23086260.8974   23086262.3974
 -12864835.52744 -10024539.08644  21866738.3734   21866740.0684
 -10506270.446 4  -8186692.988 4  22254922.112    22254920.495
  -9568548.61244  -7456004.96744  23507041.9104   23507040.8864
 96  2 24  1  9 30.0000000  0  8G26G 7G 4G 9G 2G24G12G 5
   4241651.55244                  25127943.6834
 -17475888.23044 -13617541.84744  21728723.9554   21728723.4324
 -17940136.22244 -13979313.97344  20640337.2634   20640336.8064
 -19204601.70044 -14964617.86444  21105783.1684   21105782.6714
  -8776608.82344  -6838904.03944  23099387.2854   23099389.4574
 -12950019.53444 -10090916.20144  21850527.9354   21850529.4504
 -10430050.466 4  -8127300.836 4  22269426.457    22269424.574
  -9651225.69444  -7520428.64544  23491309.6134   23491308.8804
 96  2 24  1 10  0.0000000  0  7G 7G 4G 9G 2G24G12G 5
 -17414772.87044 -13569919.48344  21740353.6804   21740353.5734
 -17957544.58344 -13992878.90144  20637024.7514   20637024.1884
 -19223834.94144 -14979604.80744  21102123.4074   21102122.7884
  -8707368.39344  -6784950.48844  23112562.8344   23112564.2364
 -13034849.06244 -10157017.09744  21834385.6954   21834387.2854
 -10353483.665 4  -8067638.432 4  22283996.599    22283994.777
  -9733909.21444  -7584857.35944  23475574.1794   23475573.9474
 96  2 24  1 10 30.0000000  0  7G 7G 4G 9G 2G24G12G 5
 -17353547.76944 -13522211.61444  21752004.0614   21752004.3034
 -17974359.83644 -14005981.67444  20633824.9314   20633824.4474
 -19242511.05044 -14994157.61844  21098569.1884   21098569.0764
  -8637870.31844  -6730796.16844  23125787.7954   23125789.0614
 -13119347.97644 -10222860.37244  21818305.9244   21818307.1614
 -10276585.875 4  -8007718.111 4  22298629.760    22298628.106
  -9816631.17944  -7649316.01744  23459831.9184   23459834.9064
 96  2 24  1 11  0.0000000  0  7G 7G 4G 9G 2G24G12G 5
 -17292200.14344 -13474408.28144  21763677.9324   21763679.0454
 -17990558.45544 -14018603.95844  20630742.3204   20630741.6594
 -19260620.75344 -15008269.07544  21095123.1284   21095122.7514
  -8568102.87444  -6676431.97444  23139064.5784   23139065.1504
 -13203497.04144 -10288431.04344  21802292.9464   21802293.9574
 -10199343.772 4  -7947529.494 4  22313328.385    22313326.877
  -9899374.93844  -7713791.60744  23444085.8404   23444087.8874
 96  2 24  1 11 30.0000000  0  8G26G 7G 4G 9G 2G24G12G 5
        -0.22254         0.01254  25182168.8754   25182170.0464
 -17230725.20344 -13426505.72944  21775376.7454   21775376.8124
 -18006139.94344 -14030745.35944  20627777.2864   20627776.6374
 -19278162.14644 -15021937.70144  21091785.2034   21091784.6564
  -8498054.53044  -6621848.88844  23152393.7994   23152394.9604
 -13287278.88944 -10353715.56944  21786349.7544   21786350.6364
 -10121746.934 4  -7887064.458 4  22328094.568    22328093.158
  -9982137.06244  -7778281.50844  23428336.5154   23428339.0044
 96  2 24  1 12  0.0000000  0  8G26G 7G 4G 9G 2G24G12G 5
     71065.57644     55375.93044  25195691.5294   25195692.3484
 -17169112.07244 -13378495.49444  21787101.6024   21787101.0164
 -18021097.01144 -14042400.19444  20624931.2824   20624930.4454
 -19295118.76944 -15035150.65544  21088558.5224   21088558.2194
  -8427708.72544  -6567034.01644  23165780.1444   23165781.2714
 -13370673.96744 -10418698.71544  21770480.2594   21770481.2144
 -10043776.163 4  -7826308.033 4  22342932.094    22342930.461
 -10064881.55044  -7842757.70844  23412591.6744   23412591.0154
 96  2 24  1 12 30.0000000  0  8G26G 7G 4G 9G 2G24G12G 5
    142140.85344    110759.24844  25209215.3634   25209213.6164
 -17107378.48444 -13330391.40544  21798848.6264   21798848.4594
 -18035439.43444 -14053576.09444  20622201.9694   20622201.0204
 -19311485.95344 -15047904.31344  21085443.9874   21085443.2954
  -8357081.90644  -6512000.18444  23179219.9224   23179222.0414
 -13453675.79544 -10483375.43644  21754685.5504   21754686.9194
  -9965435.089 4  -7765263.075 4  22357839.874    22357838.208
 -10147582.11244  -7907199.59344  23396854.0364   23396854.5554
 96  2 24  1 13  0.0000000  0  8G26G 7G 4G 9G 2G24G12G 5
    213210.26244    166138.42744  25222732.2024   25222732.8634
 -17045543.13144 -13282208.02144  21810615.3384   21810615.8934
 -18049200.10644 -14064298.68544  20619583.4584   20619582.6804
 -19327282.20744 -15060213.08744  21082437.8844   21082437.5344
  -8286203.85144  -6456770.55044  23192708.3664   23192709.8574
 -13536280.73844 -10547742.88744  21738966.0174   21738967.4954
  -9886742.042 4  -7703943.853 4  22372814.741    22372812.969
 -10230240.73744  -7971609.01944  23381124.1324   23381125.1144
 96  2 24  1 13 30.0000000  0  8G26G 7G 4G 9G 2G24G12G 5
    284231.73644    221479.28844  25236250.4774
 -16983634.96344 -13233967.89444  21822396.2294   21822396.5064
 -18062406.97244 -14074589.74144  20617069.8494   20617069.1314
 -19342521.99844 -15072088.25444  21079538.1024   21079537.5964
  -8215105.16644  -6401369.01444  23206236.9024   23206238.5224
 -13618524.73544 -10611829.09344  21723315.4614   21723316.6464
  -9807721.587 4  -7642369.500 4  22387851.912    22387850.063
 -10312868.52844  -8035994.19344  23365401.2104   23365401.7884
 96  2 24  1 14  0.0000000  0  8G26G 7G 4G 9G 2G24G12G 5
    355179.56644    276763.25344  25249755.5794   25249757.4794
 -16921660.96244 -13185676.46744  21834189.4224   21834189.3164
 -18075038.86944 -14084432.76244  20614666.3654   20614665.5564
 -19357194.45244 -15083521.34144  21076745.9414   21076745.5574
  -8143785.04244  -6345794.91444  23219809.5234   23219811.1024
 -13700414.69944 -10675639.42044  21707732.3494   21707733.8454
  -9728370.598 4  -7580537.599 4  22402951.973    22402949.889
 -10395443.51144  -8100338.28044  23349687.9114   23349687.7844
 96  2 24  1 14 30.0000000  0  8G26G 7G 4G 9G 2G24G12G 5
    426021.56844    331964.80544  25263237.5544   25263236.5854
 -16859611.59644 -13137326.31544  21845997.2624   21845996.9304
 -18087090.70944 -14093823.78044  20612372.9154   20612372.3914
 -19371307.81444 -15094518.77244  21074060.0554   21074059.5994
  -8072243.62044  -6290048.41044  23233423.1174   23233423.8014
 -13781949.87944 -10739173.29544  21692216.7044   21692218.3164
  -9648692.006 4  -7518450.419 4  22418114.332    22418112.228
 -10477970.61744  -8164645.06844  23333984.2604   23333983.3264
 96  2 24  1 15  0.0000000  0  8G26G 7G 4G 9G 2G24G12G 5
    496690.72244    387031.75244  25276686.6994   25276686.6824
 -16797495.50744 -13088924.17044  21857817.8474   21857817.7274
 -18098594.29744 -14102787.58844  20610183.5794   20610182.9714
 -19384906.95944 -15105115.51044  21071472.0054   21071471.8444
  -8000507.74644  -6234150.36444  23247073.1804   23247074.9904
 -13863155.03144 -10802449.99844  21676763.5104   21676765.2254
  -9568713.695 4  -7456129.699 4  22433333.637    22433331.715
 -10560492.94744  -8228948.14444  23318279.8684   23318279.3214
 96  2 24  1 15 30.0000000  0  8G26G 7G 4G 9G 2G24G12G 5
    567213.64644    441984.68944  25290104.9974   25290101.5404
 -16735278.29644 -13040443.23044  21869657.1334   21869657.2384
 -18109503.26644 -14111288.06344  20608107.9824   20608107.3194
 -19397965.12444 -15115290.70944  21068987.5464   21068986.9554
  -7928541.83344  -6178073.07444  23260768.5664   23260769.3904
 -13944002.98744 -10865448.37444  21661378.9704   21661380.1554
  -9488403.397 4  -7393550.279 4  22448616.259    22448614.268
 -10642979.99444  -8293223.71844  23302583.1104   23302582.5954
 96  2 24  1 16  0.0000000  0  8G26G 7G 4G 9G 2G24G12G 5
    637622.14344                  25303499.0734
 -16672928.18744 -12991858.72744  21881521.6254   21881522.0004
 -18119796.88044 -14119309.04044  20606149.2314   20606148.0894
 -19410467.00544 -15125032.44244  21066608.1234   21066607.9534
  -7856311.08144  -6121789.41144  23274514.0074   23274515.5424
 -14024453.30244 -10928136.88744  21646069.6274   21646071.5024
  -9407741.431 4  -7330696.831 4  22463965.802    22463963.841
 -10725419.54144  -8357462.27844  23286895.7564   23286896.0664
 96  2 24  1 16 30.0000000  0  8G26G 7G 4G 9G 2G24G12G 5
    707927.46444    551631.67344  25316876.8444
 -16610435.71444 -12943163.29644  21893413.7294   21893413.4884
 -18129485.83244 -14126858.85744  20604305.3324   20604304.5954
 -19422420.98544 -15134347.23744  21064333.5904   21064333.1294
  -7783802.70144  -6065289.41544  23288311.5574   23288314.7244
 -14104503.12344 -10990513.33644  21630836.9614   21630838.1544
  -9326730.285 4  -7267571.298 4  22479381.678    22479379.690
 -10807831.22644  -8421679.13344  23271213.8584   23271214.4824
 96  2 24  1 17  0.0000000  0  8G26G 7G 4G 9G 2G24G12G 5
    778146.92444    606348.02144  25330243.8414   25330246.8814
 -16547824.76744 -12894375.55144  21905328.0494   21905328.6154
 -18138559.98044 -14133929.60444  20602578.6904   20602578.0184
 -19433817.96844 -15143228.00544  21062164.4724   21062164.0174
  -7711016.55044  -6008572.98644  23302162.5674   23302164.2074
 -14184139.47044 -11052567.59344  21615682.4204   21615683.4074
  -9245368.838 4  -7204172.804 4  22494864.445    22494862.300
 -10890210.74244  -8485870.90944  23255536.3894   23255537.8364
 96  2 24  1 17 30.0000000  0  8G26G 7G 4G 9G 2G24G12G 5
    848296.55944    661010.03644  25343595.5574   25343592.1534
 -16485124.20844 -12845517.97244  21917259.5714   21917259.8964
 -18147025.95144 -14140526.44444  20600967.5224   20600966.5184
 -19444646.28644 -15151665.65744  21060104.1334   21060103.7554
  -7637942.05144  -5951631.85644  23316068.7394   23316069.9794
 -14263365.49844 -11114302.12744  21600606.4574   21600607.7524
  -9163664.201 4  -7140506.884 4  22510412.310    22510410.357
 -10972568.52444  -8550045.76844  23239864.8574   23239863.9034
 96  2 24  1 18  0.0000000  0  8G26G 7G 4G 9G 2G24G12G 5
    918320.54544                  25356920.7374
 -16422384.31244 -12796629.74544  21929199.3224   21929199.2454
 -18154949.13644 -14146700.33644  20599459.7014   20599458.7344
 -19454947.31344 -15159692.43344  21058143.9864   21058143.6914
  -7564637.42944  -5894511.41544  23330017.5284   23330017.9474
 -14342232.63544 -11175756.99544  21585598.4204   21585599.4854
  -9081672.575 4  -7076617.342 4  22526014.889    22526012.838
 -11054962.48644  -8614248.84044  23224185.7324   23224184.8574
 96  2 24  1 18 30.0000000  0  8G26G 7G 4G 9G 2G24G12G 5
    988217.40744                  25370221.0794
 -16359600.42144 -12747707.23444  21941146.0434   21941146.1884
 -18162311.83844 -14152437.49044  20598058.5654   20598057.8084
 -19464708.55844 -15167298.60044  21056286.6354   21056285.9724
  -7491118.74244  -5837224.18344  23344008.3364   23344010.1774
 -14420731.41344 -11236924.83944  21570660.7824   21570661.8474
  -8999387.870 4  -7012499.440 4  22541673.055    22541671.112
 -11137387.58944  -8678476.14944  23208499.9814   23208500.4544
 96  2 24  1 19  0.0000000  0  7G 7G 4G 9G 2G24G12G 5
 -16296726.89544 -12698714.87644  21953110.3284   21953110.5754
 -18169066.01944 -14157700.47444  20596773.5344   20596772.7464
 -19473875.68444 -15174441.82144  21054542.2534   21054541.7924
  -7417361.06644  -5779750.68744  23358043.7034   23358044.3504
 -14498810.25544 -11297765.44344  21555802.7484   21555803.5934
  -8916767.404 4  -6948119.896 4  22557395.308    22557393.446
 -11219790.23844  -8742685.94944  23192819.6554   23192820.7784
 96  2 24  1 19 30.0000000  0  7G 7G 4G 9G 2G24G12G 5
 -16233743.92244 -12649637.23944  21965096.0934   21965095.7984
 -18175223.65944 -14162498.62244  20595601.4694   20595600.6564
 -19482460.04144 -15181130.93144  21052908.8774   21052908.1954
  -7343371.17844  -5722096.26944  23372122.8214   23372125.2044
 -14576499.11144 -11358302.17144  21541019.0184   21541020.2874
  -8833823.271 4  -6883488.144 4  22573179.042    22573177.246
 -11302176.17544  -8806882.73744  23177142.3294   23177142.8044
 96  2 24  1 20  0.0000000  0  8G26G 7G 4G 9G 2G24G12G 5
         0.13654                  25410004.5264
 -16170636.50544 -12600462.63544  21977105.2784   21977105.0334
 -18180771.82944 -14166821.85044  20594545.9624   20594545.0984
 -19490470.36844 -15187372.74544  21051384.2964   21051383.9604
  -7269161.35544  -5664270.47744  23386244.5224   23386245.4314
 -14653805.90844 -11418541.19244  21526308.0784   21526309.1564
  -8750556.196 4  -6818604.742 4  22589024.209    22589022.376
 -11384525.65944  -8871051.14744  23161471.7574   23161471.2784
 96  2 24  1 20 30.0000000  0  8G26G 7G 4G 9G 2G24G12G 5
     69431.89344     54103.74744  25423216.7064   25423213.6094
 -16107408.85544 -12551194.33644  21989136.8284   21989136.5864
 -18185695.08244 -14170658.13044  20593608.9414   20593608.3324
 -19497896.32944 -15193159.20544  21049971.0644   21049971.0184
  -7194707.44044  -5606254.48044  23400413.1814   23400415.0034
 -14730716.58244 -11478471.54244  21511672.2334   21511673.6384
  -8666954.298 4  -6753460.432 4  22604933.236    22604931.339
 -11466825.52844  -8935180.88144  23145810.1004   23145810.2634
 96  2 24  1 21  0.0000000  0  8G26G 7G 4G 9G 2G24G12G 5
    138733.73044                  25436403.3004
 -16044075.50744 -12501843.67744  22001188.4434   22001188.8584
 -18190010.26944 -14174020.60044  20592787.9574   20592787.3114
 -19504737.86844 -15198490.27944  21048669.3304   21048669.1244
  -7119996.06844  -5548037.85144  23414630.7024   23414631.9084
 -14807244.96444 -11538104.00744  21497109.2664   21497110.7204
  -8583023.153 4  -6688059.568 4  22620904.899    22620902.856
 -11549072.44744  -8999269.33544  23130159.8334   23130160.9604
 96  2 24  1 21 30.0000000  0  8G26G 7G 4G 9G 2G24G12G 5
    207926.37244                  25449573.0354
 -15980618.34544 -12452396.54744  22013264.3854   22013264.0564
 -18193690.39544 -14176888.21544  20592087.4854   20592086.7144
 -19510981.73544 -15203355.62844  21047481.0054   21047480.5954
  -7045001.29544  -5489600.41244  23428901.4404   23428902.4614
 -14883370.49444 -11597422.55844  21482623.2354   21482624.6974
  -8498740.784 4  -6622385.026 4  22636943.268    22636941.224
 -11631234.49644  -9063291.66744  23114524.2854   23114524.8844
 96  2 24  1 22  0.0000000  0  7G 7G 4G 9G 2G24G12G 5
 -15917064.93544 -12402874.40244  22025358.1204   22025358.3204
 -18196755.55344 -14179276.63444  20591504.2434   20591503.6424
 -19516640.74244 -15207765.25044  21046404.2434   21046403.8244
  -6969738.74444  -5430954.31244  23443223.6594   23443224.6304
 -14959083.77044 -11656419.87244  21468215.2064   21468216.4684
  -8414118.410 4  -6556445.541 4  22653046.302    22653044.513
 -11713324.24344  -9127257.66244  23098902.8044   23098902.2014
 96  2 24  1 22 30.0000000  0  7G 7G 4G 9G 2G24G12G 5
 -15853438.53244 -12353295.38444  22037465.8194   22037466.0784
 -18199234.72544 -14181208.44344  20591032.3664   20591031.5614
 -19521729.90644 -15211730.83744  21045435.8154   21045435.3764
  -6894227.17644  -5372114.15344  23457592.6574   23457594.2204
 -15034390.56444 -11715100.44644  21453884.7654   21453885.9304
  -8329177.677 4  -6490257.991 4  22669210.064    22669208.145
 -11795371.03144  -9191190.20944  23083289.4974   23083289.9444
 96  2 24  1 23  0.0000000  0  7G 7G 4G 9G 2G24G12G 5
 -15789743.56844 -12303662.94744  22049586.2704   22049586.3744
 -18201144.58144 -14182696.63344  20590668.6944   20590667.8184
 -19526273.00244 -15215270.91544  21044571.3334   21044571.0214
  -6818487.31544  -5313096.12544  23472005.2864   23472006.2174
 -15109300.27244 -11773471.60244  21439629.9054   21439630.9604
  -8243936.729 4  -6423836.508 4  22685431.088    22685428.846
 -11877366.35344  -9255082.62444  23067686.4484   23067687.7964
 96  2 24  1 23 30.0000000  0  7G 7G 4G 9G 2G24G12G 5
 -15725950.96744 -12253954.42444  22061725.7984   22061725.7254
 -18202456.67344 -14183719.03344  20590419.0374   20590418.4144
 -19530240.17644 -15218362.22044  21043816.1804   21043815.9374
  -6742487.41744  -5253875.47044  23486468.0254   23486470.1164
 -15183762.25044 -11831493.87344  21425460.3244   21425461.7364
  -8158366.861 4  -6357158.718 4  22701714.476    22701712.422
 -11959277.64244  -9318909.56344  23052099.8084   23052100.3924
 96  2 24  1 24  0.0000000  0  7G 7G 4G 9G 2G24G12G 5
 -15662073.81344 -12204180.01644  22073881.5404   22073881.4114
 -18203188.23744 -14184289.07744  20590280.1434   20590279.4244
 -19533624.75744 -15220999.55944  21043172.0074   21043171.6534
  -6666218.91844  -5194445.49544  23500981.1574   23500983.3354
 -15257768.10144 -11889160.72444  21411377.6594   21411378.9494
  -8072476.611 4  -6290231.274 4  22718058.817    22718056.898
 -12041124.11944  -9382685.98544  23036525.0814   23036525.6334
 96  2 24  1 24 30.0000000  0  7G 7G 4G 9G 2G24G12G 5
 -15598139.58344 -12154361.12844  22086047.7954   22086046.9354
 -18203348.09544 -14184413.62144  20590249.9264   20590248.9974
 -19536454.75944 -15223204.75944  21042633.8304   21042633.5814
  -6589713.16344  -5134830.64344  23515539.9844   23515542.2624
 -15331344.62244 -11946493.03444  21397376.3274   21397377.5464
  -7986296.821 4  -6223078.218 4  22734458.212    22734456.232
 -12122931.92644  -9446432.29444  23020957.8404   23020956.7974
 96  2 24  1 25  0.0000000  0  7G 7G 4G 9G 2G24G12G 5
 -15534147.91744 -12104497.49144  22098224.7394   22098224.3694
 -18202920.77444 -14184080.61944  20590330.9164   20590330.0204
 -19538734.50744 -15224981.18944  21042199.8854   21042199.9494
  -6512975.83544  -5075035.36144  23530143.1364   23530144.6894
 -15404494.64344 -12003493.00844  21383456.3074   21383457.3344
  -7899827.441 4  -6155699.502 4  22750912.756    22750910.818
 -12204698.27344  -9510146.30344  23005398.4414   23005397.8614
 96  2 24  1 25 30.0000000  0  7G 7G 4G 9G 2G24G12G 5
 -15470114.88444 -12054601.61544  22110409.3084   22110409.7734
 -18201916.04844 -14183297.69244  20590522.1024   20590521.2264
 -19540480.68944 -15226341.85644  21041867.6824   21041867.2114
  -6436029.46144  -5015077.16644  23544785.3014   23544786.3774
 -15477253.21144 -12060187.96144  21369611.1124   21369612.2254
  -7813086.685 4  -6088109.325 4  22767419.213    22767417.077
 -12286464.83444  -9573860.47844  22989838.0464   22989838.2614
 96  2 24  1 26  0.0000000  0  7G 7G 4G 9G 2G24G12G 5
 -15406024.53644 -12004661.07944  22122604.8274   22122605.3644
 -18200320.38644 -14182054.29844  20590825.5214   20590824.7164
 -19541707.49844 -15227297.81844  21041634.3414   21041633.7514
  -6358892.37844  -4954970.38344  23559463.6644   23559465.0134
 -15549646.08744 -12116597.95944  21355834.9934   21355835.8344
  -7726075.293 4  -6020308.269 4  22783976.939    22783974.700
 -12368227.75844  -9637571.82244  22974278.7764   22974279.6064
 96  2 24  1 26 30.0000000  0  7G 7G 4G 9G 2G24G12G 5
 -15341845.03744 -11954651.09144  22134818.3434   22134818.5074
 -18198101.76244 -14180325.48444  20591247.7954   20591246.9794
 -19542382.70644 -15227823.96244  21041505.8434   21041505.4024
  -6281549.29344  -4894703.06944  23574182.0254   23574183.5664
 -15621657.68044 -12172710.85844  21342131.1164   21342132.5944
  -7638763.710 4  -5952273.292 4  22800591.750    22800589.539
 -12449946.68944  -9701248.87444  22958727.5864   22958728.2244
 96  2 24  1 27  0.0000000  0  7G 7G 4G 9G 2G24G12G 5
 -15277553.69544 -11904553.94644  22147053.0034   22147052.8994
 -18195261.65644 -14178112.39544  20591788.0774   20591787.3904
 -19542471.02744 -15227892.78744  21041488.8814   21041488.2324
  -6203958.82044  -4834243.00844  23588946.6424   23588948.0074
 -15693266.81044 -12228510.15544  21328504.5794   21328505.4314
  -7551125.567 4  -5883983.851 4  22817268.771    22817266.759
 -12531594.30944  -9764870.36444  22943190.2474   22943190.0304
 96  2 24  1 27 30.0000000  0  7G 7G 4G 9G 2G24G12G 5
 -15213165.65044 -11854381.43644  22159305.4324   22159305.4344
 -18191821.24144 -14175431.53944  20592443.1594   20592442.2074
 -19541970.58744 -15227502.84244  21041584.3864   21041583.9644
  -6126116.31444  -4773586.51044  23603759.4764   23603760.5484
 -15764465.42744 -12283989.57444  21314955.6454   21314956.6024
  -7463166.467 4  -5815444.316 4  22834006.714    22834004.701
 -12613174.58944  -9828439.38144  22927666.5944   22927666.1654
 96  2 24  1 28  0.0000000  0  7G 7G 4G 9G 2G24G12G 5
 -15148681.86344 -11804134.32944  22171576.0124   22171575.0724
 -18187775.72044 -14172279.16644  20593212.6904   20593211.8654
 -19540860.50544 -15226637.84844  21041795.2854   21041794.9304
  -6048007.76844  -4712722.75744  23618622.2634   23618623.2104
 -15835204.49844 -12339110.90144  21301494.7174   21301495.7524
  -7374874.703 4  -5746645.558 4  22850808.109    22850806.101
 -12694671.52344  -9891943.46344  22912158.2374   22912158.2944
 96  2 24  1 28 30.0000000  0  7G 7G 4G 9G 2G24G12G 5
 -15084131.79744 -11753835.57444  22183859.8534   22183860.3834
 -18183144.32344 -14168670.27144  20594094.0884   20594093.4314
 -19539139.67144 -15225296.94444  21042122.9634   21042122.6284
  -5969627.61944  -4651647.35644  23633539.1554   23633539.1084
 -15905472.93444 -12393865.49244  21288123.2634   21288124.1984
  -7286265.642 4  -5677599.563 4  22867669.793    22867668.018
 -12776098.16144  -9955392.74344  22896664.5644   22896665.0284
 96  2 24  1 29  0.0000000  0  7G 7G 4G 9G 2G24G12G 5
 -15019517.66544 -11703486.90044  22196155.4284   22196156.0254
 -18177927.89744 -14164605.50644  20595086.7314   20595085.9024
 -19536828.81144 -15223496.28344  21042562.3594   21042561.9484
  -5890973.77044  -4590358.69244  23648505.7004   23648507.3024
 -15975261.36444 -12448246.05444  21274842.9754   21274843.8954
  -7197342.483 4  -5608308.813 4  22884591.303    22884589.559
 -12857458.77444 -10018790.58144  22881181.2244   22881181.0804
 96  2 24  1 29 30.0000000  0  7G 7G 4G 9G 2G24G12G 5
 -14954849.84244 -11653096.39244  22208461.4914   22208461.9984
 -18172128.69644 -14160086.63744  20596190.2204   20596189.5894
 -19533961.52044 -15221262.03444  21043108.4764   21043107.9604
  -5812082.14044  -4528884.72444  23663519.2894   23663522.7344
 -16044585.48144 -12502264.80244  21261650.8484   21261651.6494
  -7108126.840 4  -5538790.156 4  22901568.706    22901566.597
 -12938777.49444 -10082155.78644  22865707.6994   22865707.3774
 96  2 24  1 30  0.0000000  0  7G 7G 4G 9G 2G24G12G 5
 -14890110.48144 -11602650.14044  22220780.5534   22220780.6844
 -18165747.18644 -14155114.01544  20597404.7704   20597404.1224
 -19530535.67444 -15218592.55044  21043760.3444   21043759.7514
  -5732954.28644  -4467226.65544  23678576.8204   23678579.6124
 -16113454.26744 -12555928.74944  21248545.2494   21248546.1814
  -7018620.397 4  -5469044.906 4  22918601.239    22918599.210
 -13020046.87544 -10145482.54344  22850241.6474   22850241.9584
 96  2 24  1 30 30.0000000  0  7G 7G 4G 9G 2G24G12G 5
 -14825293.52544 -11552143.42744  22233115.0004   22233114.6884
 -18158791.96844 -14149694.35544  20598728.2754   20598727.3654
 -19526559.13744 -15215493.95344  21044517.2314   21044516.7244
  -5653595.91544  -4405388.98944  23693676.9394   23693679.8494
 -16181896.42344 -12609260.25344  21235521.1204   21235522.3094
  -6928826.750 4  -5399075.856 4  22935688.376    22935686.536
 -13101260.82544 -10208766.11444  22834786.4984   22834786.9534
 96  2 24  1 31  0.0000000  0  7G 7G 4G 9G 2G24G12G 5
 -14760396.99244 -11501574.69944  22245464.9494   22245464.7574
 -18151258.49444 -14143824.10644  20600161.9334   20600161.1014
 -19522034.57644 -15211968.33044  21045377.9734   21045377.6924
  -5574015.80544  -4343378.57544  23708821.1304
 -16249912.90044 -12662260.06744  21222577.9844   21222579.3054
  -6838745.759 4  -5328882.904 4  22952830.273    22952828.357
 -13182423.33644 -10272009.58944  22819342.0034   22819342.3664
 96  2 24  1 31 30.0000000  0  7G 7G 4G 9G 2G24G12G 5
 -14695410.01044 -11450935.49444  22257831.0054   22257831.5074
 -18143128.57744 -14137489.09844  20601708.7354   20601707.8984
 -19516937.13744 -15207996.30444  21046347.7704   21046347.3304
  -5494199.79044  -4281184.29544  23724008.7334
 -16317486.88744 -12714915.08144  21209719.2894   21209720.1554
  -6748365.480 4  -5258456.748 4  22970029.101    22970026.960
 -13263513.19144 -10335196.44044  22803911.3244   22803911.7134
 96  2 24  1 32  0.0000000  0  7G 7G 4G 9G 2G24G12G 5
 -14630359.41244 -11400246.70944  22270209.7824   22270209.8604
 -18134426.39044 -14130708.16744  20603364.8184   20603363.8784
 -19511269.07344 -15203579.64044  21047426.7024   21047426.2524
  -5414162.52744  -4218817.62744  23739240.0194
 -16384637.12644 -12767239.90744  21196940.9044   21196941.8224
  -6657703.491 4  -5187811.074 4  22987281.745    22987279.393
 -13344532.04544 -10398327.98544  22788493.6914   22788493.8584
 96  2 24  1 32 30.0000000  0  7G 7G 4G 9G 2G24G12G 5
 -14565271.69944 -11349529.01044  22282595.9724   22282595.6734
 -18125151.39044 -14123480.88544  20605129.7644   20605128.9704
 -19505050.81844 -15198734.24644  21048610.1654   21048609.7184
  -5333911.41844                  23754511.2104
 -16451362.40944 -12819233.59644  21184243.7054   21184244.5454
  -6566773.150 4  -5116956.303 4  23004585.169    23004583.102
 -13425499.62644 -10461419.57744  22773086.6084   22773085.6824
 96  2 24  1 33  0.0000000  0  7G 7G 4G 9G 2G24G12G 5
 -14500146.27544 -11298781.92244  22294988.6464   22294988.6414
 -18115292.21344 -14115798.39644  20607005.8334   20607005.2024
 -19498285.22544 -15193462.36544  21049897.3674   21049897.1194
  -5253440.78944                  23769824.0064
 -16517647.91244 -12870884.60244  21171630.0744   21171630.7294
  -6475579.819 4  -5045896.601 4  23021938.565    23021936.495
 -13506415.40244 -10524470.79044  22757689.4984   22757689.5234
 96  2 24  1 33 30.0000000  0  7G 7G 4G 9G 2G24G12G 5
 -14434950.43644 -11247979.97044  22307394.7484   22307394.6314
 -18104842.20544 -14107655.51444  20608994.7054   20608993.5944
 -19490945.00544 -15187742.71944  21051293.9534   21051293.5434
  -5172740.27344                  23785182.5014
 -16583482.98444 -12922184.62044  21159101.7434   21159102.2904
  -6384113.020 4  -4974623.807 4  23039344.142    23039341.980
 -13587262.75744 -10587468.68744  22742304.5444   22742304.0604
 96  2 24  1 34  0.0000000  0  7G 7G 4G 9G 2G24G12G 5
 -14369666.74044 -11197109.56244  22319817.7574   22319818.0974
 -18093798.26644 -14099049.82444  20611095.9464   20611094.9054
 -19483019.51144 -15181567.01244  21052802.1654   21052801.7694
  -5091802.59844                  23800583.6864
 -16648858.19944 -12973126.30244  21146661.5174   21146662.2664
  -6292367.636 4  -4903133.941 4  23056802.785    23056800.557
 -13668040.33044 -10650412.20844  22726932.6954   22726932.5964
 96  2 24  1 34 30.0000000  0  7G 7G 4G 9G 2G24G12G 5
 -14304293.05844 -11146169.01944  22332258.4824   22332258.7664
 -18082168.14844 -14089987.37844  20613309.1604   20613308.4564
 -19474527.13644 -15174949.58544  21054418.3914   21054417.9434
  -5010624.14544                  23816030.5844
 -16713774.85744 -13023710.67444  21134308.2554   21134308.9354
  -6200351.148 4  -4831432.816 4  23074313.099    23074310.960
 -13748763.37844 -10713313.25544  22711571.2654   22711571.2674
 96  2 24  1 35  0.0000000  0  7G 7G 4G 9G 2G24G12G 5
 -14238821.67244 -11095152.35744  22344717.5664   22344717.6584
 -18069972.48544 -14080484.24744  20615629.7954   20615628.9624
 -19465458.50944 -15167883.12944  21056144.4124   21056144.0284
  -4929204.15244                  23831524.4334
 -16778245.51244 -13073947.50744  21122039.8214   21122040.4394
  -6108058.692 4  -4759516.650 4  23091875.866    23091873.631
 -13829405.20144 -10776151.01244  22696225.4904   22696225.8134
 96  2 24  1 35 30.0000000  0  8G20G 7G 4G 9G 2G24G12G 5
        -1.12054        -0.86654  25202016.7354
 -14173275.50944 -11044077.40644  22357189.6864   22357189.8854
 -18057234.44444 -14070558.49044  20618053.9344   20618052.8434
 -19455822.76844 -15160374.76744  21057977.6644   21057977.3034
  -4847554.39744                  23847063.8294
 -16842290.29744 -13123852.49744  21109852.3734   21109853.1964
  -6015498.871 4  -4687392.151 4  23109489.318    23109486.787
 -13909973.11344 -10838931.17144  22680894.1784   22680894.6284
 96  2 24  1 36  0.0000000  0  8G20G 7G 4G 9G 2G24G12G 5
    -95407.24744                  25183859.1934
 -14107720.23344 -10992995.38444  22369664.3704   22369664.7184
 -18043987.24844 -14060235.98244  20620574.8664   20620573.9254
 -19445676.37844 -15152468.49844  21059908.2324   21059907.9194
  -4765702.96944                  23862638.7084
 -16905937.58944 -13173447.75244  21097740.7514   21097741.7764
  -5922706.446 4  -4615086.405 4  23127147.218    23127144.785
 -13990493.07644 -10901673.97244  22665572.0004   22665571.3144
 96  2 24  1 36 30.0000000  0  8G20G 7G 4G 9G 2G24G12G 5
   -190910.52444                  25165685.2474
 -14042152.90944 -10941903.96544  22382141.4424   22382141.3794
 -18030203.50544 -14049495.39144  20623197.5164   20623196.4414
 -19434997.39344 -15144147.21744  21061940.6164   21061940.0844
  -4683636.49444                  23878255.2744
 -16969170.51044 -13222720.11644  21085707.8804   21085708.4824
  -5829660.594 4  -4542583.185 4  23144853.372    23144851.086
 -14070931.52244 -10964353.24844  22650264.6094   22650264.0524
 96  2 24  1 37  0.0000000  0  8G20G 7G 4G 9G 2G24G12G 5
   -286492.15444                  25147498.3684
 -13976564.45444 -10890796.06644  22394623.1264   22394622.4914
 -18015843.78444 -14038305.97744  20625930.3974   20625929.3544
 -19423760.89844 -15135391.51344  21064078.5374   21064078.2734
  -4601342.39144                  23893914.0944
 -17031954.57044 -13271642.72344  21073760.2614   21073761.0964
  -5736342.521 4  -4469867.836 4  23162611.172    23162609.135
 -14151268.85344 -11026953.74144  22634976.6064   22634976.1574
 96  2 24  1 37 30.0000000  0  8G20G 7G 4G 9G 2G24G12G 5
   -382147.68944                  25129297.2674
 -13910946.11244 -10839664.88644  22407109.6204   22407109.6394
 -18000862.64344 -14026632.34644  20628780.9774   20628780.0844
 -19411957.46244 -15126194.03844  21066324.9904   21066324.6054
  -4518819.68644                  23909619.2314
 -17094256.85544 -13320189.91444  21061904.4614   21061905.2604
  -5642748.085 4  -4396937.139 4  23180421.587    23180419.373
 -14231518.89544 -11089486.20744  22619705.6494   22619705.1584
 96  2 24  1 38  0.0000000  0  8G20G 7G 4G 9G 2G24G12G 5
   -477886.49844                  25111079.1014
 -13845303.17444 -10788514.53344  22419601.1704   22419601.7524
 -17985263.43644 -14014477.10044  20631749.3724   20631748.5444
 -19399600.38944 -15116565.15744  21068676.3134   21068675.9464
  -4436074.79744                  23925363.4664
 -17156075.32744 -13368360.11144  21050140.8644   21050141.8424
  -5548890.650 4  -4323801.504 4  23198282.062    23198279.886
 -14311691.31944 -11151958.19144  22604449.5024   22604449.7434
 96  2 24  1 38 30.0000000  0  8G20G 7G 4G 9G 2G24G12G 5
   -573663.55144                  25092853.3894
 -13779584.68344 -10737305.31244  22432106.9414   22432107.5734
 -17969008.49444 -14001810.89644  20634842.6754   20634841.6954
 -19386648.59244 -15106472.85744  21071141.0104   21071140.7024
  -4353069.21644                  23941159.6064
 -17217371.44744 -13416123.27944  21038476.5034   21038477.2734
  -5454734.897 4  -4250433.416 4  23216199.281    23216197.190
 -14391757.65144 -11214347.50244  22589213.0634   22589212.6594
 96  2 24  1 39  0.0000000  0  8G20G 7G 4G 9G 2G24G12G 5
   -669470.21644                  25074626.0994
 -13713772.33144 -10686022.95144  22444630.5004   22444631.4144
 -17952116.17144 -13988648.03144  20638057.2164   20638056.4914
 -19373109.10544 -15095922.61244  21073717.4914   21073717.2744
  -4269785.49144                  23957010.3244
 -17278136.17844 -13463472.38144  21026913.2654   21026914.0904
  -5360283.302 4  -4176834.787 4  23234172.762    23234170.788
 -14471722.06344 -11276657.40544  22573996.6564   22573996.3524
 96  2 24  1 39 30.0000000  0  7G20G 7G 4G 9G24G12G 5
   -765262.56444   -596308.03044  25056395.4904   25056396.9664
 -13647826.61144 -10634636.67444  22457179.5904   22457180.2444
 -17934579.89844 -13974983.38844  20641394.1314   20641393.1624
 -19358939.40744 -15084881.29744  21076414.0604   21076413.7744
 -17338356.20644 -13510397.03944  21015453.8094   21015454.4794
  -5265506.841 4  -4102983.023 4  23252208.357    23252206.207
 -14551544.12844 -11338856.38544  22558807.0364   22558806.7004
 96  2 24  1 40  0.0000000  0  7G20G 7G 4G 9G24G12G 5
   -861032.84844   -670934.21044  25038170.0754   25038170.8434
 -13581755.05944 -10583152.35244  22469752.7404   22469752.7634
 -17916438.61044 -13960847.30844  20644846.3204   20644845.4424
 -19344142.18244 -15073350.99744  21079229.7334   21079229.3614
 -17398056.61344 -13556916.79544  21004093.4674   21004094.0364
  -5170415.606 4  -4028886.000 4  23270303.513    23270301.499
 -14631217.64944 -11400939.61344  22543645.6444   22543645.6044
 96  2 24  1 40 30.0000000  0  7G20G 7G 4G 9G24G12G 5
   -956760.49844   -745527.17144  25019953.4224   25019951.2094
 -13515528.38244 -10531547.14344  22482354.6514   22482355.0464
 -17897676.47544 -13946227.45344  20648416.5544   20648415.7234
 -19328687.84944 -15061308.66944  21082170.6904   21082170.6644
 -17457217.05744 -13603015.79744  20992835.4794   20992836.4134
  -5074991.715 4  -3954529.762 4  23288461.915    23288460.027
 -14710727.68444 -11462895.43944  22528515.3554   22528515.1174
 96  2 24  1 41  0.0000000  0  7G 9G20G 7G12G 4G24G 5
 -19312651.74344 -15048813.00944  21085221.9654   21085221.6814
  -1052534.60244                  25001730.4024
 -13449241.39344 -10479894.92844  22494969.4664   22494969.4364
  -4979331.016 4  -3879988.986 4  23306665.622    23306663.594
 -17878384.88144 -13931195.02944  20652087.6114   20652086.5164
 -17515930.10944 -13648766.19044  20981662.8674   20981663.3224
 -14790161.20044 -11524791.66144  22513399.7624   22513399.6534
 96  2 24  1 41 30.0000000  0  7G 9G20G 7G12G 4G24G 5
 -19296060.70844 -15035884.94244  21088379.3484   21088379.0564
  -1148385.35744   -894845.14544  24983489.1574
 -13382932.51544 -10428225.68044  22507587.0784   22507587.5114
  -4883462.270 4  -3805286.106 4  23324909.106    23324906.880
 -17858573.91644 -13915757.89844  20655857.9454   20655856.7764
 -17574225.91444 -13694191.45344  20970569.3404   20970569.7254
 -14869546.89444 -11586650.60344  22498293.1234   22498292.4274
 96  2 24  1 42  0.0000000  0  7G 9G20G 7G 4G24G12G 5
 -19278951.26844 -15022552.91844  21091635.2564   21091634.9544
  -1244351.09244   -969623.54644  24965228.1184   24965226.0664
 -13316611.11644 -10376546.67144  22520207.9734   22520208.9494
 -17838245.72744 -13899917.73144  20659725.9394   20659724.9744
 -17632102.31344 -13739289.91244  20959555.7854   20959556.3674
  -4787403.387 4  -3730435.059 4  23343188.441    23343186.384
 -14948903.99244 -11648487.26344  22483191.9744   22483191.4664
 96  2 24  1 42 30.0000000  0  7G 9G20G 7G12G 4G24G 5
 -19261293.91744 -15008793.95544  21094995.4814   21094995.0654
  -1340394.17344  -1044462.19144  24946954.0884
 -13250231.53644 -10324822.31944  22532839.6024   22532839.5744
  -4691108.007 4  -3655399.723 4  23361512.899    23361510.797
 -17817340.23344 -13883627.71744  20663704.1414   20663703.0814
 -17689504.15344 -13784018.58644  20948632.9454   20948633.5084
 -15028191.10344 -11710269.39744  22468103.9284   22468103.8474
 96  2 24  1 43  0.0000000  0  7G 9G20G 7G12G 5G 4G24
 -19243092.68644 -14994611.19344  21098458.9844   21098458.4924
  -1436498.17444                  24928667.3594
 -13183779.86344 -10273041.79144  22545484.6164   22545484.2694
  -4594561.401 4  -3580168.644 4  23379885.262    23379883.174
 -15107383.07044 -11771977.39644  22453034.4454   22453034.4414
 -17795846.27244 -13866879.16144  20667794.2904   20667792.9394
 -17746421.55744 -13828369.77844  20937801.6224   20937802.1914
 96  2 24  1 43 30.0000000  0  7G 9G20G 7G12G 4G24G 5
 -19224399.47144 -14980045.05744  21102016.2094   21102015.5864
  -1532689.27544  -1194302.47544  24910361.2134
 -13117277.04044 -10221221.40744  22558139.7524   22558139.4564
  -4497791.199 4  -3504763.342 4  23398300.015    23398297.686
 -17773799.33644 -13849699.72544  20671989.8844   20671989.0364
 -17802876.75144 -13872360.80544  20927058.4224   20927058.9644
 -15186498.73344 -11833625.93144  22437979.0654   22437978.8054
 96  2 24  1 44  0.0000000  0  7G 9G20G 7G12G 5G 4G24
 -19205194.71044 -14965080.31744  21105670.8274   21105670.5734
  -1628937.68344  -1269301.19744  24892043.6364   24892037.8424
 -13050706.96744 -10169348.60744  22570807.5514   22570807.6374
  -4400777.378 4  -3429168.198 4  23416760.947    23416758.732
 -15265506.36144 -11895190.29144  22422944.5584   22422944.2014
 -17751192.28644 -13832083.84244  20676291.8674   20676290.7064
 -17858840.26144 -13915968.70344  20916409.2004   20916409.7104
 96  2 24  1 44 30.0000000  0  7G 9G20G 7G12G 4G24G 5
 -19185475.26944 -14949714.53244  21109423.3144   21109422.9734
  -1725222.17444  -1344327.99344  24873720.4264   24873717.8734
 -12984090.92744 -10117440.01544  22583484.0304   22583483.6374
  -4303525.818 4  -3353387.798 4  23435267.272    23435265.358
 -17728043.41344 -13814045.75844  20680696.4444   20680695.8434
 -17914322.27144 -13959201.40644  20905850.8974   20905851.7554
 -15344408.94144 -11956672.79744  22407929.9574   22407929.6664
 96  2 24  1 47  0.0000000  0  7G 9G20G 7G12G 5G 4G24
        -0.39754         0.69954  21129739.2504   21129739.0694
        -1.09654        -1.25354  24782005.7764   24782009.5374
        -0.70754        -0.48454  22646942.1344   22646942.2094
        -0.41814        -0.57114  23528455.975    23528453.677
        -0.72554        -0.26254  22333158.8774   22333158.4034
        -0.81354        -0.90054  20704260.3864   20704259.5104
        -1.03254        -1.31654  20854459.4824   20854460.2064
 96  2 24  1 47 30.0000000  0  7G 9G20G 7G12G 5G 4G24
     23066.23544     17974.68644  21134128.4584   21134128.2094
    -96539.86044    -75226.14544  24763636.1694   24763636.4784
     66784.67144     52040.07144  22659651.1374   22659650.0534
     98628.605 4     76853.166 4  23547224.598    23547221.876
    -78251.22844    -60974.65644  22318268.5494   22318268.1624
     26421.35744     20587.81644  20709288.8024   20709287.6994
    -52558.39244    -40955.07744  20844457.9344   20844458.4884
 96  2 24  1 48  0.0000000  0  7G 9G20G 7G12G 5G 4G24
     46649.80544     36351.48544  21138616.5414   21138616.1034
   -193176.71144   -150527.53844  24745244.3634   24745245.9504
    133561.12944    104073.68144  22672357.8714   22672357.5034
    197433.080 4    153843.617 4  23566026.390    23566023.808
   -156417.52044   -121883.43344  22303393.4244   22303392.8784
     53334.46444     41559.08144  20714409.7194   20714408.8984
   -104683.23644    -81571.81144  20834538.9114   20834539.4284
 96  2 24  1 48 30.0000000  0  7G 9G20G 7G12G 5G 4G24
     70775.50844     55150.72244  21143207.8294   21143207.4284
   -289872.92644   -225875.25044  24726839.8814
    200380.33044    156140.61244  22685073.3964   22685073.3704
    296451.489 4    231000.772 4  23584868.856    23584866.430
   -234445.95144   -182684.79844  22288544.9524   22288544.7984
     80773.50744     62940.16744  20719631.4664   20719630.3404
   -156326.29244   -121813.12444  20824711.6154   20824712.1174
 96  2 24  1 49  0.0000000  0  7G 9G20G 7G12G 5G 4G24
     95440.34044     74370.06144  21147900.9104   21147900.5574
   -386606.45444   -301251.94844  24708431.1264
    267240.91044    208239.76344  22697796.2544   22697796.1704
    395685.575 4    308326.000 4  23603752.338    23603750.166
   -312345.05144   -243385.37344  22273721.3284   22273721.0304
    108742.52544     84734.21944  20724953.6604   20724952.7664
   -207488.48144   -161679.73344  20814975.8354   20814976.2444
 96  2 24  1 49 30.0000000  0  7G 9G20G 7G12G 5G 4G24
    120612.30144     93984.56444  21152690.7194   21152690.4314
   -483377.73144   -376658.11944  24690015.5894
    334117.14844    260351.13744  22710522.8464   22710522.6854
    495114.876 4    385803.344 4  23622673.394    23622671.043
   -390148.86744   -304011.71544  22258916.3884   22258915.4924
    137234.30544    106935.61644  20730375.4054   20730374.4154
   -258183.71444   -201182.48344  20805328.6584   20805329.0244
 96  2 24  1 50  0.0000000  0  7G 9G20G 7G12G 5G 4G24
    146294.23544    113996.45044  21157578.2874   21157577.9344
   -580173.75144                  24671594.3064
    401004.08044    312470.83244  22723251.2164   22723250.7504
    594747.278 4    463438.952 4  23641632.791    23641630.520
   -467848.06444   -364556.52044  22244130.9344   22244130.3604
    166272.87744    129563.09244  20735900.9494   20735900.0064
   -308410.28044   -240320.03544  20795770.8294   20795771.3634
 96  2 24  1 50 30.0000000  0  7G 9G20G 7G12G 5G 4G24
    172519.21444    134431.48944  21162568.6744   21162568.5834
   -676965.51444   -527505.64444  24653177.6944   24653179.2804
    467945.01144    364632.60144  22735989.4104   22735989.0204
    694617.014 4    541259.488 4  23660637.515    23660634.997
   -545430.80644   -425010.57344  22229367.3294   22229366.7154
    195889.89544    152641.30244  20741537.2434   20741536.0084
   -358139.87144   -279070.32844  20786307.6844   20786308.2644
 96  2 24  1 51  0.0000000  0  7G20G 7G 9G12G 5G 4G24
   -773727.37744   -602904.45344  24634764.9464   24634766.7484
    534972.03144    416861.44244  22748744.1634   22748743.6324
    199335.65844    155327.41044  21167671.7884   21167671.7214
    794757.708 4    619291.161 4  23679693.438    23679691.103
   -622873.71944   -485355.67944  22214630.4354   22214629.7694
    226119.85044    176197.12944  20747289.8124   20747288.7844
   -407339.29544   -317407.50744  20776945.1584   20776945.6944
 96  2 24  1 51 30.0000000  0  7G20G 7G 9G12G 5G 4G24
   -870364.39644   -678205.94344  24616376.1794   24616374.6204
    602208.38244    469253.41144  22761539.2324   22761538.2464
    226867.13444    176780.49544  21172910.8044   21172910.5414
    895281.824 4    697621.609 4  23698822.506    23698820.351
   -700045.36744   -545489.41844  22199944.9194   22199944.7674
    257075.45244    200318.39344  20753180.3864   20753179.2594
   -455888.87644   -355238.31844  20767706.4254   20767707.1464
 96  2 24  1 52  0.0000000  0  7G20G 7G 9G12G 5G 4G24
   -967026.17144   -753526.79144  24597982.8244
    669522.01444    521705.61144  22774348.6354   22774348.2884
    254978.67044    198685.57644  21178260.2404   21178259.8144
    996045.902 4    776139.035 4  23717997.284    23717995.021
   -777070.86844   -605509.27244  22185286.9864   22185287.2944
    288605.17444    224887.02644  20759180.5714   20759179.4034
   -503919.38744   -392664.65444  20758566.4584   20758566.8524
 96  2 24  1 52 30.0000000  0  7G20G 7G 9G12G 5G 4G24
  -1063796.86844   -828932.47044  24579567.8064   24579570.1304
    736852.03544    574170.57344  22787160.2224   22787160.6344
    283609.49644    220995.29244  21183708.5794   21183708.1344
   1096972.400 4    854783.023 4  23737203.239    23737200.848
   -854020.16144   -665469.73744  22170643.9994   22170644.1144
    320624.96844    249837.52644  20765273.3374   20765272.1824
   -551477.87344   -429723.18344  20749516.4134   20749516.9594
 96  2 24  1 53  0.0000000  0  7G20G 7G 9G12G 5G 4G24
  -1160670.62044   -904418.44644  24561134.2974   24561133.2704
    804176.96144    626631.55644  22799971.8274   22799971.3644
    312751.16844    243703.06644  21189253.7424   21189253.5684
   1198058.670 4    933551.514 4  23756439.227    23756437.053
   -930879.80044   -725360.32944  22156018.7604   22156018.4054
    353139.75044    275173.73444  20771460.5784   20771459.7594
   -598554.22144   -466406.02044  20740558.4234   20740558.8514
 96  2 24  1 53 30.0000000  0  7G20G 7G 9G12G 4G24G 5
  -1257546.56144   -979906.10744  24542698.9164   24542696.3814
    871567.84644    679143.93244  22812795.7544   22812796.1994
    342473.45944    266863.27444  21194910.0834   21194909.7784
   1299380.943 4   1012503.915 4  23775720.092    23775718.042
    386220.66544    300951.08144  20777755.6924   20777754.6144
   -645059.17744   -502643.62144  20731708.6774   20731709.0674
  -1007562.52644   -785113.07344  22141425.6704   22141425.0234
 96  2 24  1 54  0.0000000  0  7G20G 7G 9G12G 5G 4G24
  -1354458.09944  -1055421.53744  24524255.0854   24524255.7314
    938979.43044    731672.45044  22825623.8924   22825625.2504
    372726.63444    290437.16644  21200667.0354   21200666.7694
   1400895.413 4   1091606.087 4  23795037.867    23795035.505
  -1084119.39444   -844767.75544  22126857.5794   22126856.9714
    419817.81044    327130.68744  20784148.9084   20784147.9844
   -691031.97744   -538466.55344  20722960.4244   20722960.7494
 96  2 24  1 54 30.0000000  0  7G20G 7G 9G12G 4G24G 5
  -1451387.03744  -1130950.57244  24505811.2524
   1006423.45644    784226.23844  22838458.1374   22838457.7564
    403512.03044    314425.77644  21206525.0874   21206524.6344
   1502615.672 4   1170868.601 4  23814394.549    23814392.055
    453941.82444    353720.83644  20790642.9744   20790642.3364
   -736469.14744   -573872.11144  20714313.8394   20714314.3814
  -1160539.54644   -904315.89944  22112315.6674   22112315.0994
 96  2 24  1 55  0.0000000  0  7G20G 7G 9G12G 5G 4G24
  -1548328.91444  -1206489.65944  24487364.6324   24487362.3724
   1073886.92144    836795.18044  22851296.3634   22851296.8314
    434787.83044    338796.52444  21212476.6064   21212476.4324
   1604523.700 4   1250277.429 4  23833787.217    23833784.669
  -1236832.77444   -963765.14444  22097797.4234   22097796.7394
    488584.22144    380714.92144  20797234.9944   20797234.0984
   -781400.75344   -608883.72044  20705763.6344   20705764.0194
 96  2 24  1 55 30.0000000  0  7G20G 7G 9G12G 4G24G 5
  -1645308.21044  -1282057.86444  24468907.5424   24468907.5574
   1141368.76344    889378.43644  22864137.8214   22864137.2674
    466535.90444    363535.27944  21218517.9624   21218517.9934
   1706591.601 4   1329810.824 4  23853209.842    23853207.585
    523719.08944    408092.75244  20803920.8224   20803919.9604
   -825856.76844   -643524.73944  20697303.8744   20697304.1864
  -1313014.08544  -1023127.17644  22083299.9784   22083299.9234
 96  2 24  1 56  0.0000000  0  7G20G 7G 9G12G 5G 4G24
  -1742267.52744  -1357610.44244  24450458.4384   24450457.9494
   1208938.40144    942030.11844  22876994.9714   22876994.5914
    498816.00644    388688.59644  21224660.5924   21224660.6384
   1808887.184 4   1409521.644 4  23872676.356    23872673.758
  -1389003.22944  -1082339.46944  22068840.2314   22068839.8754
    559421.47644    435912.80644  20810714.8444   20810713.8574
   -869776.16744   -677747.61744  20688946.3314   20688946.7334
 96  2 24  1 56 30.0000000  0  7G20G 7G 9G12G 5G 4G24
  -1839234.77044  -1433169.36644  24432004.0144
   1276543.14444    994709.14444  22889860.3464   22889860.0164
    531586.71744    414224.20044  21230897.0464   21230896.9504
   1911373.825 4   1489381.347 4  23892178.857    23892176.426
  -1464823.54244  -1141420.20444  22054412.3664   22054411.7944
    595648.08544    464141.34244  20817608.5554   20817607.5464
   -913193.83744   -711579.53444  20680684.1164   20680684.4774
 96  2 24  1 57  0.0000000  0  7G20G 7G 9G12G 5G 4G24
  -1936191.00644  -1508719.57344  24413552.8274
   1344190.53944   1047421.41944  22902733.1254   22902732.6294
    564872.15544    440160.89344  21237231.4614   21237231.0714
   2014059.740 4   1569396.314 4  23911719.533    23911717.076
  -1540463.79844  -1200360.64544  22040018.3564   22040017.9704
    632403.60044    492782.01444  20824602.8934   20824601.7284
   -956092.45844   -745006.99944  20672520.8144   20672521.1334
 96  2 24  1 57 30.0000000  0  7G20G 7G 9G12G 4G24G 5
  -2033170.24044  -1584287.77744  24395098.1634
   1411845.00444   1100139.20444  22915606.8664   22915607.2314
    598674.51544    466500.37744  21243663.4064   21243662.9804
   2116918.656 4   1649546.093 4  23931292.647    23931290.285
    669640.09744    521797.47644  20831688.6204   20831687.7774
   -998501.76244   -778053.18244  20664450.5034   20664450.9424
  -1615957.73444  -1259187.06744  22025652.0784   22025651.9284
 96  2 24  1 58  0.0000000  0  7G20G 7G 9G12G 5G 4G24
  -2130129.37344  -1659840.31944  24376648.5274
   1479533.21344   1152883.26644  22928487.6684   22928488.9424
    633025.68444    493267.50544  21250200.0954   21250199.7004
   2219983.099 4   1729856.046 4  23950905.219    23950902.719
  -1691285.16044  -1317883.74444  22011317.6744   22011317.4364
    707388.30344    551211.67044  20838871.9884   20838870.9204
  -1040389.16544   -810692.68544  20656479.6324   20656480.0654
 96  2 24  1 58 30.0000000  0  7G20G 7G 9G12G 4G24G 5
  -2227043.19044  -1735357.52344  24358207.1854   24358209.7364
   1547295.49544   1205685.06644  22941382.4714   22941382.8484
    667956.64044    520486.40844  21256847.3884   21256847.1084
   2323268.047 4   1810337.809 4  23970559.633    23970557.371
    745659.21944    581033.17644  20846154.8044   20846153.7444
  -1081729.91844   -842906.22644  20648612.4934   20648612.9194
  -1766451.28844  -1376454.74144  21997014.1214   21997013.6884
 96  2 24  1 59  0.0000000  0  7G20G 7G 9G12G 5G 4G24
  -2323955.69244  -1810873.68944  24339766.3544   24339768.7314
   1615129.49144   1258542.72544  22954290.8124   22954290.1914
    703448.71044    548142.54544  21263601.4164   21263601.0664
   2426745.275 4   1890969.399 4  23990250.749    23990248.221
  -1841491.79244  -1434927.85144  21982733.8284   21982733.6104
    784446.98044    611257.41444  20853535.9844   20853534.8604
  -1122550.31744   -874714.29744  20640844.7974   20640845.1154
 96  2 24  1 59 30.0000000  0  7G20G 7G 9G12G 4G24G 5
  -2420925.61344  -1886434.61844  24321314.3814   24321317.5194
   1682986.49044   1311418.32944  22967203.7614   22967202.3954
    739454.78344    576199.20244  21270452.8204   21270452.6384
   2530366.281 4   1971713.025 4  24009969.322    24009966.738
    823718.80644    641858.84544  20861008.8994   20861007.6874
  -1162894.64944   -906151.40744  20633167.4424   20633167.4844
  -1916449.45144  -1493336.39144  21968470.5524   21968470.2394
 96  2 24  2  0  0.0000000  0  7G20G 7G 9G12G 5G 4G24
  -2517959.75844  -1962045.55544  24302849.9984   24302849.5024
   1750864.72544   1364310.44244  22980119.8634   22980120.9834
    775948.87144    604636.13644  21277397.4514   21277397.1294
   2634123.831 4   2052563.048 4  24029713.366    24029711.171
  -1991316.81744  -1551674.57844  21954224.0804   21954223.9694
    863480.31444    672841.85144  20868575.1854   20868574.5024
  -1202747.50644   -937205.54844  20625583.7764   20625583.9974
 96  2 24  2  0 30.0000000  0  7G20G 7G 9G12G 4G24G 5
  -2615094.89544  -2037735.23944  24284364.6004   24284362.6474
   1818731.12744   1417193.34544  22993035.2924   22993034.8804
    812914.76944    633440.71144  21284432.3484   21284431.9654
   2737995.738 4   2133502.175 4  24049479.803    24049477.422
    903710.88544    704190.35744  20876230.9674   20876229.7264
  -1242121.96244   -967886.90744  20618090.9714   20618091.2784
  -2066098.49544  -1609945.99744  21939993.3774   21939992.9974
 96  2 24  2  1  0.0000000  0  7G20G 7G 9G12G 5G 4G24
  -2712308.75944  -2113486.24444  24265866.1964   24265865.7024
   1886566.65544   1470052.22744  23005943.5224   23005943.5014
    850366.17544    662623.59744  21291559.0834   21291558.7734
   2841994.165 4   2214539.882 4  24069269.787    24069267.654
  -2140752.74044  -1668118.12844  21925786.7534   21925786.6744
    944431.73944    735920.89944  20883980.0724   20883978.8594
  -1281014.91244   -998193.07344  20610689.7674   20610690.1304
 96  2 24  2  1 30.0000000  0  7G20G 7G 9G 4G24G12G 5
  -2809549.49944  -2189258.20144  24247362.4374   24247362.7894
   1954383.79944   1522896.75244  23018848.5484   23018850.1364
    888319.17444    692197.34044  21298781.3114   21298780.9394
    985651.69244    768040.35344  20891823.6364   20891822.7014
  -1319403.81244  -1028106.47544  20603384.6624   20603385.1994
   2946140.190 4   2295692.613 4  24089087.845    24089086.035
  -2215244.35244  -1726163.52344  21911610.8784   21911610.7754
 96  2 24  2  2  0.0000000  0  7G20G 7G 9G12G 5G 4G24
  -2906779.15444  -2265021.54244  24228859.0954   24228858.4324
   2022214.96044   1575752.23244  23031756.8524   23031756.6004
    926783.72944    722169.70244  21306100.6374   21306100.3964
   3050460.235 4   2376980.967 4  24108939.213    24108937.636
  -2289544.10144  -1784059.41044  21897472.2324   21897472.0554
   1027392.71644    800565.83744  20899766.8964   20899765.6924
  -1357270.90944  -1057613.27944  20596178.7874   20596179.1384
 96  2 24  2  2 30.0000000  0  7G20G 7G 9G 4G24G12G 5
  -3003982.07544  -2340764.00644  24210361.5564   24210363.9784
   2090074.21344   1628629.56544  23044669.7844   23044669.4034
    965780.78944    752557.02244  21313521.7184   21313521.7364
   1069671.55544    833510.39744  20907812.0134   20907811.1004
  -1394625.57544  -1086720.79344  20589070.4454   20589070.8304
   3154967.815 4   2458415.431 4  24128826.580    24128824.709
  -2363636.03744  -1841793.36544  21883373.5664   21883373.1294
 96  2 24  2  3  0.0000000  0  7G20G 7G 9G12G 4G24G 5
  -3101148.07444  -2416477.72344  24191870.6714   24191869.3424
   2157978.05344   1681541.65144  23057591.7234   23057591.6354
   1005301.64844    783352.48044  21321041.9144   21321042.2494
   3259663.251 4   2539996.252 4  24148750.066    24148747.575
   1112496.50044    866880.49444  20915961.3504   20915960.5334
  -1431463.78444  -1115425.87444  20582060.1814   20582060.1164
  -2437519.97344  -1899365.24144  21869314.1104   21869313.2594
 96  2 24  2  3 30.0000000  0  7G20G 7G 9G 4G24G12G 5
  -3198267.62344  -2492155.25344  24173389.5614   24173390.0174
   2225970.68844   1734522.95644  23070530.6234   23070529.0714
   1045350.32144    814559.19844  21328663.0254   21328663.1174
   1155880.35844    900686.10444  20924217.0614   20924215.9564
  -1467756.25544  -1143705.71444  20575154.0324   20575154.0394
   3364565.860 4   2621738.498 4  24168712.288    24168710.017
  -2511183.06444  -1956765.02644  21855296.5334   21855296.0504
 96  2 24  2  4  0.0000000  0  7G20G 7G 9G12G 4G24G 5
  -3295370.99944  -2567820.24844  24154910.6624   24154912.7824
   2294041.90044   1787565.45944  23083483.4084   23083482.7064
   1085915.70944    846168.55344  21336382.5904   21336382.4824
   3469661.421 4   2703631.115 4  24188711.572    24188709.258
   1199801.93644    934910.72544  20932574.8844   20932573.6954
  -1503510.64944  -1171566.27544  20568350.1964   20568350.6514
  -2584638.83044  -2014003.26244  21841318.0594   21841317.6724
 96  2 24  2  4 30.0000000  0  7G20G 7G 9G 4G24G12G 5
  -3392439.69944  -2643458.12244  24136438.9074   24136440.4784
   2362204.11944   1840678.88844  23096453.6804   23096454.3474
   1127029.98644    878205.64244  21344206.4124   21344206.0524
   1244269.75944    969560.98744  20941036.8714   20941035.6784
  -1538694.94044  -1198982.59744  20561654.8014   20561655.1694
   3574962.561 4   2785683.923 4  24208749.500    24208747.339
  -2657869.51444  -2071066.10744  21827382.5484   21827382.3494
 96  2 24  2  5  0.0000000  0  7G20G 7G 9G12G 4G24G 5
  -3489481.36844  -2719074.95044  24117971.9194
   2430434.72444   1893845.57744  23109437.3404   23109437.4664
   1168667.34744    910650.33644  21352129.6184   21352129.7374
   3680446.503 4   2867879.179 4  24228822.568    24228820.161
   1289247.75144   1004608.78144  20949595.9814   20949594.6434
  -1573310.77944  -1225955.94644  20555067.6054   20555067.9754
  -2730901.96444  -2127974.49744  21813485.1954   21813485.0584
 96  2 24  2  5 30.0000000  0  7G20G 7G 4G 9G24G12G 5
  -3586480.83244                  24099515.1754
   2498728.38144   1947061.40544  23122433.9854   23122435.3294
   1334711.06444   1040034.75344  20958247.5014   20958246.5654
   1210833.39444    943506.98844  21360153.7594   21360153.6464
  -1607350.71144  -1252480.51944  20548589.8934   20548590.3434
   3786116.799 4   2950219.662 4  24248930.715    24248928.372
  -2803734.56144  -2184727.13744  21799625.4274   21799625.1294
 96  2 24  2  6  0.0000000  0  7G20G 7G 9G12G 4G24G 5
  -3683423.81944  -2870198.80944  24081066.1224
   2567069.46444   2000314.20044  23135438.3844   23135438.9354
   1253552.34044    976794.46844  21368282.8274   21368283.1464
   3891976.386 4   3032707.641 4  24269075.135    24269072.795
   1380663.46044   1075841.81344  20966991.7294   20966991.1894
  -1640805.54944  -1278549.17444  20542223.7384   20542224.2004
  -2876356.59744  -2241315.70444  21785805.7944   21785804.9974
 96  2 24  2  6 30.0000000  0  7G20G 7G 9G 4G24G12G 5
  -3780324.69744  -2945705.96144  24062627.7384
   2635424.86744   2053578.13044  23148445.8614   23148447.2274
   1296795.24344   1010490.21344  21376511.4494   21376511.6384
   1427081.12344   1112011.43044  20975824.5934   20975823.4754
  -1673704.55944  -1304184.72944  20535963.1184   20535963.7134
   3997993.838 4   3115318.641 4  24289249.565    24289247.184
  -2948791.15044  -2297758.19044  21772021.9814   21772021.3664
 96  2 24  2  7  0.0000000  0  7G20G 7G 4G 9G24G12G 5
  -3877216.58144                  24044188.7124
   2703770.23444   2106834.28144  23161452.5114   23161450.1734
   1473937.45544   1148522.87444  20984741.3604   20984740.4904
   1340519.06544   1044560.70244  21384831.4714   21384831.7064
  -1706091.22044  -1329421.05844  20529800.0374   20529800.4804
   4104137.007 4   3198027.608 4  24309447.554    24309445.424
  -3021066.80144  -2354076.85644  21758268.0684   21758268.0074
 96  2 24  2  7 30.0000000  0  7G20G 7G 4G 9G24G12G 5
  -3974100.47744  -3096699.96244  24025753.4734
   2772121.13844   2160094.72544  23174458.6444   23174458.2724
   1521260.52044   1185397.99444  20993746.3094   20993745.0474
   1384734.98944   1079014.65344  21393245.8964   21393246.2444
  -1737973.18944  -1354264.13344  20523733.1544   20523733.6924
   4210411.454 4   3280838.852 4  24329671.399    24329668.857
  -3093162.87944  -2410255.59344  21744548.8444   21744548.2764
 96  2 24  2  8  0.0000000  0  7G20G 7G 4G 9G24G12G 5
  -4070996.30744  -3172203.12744  24007313.8334
   2840477.46044   2213359.40644  23187467.0924   23187466.3984
   1569070.24744   1222652.34044  21002844.4444   21002843.3534
   1429434.49144   1113845.42144  21401751.9654   21401751.8244
  -1769369.67844  -1378728.91044  20517758.4034   20517758.8924
   4316805.252 4   3363743.083 4  24349917.572    24349914.740
  -3165081.19444  -2466295.81244  21730863.3464   21730862.5394
 96  2 24  2  8 30.0000000  0  7G20G 7G 4G 9G24G12G 5
  -4167914.83444                  23988869.9074
   2908859.33244   2266643.96644  23200479.4684   23200474.7654
   1617366.66244   1260285.92044  21012034.8524   21012033.6944
   1474602.27844   1149041.06244  21410347.0524   21410346.9624
  -1800289.20644  -1402822.02744  20511874.6484   20511875.3244
   4423317.244 4   3446739.427 4  24370186.469    24370183.213
  -3236833.60944  -2522206.76844  21717209.2714   21717208.3514
 96  2 24  2  9  0.0000000  0  7G20G 7G 4G 9G24G12G 5
  -4264856.30444                  23970423.2414
   2977272.41344   2319952.86844  23213497.5644   23213498.8904
   1666153.54244   1298301.68144  21021318.6674   21021317.5654
   1520238.74344   1184601.91344  21419031.5334   21419031.5744
  -1830733.18944  -1426544.59744  20506081.6784   20506082.2614
   4529948.895 4   3529829.003 4  24390477.472    24390474.513
  -3308421.08144  -2577989.18644  21703586.3784   21703586.4334
 96  2 24  2  9 30.0000000  0  7G20G 7G 4G 9G24G12G 5
  -4361803.60744                  23951975.2264
   3045722.40044   2373290.50644  23226523.2584   23226523.2934
   1715432.19144   1336700.63644  21030696.1754   21030695.1534
   1566351.34444   1220533.79044  21427806.0754   21427806.5644
  -1860687.63544  -1449885.71044  20500381.4214   20500381.7774
   4636705.060 4   3613015.594 4  24410792.725    24410789.601
  -3379840.02944  -2633640.26944  21689995.9444   21689995.3624
 96  2 24  2 10  0.0000000  0  7G20G 7G 4G 9G24G12G 5
  -4458721.52944  -3474326.49144  23933533.4704
   3114220.67544   2426665.78044  23239558.3664   23239557.8214
   1765196.95444   1375478.38644  21040166.1534   21040165.5264
   1612951.20344   1256845.33144  21436673.9334   21436674.1784
  -1890123.32544  -1472822.59244  20494779.9374   20494780.3424
   4743598.252 4   3696308.974 4  24431133.583    24431131.128
  -3451085.02644  -2689155.83044  21676438.6504   21676437.7204
 96  2 24  2 10 30.0000000  0  7G20G 7G 4G 9G24G12G 5
  -4555602.73544  -3549818.30944  23915097.2374   23915096.7974
   3182745.54744   2480061.77444  23252597.9994   23252597.6004
   1815405.38944   1414601.83644  21049720.3944   21049719.3654
   1660014.68244   1293518.13144  21445630.1584   21445630.1464
  -1919044.78344  -1495358.78744  20489276.5104   20489276.6594
   4850611.520 4   3779695.904 4  24451497.764    24451495.123
  -3522165.26644  -2744543.03544  21662912.6754   21662911.9584
 96  2 24  2 11  0.0000000  0  7G20G 7G 4G 9G24G12G 5
  -4652423.78544  -3625263.23644  23896672.3544   23896669.6644
   3251296.03144   2533477.73544  23265643.3124   23265643.3514
   1866066.65744   1454078.16344  21059361.0684   21059359.6574
   1707543.99544   1330553.95044  21454674.6864   21454674.4224
  -1947433.68544  -1517480.00544  20483874.2374   20483874.6004
   4957750.003 4   3863180.425 4  24471885.420    24471882.902
  -3593058.68444  -2799784.64244  21649421.8424   21649421.4914
 96  2 24  2 11 30.0000000  0  7G20G 7G 4G 9G24G12G 5
  -4749187.64844  -3700663.64244  23878258.1884   23878258.9284
   3319869.21644   2586911.38744  23278691.5294   23278692.0314
   1917166.37644   1493896.13644  21069084.8234   21069083.8964
   1755533.06344   1367948.02444  21463806.6194   21463806.6914
  -1975274.00944  -1539173.74544  20478576.4474   20478576.7054
   5065011.363 4   3946760.685 4  24492296.770    24492294.135
  -3663760.20244  -2854876.71244  21635967.4564   21635967.1354
 96  2 24  2 12  0.0000000  0  7G20G 7G 4G 9G24G12G 5
  -4845916.46144  -3776036.66944  23859851.5114   23859851.9204
   3388452.76244   2640353.08844  23291742.5444   23291741.8014
   1968694.32644   1534047.78944  21078890.6544   21078889.6364
   1803976.47044   1405696.09944  21473024.9414   21473025.2464
  -2002564.59844  -1560439.11444  20473383.1854   20473383.2754
   5172386.457 4   4030429.562 4  24512729.509    24512727.127
  -3734258.16544  -2909810.18044  21622552.3174   21622552.0314
 96  2 24  2 12 30.0000000  0  7G20G 7G 4G 9G24G12G 5
  -4942635.19544  -3851401.92644  23841447.0084   23841448.8234
   3457036.12444   2693794.66144  23304794.1614   23304793.8014
   2020657.99144   1574538.97144  21088778.6854   21088777.3964
   1852878.10344   1443801.23644  21482331.0434   21482330.7854
  -2029310.08344  -1581279.72844  20468293.6574   20468293.8684
   5279873.791 4   4114185.897 4  24533183.589    24533181.084
  -3804541.37844  -2964576.30844  21609178.2124   21609177.6094
 96  2 24  2 13  0.0000000  0  7G20G 7G 4G 9G24G12G 5
  -5039365.40344  -3926776.05844  23823039.3544   23823039.0814
   3525610.00144   2747228.87044  23317843.0204   23317842.5624
   2073062.01944   1615373.29844  21098750.8684   21098749.7004
   1902240.02544   1482265.04144  21491724.3264   21491724.0034
  -2055524.03244  -1601706.15644  20463305.3484   20463305.4324
   5387462.753 4   4198021.457 4  24553657.541    24553654.573
  -3874627.10144  -3019188.54244  21595841.2834   21595840.8924
 96  2 24  2 13 30.0000000  0  7G20G 7G 4G 9G24G12G 5
  -5136087.95644  -4002144.27944  23804633.7884   23804634.1254
   3594187.75044   2800666.09544  23330893.1684   23330891.8834
   2125920.34144   1656561.61444  21108809.5244   21108808.5224
   1952095.19444   1521113.22044  21501211.4774   21501211.1244
  -2081200.23244  -1621713.54544  20458419.3704   20458419.4664
   5495168.733 4   4281948.198 4  24574152.924    24574150.443
  -3944496.05944  -3073631.86644  21582545.4914   21582544.7034
 96  2 24  2 14  0.0000000  0  7G20G 7G 4G 9G24G12G 5
  -5232788.27144  -4077495.19144  23786232.4574   23786231.9284
   3662787.91444   2854120.81444  23343947.5964   23343947.9904
   2179261.07444   1698125.83344  21118959.6704   21118958.2974
   2002465.32844   1560362.66144  21510796.5444   21510796.1704
  -2106346.64644  -1641308.13044  20453634.1344   20453634.3494
   5603006.203 4   4365977.402 4  24594674.105    24594671.241
  -4014122.15144  -3127885.94044  21569296.1474   21569295.7954
 96  2 24  2 14 30.0000000  0  7G20G 7G 4G 9G24G12G 5
  -5329458.92644  -4152822.92844  23767836.6324   23767838.3934
   3731413.21944   2907595.06344  23357005.7444   23357006.2834
   2233082.52344   1740064.63344  21129201.5154   21129200.8684
   2053331.78344   1599998.83544  21520476.3314   21520476.1874
  -2130980.55144  -1660503.37044  20448946.4554   20448946.6384
   5710965.167 4   4450101.266 4  24615217.561    24615215.187
  -4083524.89544  -3181965.98344  21556089.1624   21556088.6434
 96  2 24  2 15  0.0000000  0  7G20G 7G 4G 9G24G12G 5
  -5426073.22144  -4228106.78844  23749451.7574   23749451.2334
   3800089.88744   2961109.32044  23370074.4714   23370075.6814
   2287384.46144   1782377.82844  21139534.9644   21139533.6914
   2104680.64944   1640010.91444  21530247.2944   21530247.6044
  -2155094.22644  -1679293.23244  20444357.6894   20444358.0544
   5819049.140 4   4534322.562 4  24635785.469    24635782.574
  -4152694.40844  -3235864.29344  21542926.6274   21542926.1474
 96  2 24  2 15 30.0000000  0  7G20G 7G 4G 9G24G12G 5
  -5522627.36944  -4303343.75844  23731078.8954   23731079.0594
   3868829.03444   3014672.27344  23383154.5884   23383156.0674
   2342160.74444   1825060.64444  21149958.4764   21149957.5284
   2156496.90444   1680387.16844  21540107.7804   21540108.0814
  -2178685.25944  -1697675.83744  20439868.3764   20439868.6384
   5927256.307 4   4618639.819 4  24656376.491    24656374.089
  -4221614.93744  -3289568.58444  21529811.4524   21529811.1094
 96  2 24  2 16  0.0000000  0  7G20G 7G 4G 9G24G12G 5
  -5619125.51744  -4378537.08744  23712715.3224   23712715.3524
   3937630.03344   3068283.44044  23396247.6054   23396247.0524
   2397392.89144   1868098.68244  21160469.0564   21160467.9584
   2208751.92744   1721105.31444  21550051.8094   21550051.7134
  -2201740.70144  -1715641.08744  20435481.1194   20435481.3784
   6035577.146 4   4703045.671 4  24676989.375    24676986.594
  -4290299.13444  -3343088.72044  21516741.4034   21516740.6254
 96  2 24  2 16 30.0000000  0  6G20G 7G 4G 9G24G 5
  -5715563.20244  -4453683.30544  23694363.6764   23694362.5434
   4006476.48844   3121930.01644  23409349.1654   23409349.5204
   2453049.82444   1911467.72844  21171060.0594   21171058.9564
   2261418.87744   1762144.46844  21560073.9604   21560074.1114
  -2224246.84544  -1733178.30144  20431198.5344   20431198.5634
  -4358773.12444  -3396445.07444  21503710.8674   21503710.4334
 96  2 24  2 17  0.0000000  0  6G20G 7G 4G 9G24G 5
  -5811941.84944  -4528783.52844  23676022.8094   23676023.2414
   4075353.14144   3175600.11644  23422456.4854   23422455.6524
   2509118.32744   1955157.48144  21181729.5794   21181728.5954
   2314508.46544   1803512.95744  21570176.4884   21570176.7324
  -2246196.52144  -1750281.89844  20427021.5304   20427021.6414
  -4427034.43044  -3449635.67844  21490721.3034   21490721.0904
 96  2 24  2 17 30.0000000  0  7G20G 7G 4G 9G24G 6G 5
  -5908253.53944  -4603831.57344  23657695.3304   23657694.7984
   4144262.94644   3229296.06644  23435569.3544   23435569.0544
   2565617.04744   1999182.46644  21192480.7804   21192479.9794
   2368058.37144   1845240.14444  21580366.8204   21580366.9414
  -2267567.67044  -1766934.70144  20422954.5864   20422954.8864
        -0.72054                  25486065.6284
  -4495067.52044  -3502648.45644  21477775.2394   21477774.2274
 96  2 24  2 18  0.0000000  0  6G20G 7G 4G 9G24G 5
  -6004517.38844  -4678842.34644  23639377.1354   23639377.1674
   4213174.25444   3282993.19944  23448682.5764   23448683.1464
   2622525.81644   2043526.97144  21203310.3364   21203309.2444
   2422067.72444   1887325.36544  21590644.5724   21590644.1724
  -2288375.47144  -1783148.54544  20418994.9754   20418995.2264
  -4562892.03844  -3555498.71444  21464868.5064   21464867.8154
 96  2 24  2 18 30.0000000  0  6G20G 7G 4G 9G24G 5
  -6100740.61844  -4753821.44644  23621065.8294   23621066.1054
   4282089.89444   3336693.69344  23461796.7774   23461798.2064
   2679867.34144   2088208.68244  21214221.9984   21214220.8234
   2476556.89544   1929784.44144  21601013.3444   21601012.9214
  -2308632.20944  -1798933.00244  20415140.3904   20415140.2264
  -4630487.22144  -3608170.27544  21452005.6624   21452004.8234
 96  2 24  2 19  0.0000000  0  6G20G 7G 4G 9G24G 5
  -6196909.26344  -4828758.03544  23602765.8884   23602765.9044
   4351022.85744   3390407.68444  23474913.4854   23474914.3864
   2737677.22944   2133255.35644  21225222.9204   21225221.7734
   2531546.03244   1972633.09844  21611477.1944   21611477.4274
  -2328344.72544  -1814293.39644  20411389.1004   20411389.3014
  -4697828.45044  -3660643.94344  21439191.0234   21439190.1094
 96  2 24  2 19 30.0000000  0  6G20G 7G 4G 9G24G 5
  -6293040.34644  -4903665.35244  23584473.1364   23584473.8264
   4419953.42444   3444119.80244  23488030.6464   23488030.8524
   2795931.83544   2178648.55944  21236308.4884   21236307.5974
   2586998.98144   2015843.16444  21622029.7474   21622030.0384
  -2347545.74444  -1829255.22344  20407735.1604   20407735.1794
  -4764929.92144  -3712930.78144  21426422.0914   21426421.4464
 96  2 24  2 20  0.0000000  0  6G20G 7G 4G 9G24G 5
  -6389110.38644  -4978525.08944  23566192.0554   23566191.6564
   4488895.07044   3497840.54544  23501149.8854   23501151.0904
   2854639.82444   2224395.04344  21247480.2504   21247479.1974
   2642901.36144   2059403.45644  21632667.7714   21632667.9034
  -2366229.45144  -1843813.94244  20404179.6614   20404179.8254
  -4831776.45144  -3765018.97444  21413701.5574   21413700.8494
 96  2 24  2 20 30.0000000  0  6G20G 7G 4G 9G24G 5
  -6485095.17044  -5053318.36744  23547924.9814   23547926.8514
   4557873.23344   3551589.73844  23514277.0294   23514277.4384
   2913816.95144   2270507.09644  21258741.2284   21258739.9254
   2699235.46944   2103300.15444  21643387.4494   21643387.2484
  -2384394.17444  -1857968.24144  20400722.9214   20400722.7964
  -4898356.95744  -3816899.88444  21401031.8954   21401031.1214
 96  2 24  2 21  0.0000000  0  6G20G 7G 4G 9G24G 5
  -6580969.00644  -5128025.21244  23529682.2024   23529682.0454
   4626892.74744   3605371.17144  23527410.7354   23527411.2724
   2973442.26944   2316968.38844  21270087.4074   21270086.2254
   2755990.55244   2147524.88044  21654188.1494   21654188.2924
  -2402030.57244  -1871710.86244  20397367.1544   20397367.0324
  -4964676.09244  -3868577.12644  21388411.3704   21388410.8414
 96  2 24  2 21 30.0000000  0  6G20G 7G 4G 9G24G 5
  -6676735.31244  -5202648.26544  23511458.8464   23511457.5634
   4695967.94144   3659196.00644  23540555.0434   23540556.3664
   3033501.21144   2363767.56644  21281516.3374   21281515.3174
   2813170.70044   2192080.80244  21665068.9854   21665069.1854
  -2419123.49644  -1885030.00544  20394114.2524   20394114.2854
  -5030723.82644  -3920042.87644  21375843.0284   21375842.2734
 96  2 24  2 22  0.0000000  0  6G20G 7G 4G 9G24G 5
  -6772402.57644  -5277194.18544  23493253.9064   23493254.0864
   4765100.97744   3713065.87644  23553710.1234   23553710.9054
   3093986.24144   2410898.75544  21293026.0874   21293025.0224
   2870773.14944   2236965.80444  21676030.3554   21676030.5954
  -2435687.43244  -1897936.94444  20390962.3944   20390962.2604
  -5096514.04144  -3971307.96344  21363323.5474   21363322.9514
 96  2 24  2 22 30.0000000  0  7G20G 7G 4G 9G24G 6G 5
  -6867978.76244  -5351669.07944  23475065.7484   23475066.9714
   4834292.14644   3766981.06744  23566876.5974   23566877.3364
   3154891.48544   2458357.39544  21304616.0884   21304615.0014
   2928809.66744   2282189.07744  21687074.4084   21687074.5444
  -2451721.03644  -1910430.63244  20387911.2924   20387911.1804
        -0.57254                  25346513.1244
  -5162046.75444  -4022372.39444  21350853.0834   21350852.5824
 96  2 24  2 23  0.0000000  0  7G20G 7G 4G 9G24G 6G 5
  -6963490.86844  -5426094.06644  23456890.7554   23456890.3824
   4903514.18144   3820920.29244  23580049.8794   23580049.1844
   3216189.41844   2506122.02644  21316280.7814   21316279.6244
   2987290.07244   2327758.22944  21698202.1394   21698202.0594
  -2467231.15144  -1922516.40244  20384959.7324   20384959.6644
    -73031.95644                  25332616.4724
  -5227335.30444  -4073246.58844  21338429.0654   21338428.4194
 96  2 24  2 23 30.0000000  0  7G20G 7G 4G 9G24G 6G 5
  -7058953.57944  -5500480.58344  23438724.5254   23438724.3934
   4972768.28844   3874884.52144  23593228.1564   23593227.5704
   3277891.14844   2554201.29944  21328022.0804   21328020.8984
   3046226.91644   2373683.03344  21709417.9564   21709417.9094
  -2482220.01244  -1934195.99544  20382107.3734   20382107.4004
   -146011.92244                  25318726.8714
  -5292378.08444  -4123929.27244  21326051.9074   21326051.3074
 96  2 24  2 24  0.0000000  0  8G20G 7G 4G 9G16G24G 6G 5
  -7154376.50244  -5574836.11844  23420564.8564   23420565.4594
   5042036.48144   3928859.72044  23606410.2414   23606410.1194
   3339981.78644   2602583.62144  21339837.5764   21339836.2864
   3105604.87544   2419951.54744  21720717.1924   21720717.2374
        -0.99454                  24647067.9484
  -2496694.45944  -1945474.76744  20379353.0314   20379352.9434
   -218952.86144                  25304844.9574
  -5357189.62044  -4174431.76244  21313718.7364   21313718.1174
 96  2 24  2 24 30.0000000  0  7G20G 7G 4G 9G16G24G 5
  -7249766.74844  -5649166.14344  23402412.9734   23402413.8184
   5111309.32544   3982838.56244  23619592.5524   23619591.0194
   3402452.53344   2651262.13244  21351725.8014   21351724.3774
   3165422.09444   2466562.33444  21732100.1094   21732100.0734
    -92471.92744                  24629470.7854
  -2510638.87044  -1956340.52544  20376699.3884   20376699.6614
  -5421773.46844  -4224756.83044  21301429.0514   21301428.2374
 96  2 24  2 25  0.0000000  0  6G20G 7G 4G 9G24G 5
  -7345127.74444  -5723473.39544  23384267.1504   23384266.7114
   5180572.11744   4036809.56144  23632772.2284   23632772.7604
   3465284.50744   2700222.11644  21363681.8294   21363680.8564
   3225667.85544   2513507.09544  21743564.4294   21743564.1464
  -2524067.70244  -1966804.52944  20374143.9974   20374143.9604
  -5486138.87744  -4274911.69644  21289180.9624   21289179.9754
 96  2 24  2 25 30.0000000  0  6G20G 7G 4G 9G24G 5
  -7440454.09344  -5797753.62944  23366126.8474   23366126.2744
   5249827.08744   4090774.43844  23645951.4934   23645952.0904
   3528477.61344   2749463.50444  21375706.7884   21375706.0364
   3286325.33944   2560772.70444  21755107.5214   21755107.1754
  -2536987.68844  -1976872.02344  20371685.4554   20371685.4884
  -5550277.40444  -4324889.75344  21276975.0754   21276974.6874
 96  2 24  2 26  0.0000000  0  6G20G 7G 4G 9G24G 5
  -7535723.90244  -5871989.84344  23347997.8304   23347997.4744
   5319087.60644   4144743.65244  23659130.5124   23659131.2734
   3592038.34244   2798991.35544  21387802.1024   21387800.8034
   3347388.32544   2608354.24044  21766726.9804   21766727.3674
  -2549389.76644  -1986535.95444  20369325.4264   20369325.3044
  -5614165.10044  -4374672.35444  21264817.7874   21264817.2824
 96  2 24  2 26 30.0000000  0  6G20G 7G 4G 9G24G 5
  -7630905.49444  -5946157.31944  23329885.1204   23329885.5714
   5388380.06644   4198737.73344  23672316.5724   23672317.2594
   3656010.33044   2848839.66744  21399975.9604   21399974.6744
   3408874.19344   2656265.27744  21778427.6374   21778427.6424
  -2561260.02344  -1995785.48844  20367066.6024   20367066.5294
  -5677770.73744  -4424235.16444  21252714.4764   21252713.7544
 96  2 24  2 27  0.0000000  0  7G20G 7G 4G 9G24G 6G 5
  -7725987.14944  -6020246.91144  23311792.8344   23311793.3334
   5457708.75744   4252760.07644  23685509.0734   23685506.8104
   3720402.08844   2899015.07344  21412229.3704   21412228.3224
   3470775.30844   2704499.90344  21790207.0264   21790207.1104
  -2572608.36744  -2004628.33744  20364906.9404   20364906.7614
        -0.51454                  25221726.2704
  -5741077.84044  -4473565.37244  21240666.9144   21240666.4394
 96  2 24  2 27 30.0000000  0  7G20G 7G 4G 9G24G 6G 5
  -7821002.08644  -6094284.49644  23293711.2744   23293713.1864
   5527040.98044   4306785.21244  23698702.4924   23698702.2014
   3785185.49844   2949495.66244  21424557.1564   21424556.0664
   3533036.12844   2753014.83544  21802054.6554   21802055.2024
  -2583471.03044  -2013092.73844  20362839.8684   20362839.8694
    -72680.01844                  25207895.6684
  -5804128.73344  -4522695.95144  21228668.9034   21228668.3974
 96  2 24  2 28  0.0000000  0  7G20G 7G 4G 9G24G 6G 5
  -7915922.94244  -6168248.77144  23275648.5134   23275649.1424
   5596392.59844   4360825.39044  23711900.7374   23711900.1874
   3850387.02944   3000302.05644  21436964.1774   21436963.1304
   3595664.45144   2801816.12044  21813972.4444   21813972.7704
  -2593812.78344  -2021151.23144  20360871.8884   20360871.7414
   -145324.66144                  25194069.5104
  -5866911.65044  -4571617.69444  21216721.7094   21216721.0034
 96  2 24  2 28 30.0000000  0  6G20G 7G 4G 9G24G 5
  -8010739.61144  -6242131.89944  23257605.7994   23257605.1674
   5665772.43344   4414887.58644  23725102.2904   23725103.6724
   3916011.94544   3051438.36144  21449452.3444   21449451.0704
   3658677.21244   2850916.97244  21825963.6634   21825963.8514
  -2603611.24144  -2028786.38344  20359007.1444   20359007.1474
  -5929414.48244  -4620321.17844  21204827.9644   21204827.2444
 96  2 24  2 29  0.0000000  0  6G20G 7G 4G 9G24G 5
  -8105448.30344  -6315930.87144  23239582.8334   23239582.4304
   5735176.44844   4468968.64044  23738310.5904   23738308.7044
   3982026.59144   3102878.35544  21462014.6724   21462013.1894
   3722075.96544   2900318.62444  21838027.8234   21838028.1334
  -2612872.08144  -2036002.60844  20357244.9764   20357244.7224
  -5991648.21944  -4668814.98544  21192985.1764   21192984.5874
 96  2 24  2 29 30.0000000  0  7G20G 7G 4G 9G24G 6G 5
  -8200039.66744  -6389638.39344  23221582.6004   23221583.4784
   5804611.95144   4523074.19544  23751523.2794   23751521.8714
   4048438.14644   3154627.62344  21474652.2504   21474651.1274
   3785868.42244   2950027.05744  21850167.2494   21850167.5524
  -2621568.11444  -2042778.72344  20355590.1794   20355590.0934
        -0.27654                  25152662.9554
  -6053606.00344  -4717093.77644  21181194.7154   21181194.2954
 96  2 24  2 30  0.0000000  0  7G20G 7G 4G 9G24G 6G 5
  -8294504.72244  -6463247.48244  23203606.6904   23203606.2794
   5874099.75544   4577220.48944  23764746.1934   23764746.5514
   4115254.75244   3206692.51944  21487367.0224   21487365.8924
   3850083.19544   3000064.51844  21862387.0204   21862386.9864
  -2629688.42044  -2049106.20944  20354044.9774   20354045.1934
    -72381.20444                  25138888.1714
  -6115263.06644  -4765138.23144  21169462.0654   21169461.2004
 96  2 24  2 30 30.0000000  0  7G20G 7G 4G 9G24G 6G 5
  -8388862.24444  -6536772.83244  23185651.0004   23185649.8664
   5943623.29444   4631394.65244  23777976.2814   23777976.3704
   4182440.91844   3259045.37644  21500152.3494   21500151.2464
   3914718.41544   3050429.59344  21874686.7294   21874686.5574
  -2637277.26844  -2055019.57744  20352600.9354   20352600.5904
   -144701.32144                  25125124.2044
  -6176640.22944  -4812964.57844  21157782.4234   21157781.5214
 96  2 24  2 31  0.0000000  0  7G20G 7G 4G 9G24G 6G 5
  -8483103.52244  -6610207.57644  23167717.1454   23167716.6964
   6013175.47244   4685591.08544  23791211.4394   23791209.9444
   4250000.11044   3311688.90744  21513008.1934   21513006.8484
   3979764.81044   3101115.08144  21887064.8444   21887064.3394
  -2644338.32244  -2060521.68444  20351257.1644   20351257.2984
   -216965.85644                  25111372.1244
  -6237741.61244  -4860576.03544  21146155.2794   21146154.5654
 96  2 24  2 31 30.0000000  0  8G20G 7G 4G 9G16G24G 6G 5
  -8577242.38344  -6683562.49244  23149803.0824   23149803.4584
   6082751.70744   4739806.35144  23804451.3504   23804453.5344
   4317934.94144   3364625.14344  21525935.5884   21525934.4894
   4045211.06644   3152112.16244  21899517.9644   21899518.3744
        -1.08454                  24381378.6664
  -2650869.25744  -2065610.70944  20350014.3884   20350014.2014
   -289189.35044                  25097629.4894
  -6298552.78044  -4907961.35744  21134583.0254   21134582.4064
 96  2 24  2 32  0.0000000  0  7G20G 7G 4G 9G16G24G 5
  -8671279.56244  -6756838.16244  23131908.5484   23131908.9874
   6152339.46844                  23817692.6254
   4386223.53444   3417837.03644  21538930.7704   21538929.2164
   4111060.20344   3203423.16444  21912048.6184   21912049.3774
    -93574.81544                  24363573.0364
  -2656895.05444  -2070306.13044  20348867.7964   20348867.7914
  -6359071.86944  -4955119.08144  21123066.8104   21123065.9974
 96  2 24  2 32 30.0000000  0  7G20G 7G 4G 9G16G24G 5
  -8765211.66644  -6830032.00044  23114034.6324   23114033.8084
   6221927.06944   4848254.68844  23830935.9584   23830932.7814
   4454858.05144   3471318.48444  21551991.1534   21551990.0374
   4177304.68744   3255042.23744  21924655.2284   21924655.5434
   -186971.52944                  24345760.7924
  -2662413.68644  -2074606.35444  20347817.6404   20347817.1754
  -6419290.65944  -5002042.80844  21111607.5034   21111606.6704
 96  2 24  2 33  0.0000000  0  7G20G 7G 4G 9G16G24G 5
  -8859046.76844  -6903150.23244  23096177.9264   23096177.7314
   6291510.35244   4902475.48344  23844176.6484   23844177.2314
   4523846.88344   3525076.01944  21565119.4614   21565118.3874
   4243928.13944   3306956.63344  21937332.8554   21937332.8754
   -279816.78644                  24327955.9814
  -2667410.65444  -2078500.08444  20346866.4924   20346866.5424
  -6479196.30144  -5048722.52144  21100207.7934   21100207.0204
 96  2 24  2 33 30.0000000  0  6G20G 7G 4G 9G24G 5
  -8952813.18444  -6976214.94744  23078335.2244   23078334.1004
   6361077.97644   4956684.78344  23857415.5984   23857413.9344
   4593167.10044   3579091.77444  21578310.8154   21578309.0544
   4310927.34844   3359163.81444  21950082.6234   21950083.0524
  -2671903.97944  -2082001.35844  20346011.4064   20346011.3864
  -6538794.80044  -5095162.89844  21088866.6864   21088866.0784
 96  2 24  2 34  0.0000000  0  8G20G 7G 4G 9G16G24G 6G 5
  -9046467.12744  -7049192.00244  23060512.5654   23060513.3324
   6430667.19544   5010908.04144  23870657.5014
   4662865.97644   3633402.59344  21591574.0214   21591572.7804
   4378337.61344   3411691.28444  21962910.2874   21962910.6434
        -1.20654        -2.00954  24292308.6384
  -2675862.39944  -2085085.83044  20345258.3574   20345258.1524
         0.16754                  25029025.4524
  -6598061.93544  -5141345.08044  21077588.2324   21077587.8444
 96  2 24  2 34 30.0000000  0  8G20G 7G 4G 9G16G24G 6G 5
  -9139974.28644  -7122054.69744  23042718.4984   23042718.4274
   6500324.64744   5065186.72144  23883913.3144   23883913.9434
   4732989.93644   3688044.63944  21604918.2314   21604916.9814
   4446172.72044   3464549.78944  21975818.7664   21975818.3144
    -93671.58444    -72991.83344  24274484.3594
  -2679245.80744  -2087722.23244  20344614.2454   20344614.3354
    -71839.75144                  25015355.6754
  -6656979.28244  -5187254.70144  21066376.9194   21066376.0714
 96  2 24  2 35  0.0000000  0  8G20G 7G 4G 9G16G24G 6G 5
  -9233345.80544  -7194811.69444  23024950.8884   23024950.0574
   6570032.05644   5119504.18144  23897178.0974   23897179.8234
   4803517.50844   3743001.19144  21618339.1604   21618338.1064
   4514402.06644   3517715.48144  21988801.7294   21988802.3524
   -187371.12144   -146004.45444  24256653.4214
  -2682075.63844  -2089927.28244  20344075.7354   20344075.7284
   -143594.22044                  25001703.7354
  -6715588.75244  -5232924.41844  21055223.8504   21055223.0994
 96  2 24  2 35 30.0000000  0  8G20G 7G 4G 9G16G24G 6G 5
  -9326603.84244  -7267480.27544  23007204.2694   23007205.1424
   6639758.28044   5173836.29544  23910446.2904   23910446.6344
   4874389.68444   3798226.27244  21631825.3674   21631824.4704
   4582981.03544   3571153.59944  22001851.9174   22001852.3154
   -281121.87644   -219056.94744  24238813.7614   24238815.7814
  -2684408.94044  -2091745.42644  20343631.8464   20343631.8254
   -215323.81044   -167783.70744  24988055.1644
  -6773939.43644  -5278392.47444  21044120.3084   21044119.6064
 96  2 24  2 36  0.0000000  0  8G20G 7G 4G 9G16G24G 6G 5
  -9419706.36144  -7340027.64244  22989487.1384   22989488.3484
   6709528.13244   5228202.44044  23923722.5864   23923722.1964
   4945626.05044   3853735.13744  21645381.3604   21645380.2594
   4651904.75844   3624860.39244  22014968.6134   22014968.7314
   -374908.15044   -292137.13644  24220965.6754   24220966.7194
  -2686240.22144  -2093172.37744  20343283.1384   20343283.1154
   -287020.16944   -223651.16444  24974412.2344
  -6832027.10944  -5323655.58844  21033066.3384   21033065.8474
 96  2 24  2 36 30.0000000  0  8G20G 7G 4G 9G16G24G 6G 5
  -9512666.22744  -7412463.88244  22971797.4854   22971797.1274
   6779324.00444                  23937004.6174
   5017186.07644   3909496.20744  21658998.7974   21658997.3884
   4721152.01544   3678819.29044  22028146.2234   22028146.1694
   -468748.43844   -365259.42944  24203108.8104   24203110.3474
  -2687580.73944  -2094216.90944  20343028.3634   20343028.3014
   -358707.34344                  24960767.9164
  -6889861.45544  -5368721.29044  21022061.1864   21022060.5724
 96  2 24  2 37  0.0000000  0  7G20G 7G 4G 9G16G24G 5
  -9605490.02044  -7484794.09344  22954134.4794   22954132.7364
   6849149.55344   5336999.99644  23950292.4574   23950293.0984
   5089054.05144   3965497.23044  21672674.6714   21672673.7844
   4790731.17244   3733036.81744  22041386.0244   22041386.4314
   -562632.17044   -438415.55044  24185243.5554   24185246.6324
  -2688434.03844  -2094881.79244  20342865.9104   20342865.5624
  -6947424.53544  -5413575.61444  21011107.0504   21011106.1284
 96  2 24  2 37 30.0000000  0  7G20G 7G 4G 9G16G24G 5
  -9698207.33144  -7557041.31044  22936490.4054   22936490.1024
   6918994.49444   5391423.87044  23963583.4714   23963584.3994
   5161213.45344   4021725.33944  21686406.4534   21686405.8874
   4860638.40444   3787509.98444  22054689.1414   22054689.6414
   -656572.20344   -511615.56344  24167367.2714   24167367.9604
  -2688812.82144  -2095176.93544  20342793.9254   20342793.9154
  -7004705.18644  -5458209.89644  21000206.6864   21000206.1134
 96  2 24  2 38  0.0000000  0  7G20G 7G 4G 9G16G24G 5
  -9790810.57244  -7629199.65944  22918869.1914   22918869.5084
   6988874.60244   5445875.87944  23976881.0744   23976878.7284
   5233705.66344   4078212.78244  21700201.2034   21700200.1994
   4930913.24444   3842269.60844  22068062.4434   22068062.2234
   -750548.63544   -584843.90844  24149483.8864   24149484.7954
  -2688670.02944  -2095065.65844  20342821.0854   20342821.0454
  -7061661.38744  -5502591.34744  20989368.4354   20989368.0834
 96  2 24  2 38 30.0000000  0  7G20G 7G 4G 9G16G24G 5
  -9883328.74544  -7701291.70044  22901262.7314   22901262.8374
   7058778.75244   5500346.65044  23990183.9734   23990181.4914
   5306517.57244   4134949.33644  21714057.0574   21714056.2064
   5001558.95644   3897318.21844  22081505.9774   22081505.9324
   -844558.11644   -658098.02644  24131595.3334   24131597.3804
  -2687994.89144  -2094539.55444  20342949.2664   20342949.0714
  -7118281.12544  -5546710.60844  20978594.1464   20978592.9864
 96  2 24  2 39  0.0000000  0  8G20G 7G 4G 9G16G24G 6G 5
  -9975761.13444  -7773316.91844  22883673.3804   22883673.9044
   7128707.72444   5554836.73244  24003490.4894   24003489.9714
   5379661.30244   4191944.45844  21727975.8514   21727974.6144
   5072570.58744   3952651.98844  22095018.6144   22095019.1894
   -938593.09544   -731372.00844  24113700.8964   24113702.3274
  -2686795.56844  -2093604.99844  20343177.7464   20343177.4904
        -0.95654                  24892636.6274
  -7174564.41344  -5590567.70144  20967883.5384   20967882.7364
 96  2 24  2 39 30.0000000  0  8G20G 7G 4G 9G16G24G 6G 5
 -10068083.74344  -7845256.58844  22866104.1594   22866105.3304
   7198650.43144   5609337.52644  24016800.4154   24016801.7124
   5453151.89344   4249209.86044  21741960.2724   21741959.3714
   5143955.01744   4008276.19744  22108602.2284   22108602.6414
  -1032643.16944   -804657.74544  24095803.9904   24095804.5314
  -2685059.71544  -2092252.37644  20343507.8694   20343507.8504
    -71484.97644    -55701.89344  24879032.7254
  -7230494.08544  -5634149.25744  20957240.8214   20957240.1904
 96  2 24  2 40  0.0000000  0  8G20G 7G 4G 9G16G24G 6G 5
 -10160291.45444  -7917106.72844  22848558.5094   22848558.8534
   7268590.25544   5663836.04044  24030109.4424   24030110.0334
   5526983.78344   4306741.20844  21756009.7294   21756008.6524
   5215684.87244   4064169.55944  22122251.8004   22122252.3154
  -1126718.92144   -877963.49644  24077901.5384   24077901.9634
  -2682798.68644  -2090490.52944  20343938.2174   20343938.0924
   -142927.89444   -111371.71744  24865437.7524
  -7286088.58444  -5677469.63244  20946661.1154   20946660.3304
 96  2 24  2 40 30.0000000  0  8G20G 7G 4G 9G16G24G 6G 5
 -10252350.34944  -7988840.88244  22831039.9064   22831040.7584
   7338544.00144   5718345.48844  24043420.6114   24043419.9234
   5601151.87544   4364534.53644  21770123.8444   21770122.3204
   5287744.49944   4120319.89144  22135965.0874   22135964.8474
  -1220794.20844   -951268.88344  24059999.2964   24060002.4014
  -2680019.73944  -2088325.09944  20344466.9064   20344466.5584
   -214322.95944   -167004.02144  24851854.5094
  -7341344.84244  -5720526.42844  20936146.3014   20936145.8324
 96  2 24  2 41  0.0000000  0  8G20G 7G 4G 9G16G24G 6G 5
 -10344230.26244  -8060435.58744  22813556.2304   22813556.0774
   7408519.22944   5772871.59444  24056737.0514   24056736.8684
   5675669.44244   4422600.17744  21784304.1744   21784302.5604
   5360137.74344   4176730.19044  22149741.1694   22149740.8324
  -1314850.63944  -1024559.58044  24042100.1584   24042104.3314
  -2676733.68144  -2085764.51344  20345092.3804   20345092.2654
   -285658.39444   -222590.05144  24838277.5314   24838278.0944
  -7396255.96144  -5763314.29744  20925697.0244   20925696.2094
 96  2 24  2 41 30.0000000  0  8G20G 7G 4G 9G16G24G 6G 5
 -10435935.50244  -8131894.17344  22796105.6874   22796105.3674
   7478505.47944   5827406.30744  24070053.5774   24070053.9214
   5750533.89344   4480936.11144  21798550.3114   21798549.1174
   5432863.71344   4233399.73144  22163580.8204   22163580.9084
  -1408881.11944  -1097830.03744  24024207.0964   24024209.4274
  -2672942.40344  -2082810.25344  20345813.7644   20345813.7634
   -356917.25344   -278116.46144  24824716.8974   24824713.1564
  -7450819.52444  -5805831.34844  20915314.0064   20915313.1304
 96  2 24  2 42  0.0000000  0  8G20G 7G 4G 9G16G24G 6G 5
 -10527459.26344  -8203211.35144  22778689.1594   22778688.8324
   7548525.51844   5881967.35544  24083379.6484   24083378.9704
   5825739.40844   4539537.81844  21812861.5344   21812860.4674
   5505910.67844   4290319.38444  22177480.5264   22177480.4124
  -1502867.33444  -1171066.01144  24006322.1144   24006321.7724
  -2668657.80844  -2079471.59844  20346629.0104   20346628.7804
   -428107.28744   -333589.24744  24811168.9644
  -7505044.49644  -5848084.54944  20904995.3064   20904994.6694
 96  2 24  2 42 30.0000000  0  8G20G 7G 4G 9G16G24G 6G 5
 -10618802.98344  -8274388.24744  22761306.8574   22761307.3884
   7618580.40844   5936555.53044  24096711.4364   24096711.7144
   5901270.40444   4598393.14444  21827234.2294   21827233.6844
   5579280.51644   4347490.65944  22191441.9034   22191442.2794
  -1596795.48544  -1244256.75444  23988448.6994   23988454.8254
  -2663893.24544  -2075758.93644  20347535.8384   20347535.4984
   -499246.93244                  24797629.9324
  -7558933.82944  -5890076.23344  20894740.5364   20894739.6774
 96  2 24  2 43  0.0000000  0  8G20G 7G 4G 9G16G24G 6G 5
 -10709971.08344  -8345428.27844  22743958.5414   22743958.0674
   7688672.18444   5991172.43744  24110048.0514   24110048.6464
   5977139.75044   4657512.11544  21841671.9304   21841670.8574
   5652998.48344   4404933.21944  22205469.5844   22205470.6494
  -1690670.02644  -1317405.70144  23970584.7814   23970586.2274
  -2658633.66044  -2071660.54744  20348536.7214   20348536.4754
   -570325.32544   -444408.32544  24784104.9894   24784106.1564
  -7612476.38344  -5931797.69944  20884551.5684   20884551.1714
 96  2 24  2 43 30.0000000  0  8G20G 7G 4G 9G16G24G 6G 5
 -10800996.46744  -8416357.11444  22726636.3304   22726635.8824
   7758774.39344   6045797.47644  24123387.6094   24123389.8304
   6053314.88944   4716869.37744  21856167.6074   21856166.4554
   5727031.55744   4462621.32744  22219558.1884   22219558.5854
  -1784525.23944  -1390539.62544  23952724.4364   23952725.7844
  -2652889.69144  -2067184.72244  20349629.6064   20349629.3254
   -641376.68744   -499773.02044  24770585.7684   24770582.7894
  -7665687.28144  -5973260.71644  20874426.0384   20874425.0804
 96  2 24  2 44  0.0000000  0  8G20G 7G 4G 9G16G24G 6G 5
 -10891882.18344  -8487177.12244  22709341.4564   22709340.8794
   7828892.04544   6100434.54744  24136731.8924   24136732.4164
   6129772.72244   4776446.90644  21870717.2824   21870715.8144
   5801363.73444   4520542.47144  22233703.5034   22233703.8774
  -1878385.28544  -1463677.29844  23934863.6844   23934865.4864
  -2646666.29444  -2062335.29944  20350813.8384   20350813.6054
   -712435.44344   -555143.48144  24757062.2684   24757063.1494
  -7718579.80544  -6014475.66344  20864360.7734   20864359.8014
 96  2 24  2 44 30.0000000  0  8G20G 7G 4G 9G16G24G 6G 5
 -10982623.47844  -8557884.58144  22692073.5094   22692073.6874
   7899035.60044   6155091.86744  24150079.2924   24150079.5094
   6206535.16844   4836261.80644  21885324.7424   21885323.7374
   5876021.35144   4578717.19044  22247910.6814   22247910.6544
  -1972243.09744  -1536813.19644  23917003.1494   23917005.3814
  -2639926.60844  -2057083.57844  20352096.3944   20352096.1884
   -783472.80444   -610497.18144  24743543.4054
  -7771137.76444  -6055429.92844  20854359.3394   20854358.6744
 96  2 24  2 45  0.0000000  0  8G20G 7G 4G 9G16G24G 6G 5
 -11073213.47744  -8628474.14044  22674835.1844   22674834.9774
   7969212.73244   6209775.31544  24163433.9604   24163431.6504
   6283613.40044   4896322.77144  21899991.8864   21899990.3354
   5951012.13644   4637151.52844  22262181.1244   22262181.1844
  -2066108.25844  -1609954.87644  23899141.6154   23899142.7344
  -2632649.59044  -2051413.15844  20353481.0104   20353480.6984
   -854466.37944                  24730033.9514
  -7823338.02944  -6096105.47144  20844425.9944   20844425.2924
 96  2 24  2 45 30.0000000  0  8G20G 7G 4G 9G16G24G 6G 5
 -11163660.42244  -8698952.24844  22657623.5714   22657622.9304
   8039411.43044   6264475.60344  24176791.7174   24176791.1624
   6360974.42544   4956604.09444  21914713.2794   21914711.4964
   6026301.40644   4695818.48044  22276507.8434   22276508.2314
  -2159992.89444  -1683111.69544  23881275.4264   23881276.6654
  -2624853.22044  -2045338.04344  20354964.5864   20354964.3614
   -925437.14244   -721118.71544  24716529.8814   24716531.0204
  -7875200.37544  -6136517.68644  20834556.8734   20834556.3874
 96  2 24  2 46  0.0000000  0  8G20G 7G 4G 9G16G24G 6G 5
 -11253955.25444  -8769311.81244  22640441.0964   22640441.8834
   8109633.55844   6319194.15144  24190155.3264   24190156.0314
   6438605.66544   5017095.97944  21929485.8644   21929484.5154
   6101888.36044   4754717.39444  22290891.6794   22290891.2724
  -2253887.08944  -1756275.95644  23863407.9504   23863408.5454
  -2616547.84844  -2038866.30544  20356545.0534   20356544.7774
   -996369.33544   -776390.52344  24703032.7164   24703035.1724
  -7926744.92944  -6176682.25844  20824748.6234   20824747.6584
 96  2 24  2 46 30.0000000  0  8G20G 7G 4G 9G16G24G 6G 5
 -11344077.46144  -8839536.84844  22623290.4464   22623290.8374
   8179888.95844   6373938.58644  24203524.2354   24203522.6114
   6516518.45544   5077807.24444  21944312.4154   21944311.3234
   6177791.22644   4813862.48844  22305334.9274   22305334.5274
  -2347755.49544  -1829420.10744  23845545.6074   23845547.5124
  -2607732.74344  -2031997.37444  20358222.7504   20358222.5224
  -1067224.31044   -831602.19144  24689549.7444   24689551.5724
  -7977946.29844  -6216579.43844  20815005.0464   20815003.9274
 96  2 24  2 47  0.0000000  0  8G20G 7G 4G 9G16G24G 6G 5
 -11433997.67344  -8909604.52644  22606180.3504   22606180.0934
   8250193.91944   6428721.61444  24216901.8464   24216902.1654
   6594715.56344   5138740.05644  21959193.0674   21959191.7214
   6254021.91744   4873262.96844  22319840.5744   22319842.1424
  -2441576.31444  -1902527.21544  23827692.1784   23827694.5464
  -2598403.93344  -2024728.14944  20359997.8564   20359997.6664
  -1137993.34144   -886746.77844  24676081.9904   24676081.9614
  -8028778.57944  -6256189.01844  20805331.9754   20805331.2414
 96  2 24  2 47 30.0000000  0  8G20G 7G 4G 9G16G24G 6G 5
 -11523727.79344  -8979524.08644  22589105.6704   22589105.1714
   8320540.71944   6483537.24044  24230288.4344   24230289.7664
   6673181.97044   5199882.71644  21974124.3664   21974123.2644
   6330557.21344   4932900.75444  22334405.3834   22334406.2214
  -2535339.02244  -1975589.03344  23809849.7624   23809850.2394
  -2588590.30944  -2017081.14944  20361865.2384   20361865.0614
  -1208704.57244                  24662626.5054
  -8079273.12744  -6295535.42444  20795723.2834   20795722.5664
 96  2 24  2 48  0.0000000  0  8G20G 7G 4G 9G16G24G 6G 5
 -11613259.63844  -9049289.14944  22572068.1904   22572068.0904
   8390943.33344   6538396.33644  24243685.1594   24243687.5964
   6751947.44344   5261258.41144  21989112.6794   21989111.4004
   6407421.15444   4992794.68844  22349032.9694   22349033.2284
  -2629017.00144  -2048584.79744  23792022.7564   23792025.8174
  -2578281.18944  -2009048.06844  20363827.0204   20363826.9324
  -1279349.09444                  24649183.4484
  -8129411.85844  -6334604.55444  20786182.3874   20786181.3444
 96  2 24  2 48 30.0000000  0  8G20G 7G 4G 9G16G24G 6G 5
 -11702603.44744  -9118907.67644  22555066.2044   22555066.1284
   8461386.73944   6593287.22544  24257091.0574   24257088.7334
   6831015.57844   5322869.94744  22004159.3954   22004157.9414
   6484614.21644   5052945.13044  22363722.4514   22363722.1054
  -2722616.65744  -2121519.58544  23774211.9864   23774213.5464
  -2567480.80344  -2000632.18744  20365882.1254   20365882.2424
  -1349953.15344  -1051910.22744  24635746.5624   24635744.0784
  -8179178.31044  -6373383.60844  20776711.8134   20776711.1924
 96  2 24  2 49  0.0000000  0  8G20G 7G 4G 9G16G24G 6G 5
 -11791821.01244  -9188427.82944  22538088.2974   22538088.9434
   8531807.54344   6648160.56444  24270493.0534   24270492.8604
   6910341.25744   5384682.16944  22019254.7974   22019253.0674
   6562076.29844   5113305.19644  22378462.6624   22378462.3814
  -2816201.01644  -2194442.41744  23756403.5504   23756405.2044
  -2556231.95744  -1991866.84644  20368022.7824   20368022.7364
  -1420582.31944  -1106945.89844  24622306.9854   24622306.4044
  -8228621.13344  -6411910.45144  20767303.2844   20767302.6524
 96  2 24  2 49 30.0000000  0  8G20G 7G 4G 9G16G24G 6G 5
 -11880916.30544  -9257852.70344  22521133.6604   22521133.3574
   8602195.83844   6703008.56344  24283886.9684
   6989932.64644   5446701.43544  22034400.4214   22034398.6864
   6639803.93144   5173872.15344  22393253.3614   22393253.4254
  -2909768.24044  -2267351.93944  23738597.8974   23738600.7054
  -2544537.47644  -1982754.25344  20370248.1634   20370248.1254
  -1491236.25444  -1162000.89844  24608862.0284   24608860.8594
  -8277733.83144  -6450180.07944  20757957.1954   20757956.3284
 96  2 24  2 50  0.0000000  0  8G20G 7G 4G 9G16G24G 6G 5
 -11969836.77344  -9327141.34944  22504213.5594   22504213.1004
   8672584.96744   6757857.22644  24297281.0974   24297280.5064
   7069822.36944   5508953.16444  22049602.6414   22049601.1524
   6717845.23844   5234683.51244  22408104.4894   22408104.9714
  -3003282.17044  -2340219.92044  23720802.3604   23720804.1394
  -2532346.10644  -1973254.46944  20372567.9654   20372567.7444
  -1561860.76344  -1217032.94244  24595421.7344   24595425.3124
  -8326449.15144  -6488140.05844  20748687.4334   20748686.3764
 96  2 24  2 50 30.0000000  0  8G20G 7G 4G 9G16G24G 6G 5
 -12058565.74644  -9396280.76744  22487328.8794   22487328.8124
   8742979.21044   6812709.84244  24310676.5774
   7149994.51144   5571424.96944  22064858.6604   22064857.5424
   6796191.04944   5295732.10744  22423013.3714   22423013.9054
  -3096743.45344  -2413046.86744  23703017.4584   23703020.6244
  -2519663.43544  -1963371.86844  20374981.6694   20374981.3434
  -1632445.69644  -1272034.22644  24581991.1554   24581988.5594
  -8374764.07944  -6525788.02844  20739493.1884   20739492.3434
 96  2 24  2 51  0.0000000  0  8G20G 7G 4G 9G16G24G 6G 5
 -12147092.34744  -9465262.49844  22470482.9544   22470482.9584
   8813399.89644                  24324074.9814
   7230446.28044   5634114.66444  22080167.5774   22080166.8344
   6874828.03744   5357007.64844  22437977.0924   22437977.6934
  -3190149.70744  -2485830.95444  23685242.4134   23685243.8174
  -2506490.51044  -1953107.24944  20377488.2074   20377488.0544
  -1702974.01044  -1326991.35644  24568570.6474   24568569.3184
  -8422688.89644  -6563132.04444  20730373.3434   20730372.7964
 96  2 24  2 51 30.0000000  0  8G20G 7G 4G 9G16G24G 6G 5
 -12235413.08544  -9534083.83344  22453676.2554   22453676.1854
   8883859.39844   6922486.47444  24337485.5634
   7311158.60744   5697007.38744  22095527.3644   22095526.4084
   6953746.07544   5418502.23244  22452994.4124   22452995.6104
  -3283498.05944  -2558569.91344  23667479.3754   23667480.9264
  -2492840.21044  -1942470.62844  20380085.8984   20380085.8304
  -1773451.40244  -1381908.75844  24555158.8364   24555160.2554
  -8470237.43844  -6600182.84644  20721325.1434   20721324.5894
 96  2 24  2 52  0.0000000  0  8G20G 7G 4G 9G16G24G 6G 5
 -12323525.06744  -9602742.50844  22436908.9284   22436908.4974
   8954371.63244   6977431.03144  24350903.9494   24350901.4354
   7392123.52744   5760096.94544  22110934.2024   22110933.6644
   7032935.52144   5480208.28544  22468064.1954   22468065.0674
  -3376786.46044  -2631262.16144  23649727.6484   23649729.5884
  -2478715.32144  -1931464.20944  20382773.7234   20382773.4214
  -1843870.47444  -1436780.71644  24541757.8484   24541759.7684
  -8517426.43344  -6636953.48144  20712345.2424   20712344.3294
 96  2 24  2 52 30.0000000  0  8G20G 7G 4G 9G16G24G 6G 5
 -12411415.13844  -9671228.26144  22420183.2244   22420183.1604
   9024969.24644   7032442.09544  24364338.0444
   7473373.51644   5823408.63344  22126395.6634   22126395.0714
   7112414.35744   5542139.76344  22483188.7594   22483188.7684
  -3469994.35944  -2703891.67344  23631989.6564   23631992.7914
  -2464094.31044  -1920071.19944  20385555.8694   20385555.6134
  -1914209.61044  -1491590.43644  24528371.9444   24528372.7424
  -8564242.76944  -6673433.74044  20703436.6634   20703435.5364
 96  2 24  2 53  0.0000000  0  8G20G 7G 4G 9G16G24G 6G 5
 -12499106.71144  -9739559.33344  22403495.9074   22403495.9624
   9095633.55744   7087505.17744  24377785.8474
   7554907.95144   5886941.96944  22141911.2394   22141910.4814
   7192167.10344   5604284.74144  22498365.0424   22498364.6524
  -3563127.62344  -2776463.01344  23614266.8474   23614267.3314
  -2448975.16644  -1908290.02844  20388433.0254   20388432.8474
  -1984487.33944  -1546352.25744  24514999.8354   24515000.8704
  -8610673.71244  -6709613.67744  20694600.7644   20694600.2004
 96  2 24  2 53 30.0000000  0  8G20G 7G 4G 9G16G24G 6G 5
 -12586600.64344  -9807736.41744  22386846.6944   22386845.9984
   9166362.27844                  24391244.6864
   7636740.15744   5950707.33544  22157483.4164   22157481.9614
   7272208.53044   5666654.70944  22513596.7344   22513596.6134
  -3656159.25944  -2848955.16844  23596563.8024   23596566.1574
  -2433339.74244  -1896106.56744  20391408.2654   20391407.9984
  -2054696.76744  -1601060.85844  24501639.5034   24501640.4564
  -8656698.45944  -6745477.07544  20685842.4984   20685841.8034
 96  2 24  2 54  0.0000000  0  8G20G 7G 4G 9G16G24G 6G 5
 -12673924.94644  -9875781.31444  22370229.3644   22370229.0604
   9237102.20644                  24404704.8634
   7718847.58744   6014687.14644  22173108.0364   22173106.8594
   7352505.37844   5729223.64644  22528876.5224   22528876.4524
  -3749113.41644  -2921386.96044  23578876.2634   23578877.7564
  -2417220.90544  -1883546.42144  20394475.6184   20394475.4074
  -2124872.16144  -1655743.01244  24488284.3824   24488286.0704
  -8702341.62744  -6781043.16844  20677157.2154   20677156.2994
 96  2 24  2 54 30.0000000  0  7G20G 4G 9G16G24G 6G 5
 -12761078.95344  -9943693.51744  22353644.5904   22353644.1384
   7801216.51744   6078870.72144  22188782.4234   22188781.0924
   7433055.09144   5791989.57644  22544204.4544   22544204.8984
  -3841986.00444  -2993755.15944  23561202.5354   23561202.0714
  -2400618.16644  -1870609.20644  20397635.1404   20397634.8874
  -2195037.63844  -1710417.40344  24474931.5344   24474934.8934
  -8747586.68044  -6816299.05844  20668547.1624   20668546.5254
 96  2 24  2 55  0.0000000  0  7G20G 4G 9G16G24G 6G 5
 -12848067.15644 -10011476.50244  22337091.3354   22337091.8084
   7883816.04444   6143233.97844  22204500.5864   22204499.9934
   7513838.93344   5854938.02344  22559577.0384   22559578.0754
  -3934789.63344  -3066069.62844  23543542.1044   23543545.2864
  -2383552.31144  -1857311.13644  20400882.6014   20400882.1834
  -2265202.78044  -1765091.49744  24461580.2374   24461580.0314
  -8792454.70044  -6851261.13444  20660009.0164   20660008.3064
 96  2 24  2 55 30.0000000  0  7G20G 4G 9G16G24G 6G 5
 -12934841.99144 -10079093.22944  22320578.2364   22320578.4514
   7966651.67044   6207781.21144  22220263.1254   22220262.3794
   7594878.43244   5918085.65844  22574998.7684   22574999.3884
  -4027494.87744  -3138307.42644  23525901.0354   23525900.6864
  -2366020.49744  -1843649.99344  20404218.6924   20404218.3034
  -2335338.62144  -1819742.77144  24448233.3014   24448236.4534
  -8836945.15544  -6885929.01844  20651542.8174   20651542.1484
 96  2 24  2 56  0.0000000  0  7G20G 4G 9G16G24G 6G 5
 -13021337.62844 -10146492.43344  22304119.2644   22304119.1494
   8049747.10144   6272530.90244  22236075.8244   22236074.8294
   7676204.50244   5981456.60844  22590474.5624   22590475.0484
  -4120065.08644  -3210440.01944  23508286.5454   23508288.0574
  -2347987.00744  -1829597.91744  20407650.4884   20407650.2964
  -2405401.39244  -1874337.10544  24434899.8364   24434902.0544
  -8881009.28944  -6920264.73044  20643157.6584   20643157.0844
 96  2 24  2 56 30.0000000  0  8G20G 7G 4G 9G16G24G 6G 5
 -13107560.24244 -10213678.86644  22287711.5524   22287711.3834
        -0.85054                  24471973.0074
   8133089.36044   6337472.91844  22251935.3014   22251934.1774
   7757800.07744   6045037.50844  22606002.0784   22606001.8424
  -4212514.07544  -3282478.14044  23490692.8114   23490694.7404
  -2329457.40344  -1815159.25444  20411176.7384   20411176.3204
  -2475395.37644  -1928877.83644  24421582.3304   24421582.4244
  -8924654.86244  -6954274.28444  20634852.2724   20634851.5214
 96  2 24  2 57  0.0000000  0  8G20G 7G 4G 9G16G24G 6G 5
 -13193571.82744 -10280700.85444  22271343.9384   22271343.5924
     70743.76444                  24485435.0394
   8216640.07144   6402577.36544  22267834.0804   22267832.3904
   7839596.65144   6108775.06744  22621567.3264   22621567.8844
  -4304900.35744  -3354467.39844  23473112.9424   23473114.7344
  -2310502.67244  -1800389.32044  20414783.3444   20414783.1574
  -2545369.76944  -1983403.33044  24408267.0044   24408267.2624
  -8967956.91044  -6988016.11944  20626612.2544   20626611.5294
 96  2 24  2 57 30.0000000  0  8G20G 7G 4G 9G16G24G 6G 5
 -13279373.18244 -10347559.03344  22255016.3614   22255015.9404
    141517.15644                  24498901.6544
   8300404.31344   6467848.19444  22283774.3284   22283773.9534
   7921596.94144   6172671.38044  22637171.0334   22637171.5624
  -4397209.43644  -3426396.49144  23455546.8684   23455548.1354
  -2291119.37644  -1785285.42944  20418472.1634   20418471.7164
  -2615340.25044  -2037925.80044  24394951.5994   24394951.4724
  -9010894.87844  -7021474.25944  20618441.4814   20618440.4314
 96  2 24  2 58  0.0000000  0  8G20G 7G 4G 9G16G24G 6G 5
 -13364929.69744 -10414226.41844  22238735.5024   22238735.0824
    212353.48044                  24512381.9284
   8384442.77444   6533332.70544  22299766.7654   22299765.8644
   8003856.07244   6236769.38444  22652824.3184   22652824.9534
  -4489395.02444  -3498229.36944  23438004.5944   23438004.9004
  -2271247.14944  -1769800.56644  20422253.4674   20422253.5044
  -2685262.63044  -2092410.73144  24381646.6014   24381646.7044
  -9053419.08044  -7054609.98344  20610349.3204   20610348.4064
 96  2 24  2 58 30.0000000  0  8G20G 7G 4G 9G16G24G 6G 5
 -13450282.87044 -10480735.37044  22222493.5944   22222494.0394
    283223.01644                  24525868.5514
   8468742.27744   6599020.62244  22315807.7524   22315807.0554
   8086363.96544   6301061.21144  22668524.6354   22668525.1814
  -4581485.90244  -3569988.46644  23420480.1774   23420482.9594
  -2250915.07144  -1753957.38044  20426122.4434   20426122.4324
  -2755172.47944  -2146885.89044  24368343.1904   24368346.1214
  -9095566.46844  -7087452.08244  20602328.8644   20602328.1924
 96  2 24  2 59  0.0000000  0  8G20G 7G 4G 9G16G24G 6G 5
 -13535432.60144 -10547085.80044  22206289.6594   22206290.5244
    354115.54644                  24539357.9384
   8553283.37744   6664896.79444  22331895.3884   22331895.0754
   8169120.12844   6365546.49544  22684272.9754   22684273.0274
  -4673473.87244  -3641667.34244  23402974.7254   23402976.6454
  -2230127.97444  -1737759.62744  20430078.0964   20430077.7644
  -2825072.44744  -2201353.37044  24355042.0884   24355042.8894
  -9137329.46844  -7119994.69544  20594381.4964   20594380.9094
 96  2 24  2 59 30.0000000  0  8G20G 7G 4G 9G16G24G 6G 5
 -13620371.93444 -10613272.28444  22190126.5164   22190126.4424
    425017.95944                  24552850.7454
   8638050.09544   6730948.80344  22348026.2294   22348024.9274
   8252131.80744   6430230.90544  22700069.8044   22700069.8234
  -4765347.81144  -3713257.38244  23385492.3674   23385493.5484
  -2208874.79644  -1721198.69244  20434122.3714   20434122.0634
  -2894954.61944  -2255806.96944  24341742.1164   24341742.1254
  -9178692.81444  -7152225.88744  20586510.3744   20586509.7394
 96  2 24  3  0  0.0000000  0  8G20G 7G 4G 9G16G24G 6G 5
 -13705112.63444 -10679303.99544  22174000.9554   22174000.8124
    495922.66744                  24566344.2494
   8723036.26644   6797171.79544  22364198.2064   22364196.8314
   8335377.99044   6495098.07044  22715911.8654   22715911.4454
  -4857129.02144  -3784775.19044  23368027.2204   23368028.9484
  -2187171.66144  -1704287.15244  20438252.4814   20438252.2174
  -2964811.10644  -2310240.53844  24328449.5774   24328450.5924
  -9219682.03344  -7184165.51544  20578710.6474   20578709.5054
 96  2 24  3  0 30.0000000  0  8G20G 7G 4G 9G16G24G 6G 5
 -13789637.94444 -10745167.85444  22157915.9604   22157915.8444
    566857.34644                  24579841.2004
   8808238.96744   6863563.50944  22380412.4434   22380411.6554
   8418847.87344   6560139.53144  22731795.4504   22731795.8604
  -4948807.36944  -3856212.85044  23350580.8854   23350581.4284
  -2165013.34944  -1687020.92944  20442468.8734   20442468.7084
  -3034620.62044  -2364637.52244  24315165.3944   24315164.7374
  -9260276.41244  -7215797.47044  20570985.7044   20570984.9554
 96  2 24  3  1  0.0000000  0  8G20G 7G 4G 9G16G24G 6G 5
 -13873915.31244 -10810838.51244  22141878.9304   22141878.4554
    637848.22044                  24593349.7304
   8893676.19344   6930137.96244  22396670.4794   22396669.2514
   8502546.97344   6625359.58444  22747722.0004   22747722.8504
  -5040344.49044  -3927540.44444  23333161.9174   23333162.1964
  -2142384.87444  -1669388.34044  20446775.0054   20446774.7754
  -3104344.39944  -2418967.70444  24301897.3184   24301897.4854
  -9300444.51144  -7247097.28744  20563341.9804   20563341.0474
 96  2 24  3  1 30.0000000  0  8G20G 7G 4G 9G16G24G 6G 5
 -13957949.77344 -10876319.90544  22125887.4634   22125887.2774
    708890.17844                  24606870.4174
   8979352.80344   6996898.93744  22412974.3384   22412973.3684
   8586475.77844   6690758.63744  22763693.0534   22763693.5104
  -5131746.69444  -3998762.88544  23315768.8344   23315770.5804
  -2119289.01844  -1651391.56644  20451169.9594   20451169.9294
  -3173981.89144  -2473230.62444  24288645.7734   24288645.5614
  -9340191.36744  -7278068.86444  20555778.2944   20555777.6144
 96  2 24  3  2  0.0000000  0  8G20G 7G 4G 9G16G24G 6G 5
 -14041761.38744 -10941627.64444  22109938.4744   22109938.5404
    779957.28444                  24620393.8004
   9065228.96444   7063815.41644  22429315.4114   22429315.0234
   8670605.54644   6756314.28444  22779702.4484   22779702.8934
  -5223043.19844  -4069902.95744  23298395.2354   23298396.8424
  -2095753.30844  -1633052.05744  20455648.8024   20455648.4774
  -3243565.36644  -2527451.44444  24275403.6504   24275406.2454
  -9379539.14844  -7308729.49544  20548290.7624   20548289.8464
 96  2 24  3  2 30.0000000  0  8G20G 7G 4G 9G16G24G 6G 5
 -14125344.82544 -11006757.58744  22094033.5534   22094032.9454
    851043.16744                  24633920.8264
   9151290.56644   7130876.39244  22445692.6914   22445692.0724
   8754934.09944   6822024.84244  22795749.4894   22795750.6334
  -5314226.24244  -4140954.63044  23281043.2984   23281044.3344
  -2071778.68644  -1614370.52644  20460210.9424   20460210.6324
  -3313121.77444  -2581651.20244  24262168.3094   24262170.0784
  -9418472.30444  -7339067.00344  20540881.9234   20540881.1284
 96  2 24  3  3  0.0000000  0  7G20G 4G 9G16G24G 6G 5
 -14208698.32644 -11071708.37544  22078172.2254   22078171.9374
   9237549.41144   7198091.08644  22462106.7424   22462106.3964
   8839477.36644   6887902.68844  22811838.7534   22811838.8484
  -5405279.75044  -4211905.36144  23263716.4304   23263717.4364
  -2047365.93444  -1595347.59144  20464856.6424   20464856.4234
  -3382668.01444  -2635843.02244  24248933.8534   24248933.6984
  -9456983.09444  -7369075.38644  20533553.5604   20533552.7474
 96  2 24  3  3 30.0000000  0  7G20G 4G 9G16G24G 6G 5
 -14291824.03244 -11136481.63244  22062353.5894   22062353.2504
   9323984.18544   7265442.86244  22478554.8974   22478554.6494
   8924218.76544   6953934.93844  22827964.3124   22827964.1484
  -5496223.77544  -4282770.80444  23246410.8164   23246411.6904
  -2022519.76844  -1575986.93444  20469584.6734   20469584.3764
  -3452232.43344  -2690049.02744  24235696.2754   24235695.2724
  -9495078.72844  -7398760.27944  20526304.2574   20526303.3434
 96  2 24  3  4  0.0000000  0  7G20G 4G 9G16G24G 6G 5
 -14374667.44744 -11201034.92044  22046588.7174   22046589.0484
   9410641.12744   7332967.75144  22495045.2804   22495044.7294
   9009186.46744   7020143.51644  22844133.3464   22844133.7914
  -5587012.72244  -4353515.37644  23229134.0664   23229135.8304
  -1997197.53644  -1556255.32444  20474403.2104   20474402.9994
  -3521774.33844  -2744237.46644  24222462.8284   24222460.8194
  -9532707.94044  -7428081.74244  20519143.8824   20519143.0554
 96  2 24  3  4 30.0000000  0  7G20G 4G 9G16G24G 6G 5
 -14457237.23044 -11265375.01044  22030876.1964   22030876.4814
   9497523.23744   7400668.09344  22511577.8084   22511577.2544
   9094353.98744   7086507.79544  22860340.1844   22860340.5974
  -5677659.39344  -4424149.09644  23211884.6504   23211886.5394
  -1971425.26444  -1536173.02544  20479307.5024   20479307.5054
  -3591306.53344  -2798418.33344  24209230.0694   24209233.0444
  -9569879.29644  -7457046.43244  20512070.2934   20512069.2754
 96  2 24  3  5  0.0000000  0  7G20G 4G 9G16G24G 6G 5
 -14539544.03544 -11329510.18144  22015214.1954   22015213.7464
   9584628.52344   7468542.34344  22528154.4734   22528153.6204
   9179710.10244   7153019.02344  22876582.9104   22876582.5544
  -5768166.43144  -4494674.01344  23194662.1544   23194663.2314
  -1945213.73644  -1515748.45744  20484295.3224   20484295.0934
  -3660809.94844  -2852576.79844  24196005.1934   24196007.1574
  -9606604.62844  -7485663.56944  20505081.5944   20505080.8394
 96  2 24  3  5 30.0000000  0  7G20G 4G 9G16G24G 6G 5
 -14621553.19044 -11393413.41944  21999608.0414   21999607.6674
   9671973.44544   7536603.32944  22544775.2944   22544774.8044
   9265278.44944   7219695.63544  22892865.5524   22892865.4424
  -5858497.90644  -4565062.12044  23177472.4814   23177473.7904
  -1918522.53244  -1494950.11644  20489374.4884   20489374.1354
  -3730238.02844  -2906676.54444  24182793.4294   24182792.4564
  -9642855.73044  -7513911.21544  20498183.1864   20498182.2844
 96  2 24  3  6  0.0000000  0  8G20G 7G 4G 9G16G24G 6G 5
 -14703280.62044 -11457097.10444  21984055.5614   21984055.5654
        -0.60054                  24728831.1814
   9759556.17944   7604849.60044  22561441.5734   22561440.2214
   9351059.26444   7286537.81044  22909188.6434   22909189.1434
  -5948649.32144  -4635309.96044  23160317.2534   23160318.5214
  -1891360.30944  -1473784.73844  20494543.2934   20494543.0844
  -3799589.50544  -2960716.60144  24169595.6574   24169595.2804
  -9678648.87644  -7541801.98844  20491371.9634   20491371.2534
 96  2 24  3  6 30.0000000  0  8G20G 7G 4G 9G16G24G 6G 5
 -14784756.52944 -11520584.80744  21968551.2114   21968551.2664
     71400.32444                  24742417.7504
   9847345.94944   7673257.21544  22578147.2954   22578146.6604
   9437039.08944   7353535.04444  22925550.2934   22925550.8124
  -6038631.31144  -4705425.76844  23143194.2744   23143194.2834
  -1863756.28744  -1452275.09544  20499796.4064   20499796.2174
  -3868879.78844  -3014708.98944  24156409.4254   24156409.2134
  -9714017.94844  -7569362.27444  20484641.5864   20484640.8644
 96  2 24  3  7  0.0000000  0  8G20G 7G 4G 9G16G24G 6G 5
 -14865985.46744 -11583880.09844  21953094.2544   21953093.8094
    142814.45444                  24756007.8334
   9935321.43444   7741809.55044  22594888.2624   22594887.2104
   9523224.79344   7420692.73344  22941951.3514   22941951.9424
  -6128439.10944  -4775405.83844  23126104.1854   23126104.7354
  -1835710.37644  -1430421.13344  20505133.3884   20505133.0564
  -3938114.81344  -3068658.30444  24143234.1374   24143237.3374
  -9748976.90744  -7596603.03044  20477988.9784   20477988.1484
 96  2 24  3  7 30.0000000  0  8G20G 7G 4G 9G16G24G 6G 5
 -14946958.16944 -11646975.71144  21937685.4954   21937684.9414
    214248.87744                  24769600.6904
  10023467.70944   7810494.95244  22611662.0834   22611660.9694
   9609603.70444   7488000.97744  22958388.8494   22958389.1174
  -6218076.78844  -4845253.35944  23109046.2524   23109047.2224
  -1807220.88644  -1408221.52744  20510554.6194   20510554.2104
  -4007308.25744  -3122575.26144  24130068.6594   24130069.1434
  -9783528.36844  -7623526.26644  20471414.2814   20471413.6584
 96  2 24  3  8  0.0000000  0  8G20G 7G 4G 9G16G24G 6G 5
 -15027667.20644 -11709865.85544  21922327.3214   21922327.0274
    285712.47544                  24783201.0764
  10111783.39044   7879312.38144  22628468.6744   22628467.5134
   9696161.68744   7555448.74044  22974859.9094   22974860.5414
  -6307558.59544  -4914979.41244  23092018.1934   23092019.3164
  -1778301.90744  -1385687.25444  20516057.7264   20516057.4514
  -4076465.86044  -3176464.26944  24116908.5184   24116909.6224
  -9817665.88044  -7650126.90744  20464917.9664   20464917.0224
 96  2 24  3  8 30.0000000  0  8G20G 7G 4G 9G16G24G 6G 5
 -15108107.21644 -11772546.36144  21907019.6954   21907019.6214
    357213.86744                  24796805.8254
  10200268.13444   7948261.51644  22645306.0554   22645305.8074
   9782882.88644   7623023.68044  22991362.5524   22991363.2814
  -6396885.44244  -4984584.73844  23075020.7854   23075022.0674
  -1748966.92044  -1362828.81744  20521639.9304   20521639.6054
  -4145592.72144  -3230329.29444  24103753.7414   24103753.0204
  -9851374.16744  -7676393.11344  20458503.4484   20458502.7114
 96  2 24  3  9  0.0000000  0  8G20G 7G 4G 9G16G24G 6G 5
 -15188266.57244 -11835008.16544  21891765.9064   21891766.1044
    428763.83044                  24810422.6914
  10288925.97344   8017345.54244  22662177.0504   22662175.3084
   9869771.72344   7690729.24744  23007896.2154   23007897.5674
  -6486058.98544  -5054070.57744  23058051.0014   23058052.4044
  -1719203.21844  -1339636.32744  20527303.8684   20527303.5784
  -4214689.38744  -3284170.81344  24090605.2724   24090605.3424
  -9884634.14444  -7702309.98444  20452174.1774   20452173.4804
 96  2 24  3  9 30.0000000  0  8G20G 7G 4G 9G16G24G 6G 5
 -15268157.65044 -11897260.94444  21876563.4934   21876562.9404
    500342.54244                  24824041.4414
  10377755.65044   8086563.49344  22679081.0884   22679079.1864
   9956809.19844   7758550.65744  23024458.7394   23024460.2184
  -6575091.89644  -5123446.84544  23041109.0484   23041109.6214
  -1689018.22244  -1316115.55344  20533047.9174   20533047.4924
  -4283762.41944  -3337993.90844  24077460.8064   24077460.8424
  -9917453.46344  -7727883.46544  20445929.0034   20445928.2134
 96  2 24  3 10  0.0000000  0  8G20G 7G 4G 9G16G24G 6G 5
 -15347773.75444 -11959299.45444  21861412.6724   21861412.3584
    571952.16144                  24837669.5284
  10466773.34844   8155927.94444  22696020.6164   22696019.3044
  10044029.03944   7826514.10644  23041056.7964   23041058.1724
  -6663964.15644  -5192697.91144  23024196.7684   23024197.2864
  -1658411.11844  -1292265.85344  20538872.1444   20538871.7934
  -4352797.57744  -3391787.48744  24064323.9454   24064322.9134
  -9949818.07544  -7753102.63044  20439770.3884   20439769.5594
 96  2 24  3 10 30.0000000  0  8G20G 7G 4G 9G16G24G 6G 5
 -15427108.00044 -12021118.31044  21846316.2574   21846315.7964
    643594.86244                  24851303.0944
  10555988.92244   8225446.56344  22712998.0864   22712996.4444
  10131461.88744   7894643.55944  23057694.9704   23057695.8624
  -6752652.05744  -5261805.30844  23007319.9964   23007321.6904
  -1627368.20344  -1268076.57044  20544779.2924   20544778.9344
  -4421783.91744  -3445543.07144  24051196.1224   24051194.3574
  -9981724.52044  -7777964.78144  20433698.4324   20433697.6834
 96  2 24  3 11  0.0000000  0  8G20G 7G 4G 9G16G24G 6G 5
 -15506163.10844 -12082719.69144  21831272.2504   21831272.5854
    715259.66344                  24864940.1694
  10645388.19944   8295108.36544  22730010.7294   22730008.5714
  10219101.71844   7962934.33444  23074372.1254   23074371.8144
  -6841159.88644  -5330772.39944  22990477.4134   22990479.3614
  -1595890.24344  -1243548.28144  20550769.4994   20550769.0684
  -4490729.45244  -3499266.82044  24038076.0794   24038076.6824
 -10013191.45044  -7802484.46444  20427710.5954   20427709.4744
 96  2 24  3 11 30.0000000  0  8G20G 7G 4G 9G16G24G 6G 5
 -15584928.19144 -12144095.06744  21816284.0404   21816284.3954
    786530.21944                  24878575.9784
  10734967.99044   8364910.81244  22747056.4814   22747054.6574
  10306938.50844   8031378.59344  23091087.4954   23091087.4314
  -6929475.49044  -5399589.71844  22973671.8664   22973672.7614
  -1564001.16944  -1218699.64344  20556837.8504   20556837.4474
  -4559646.24444  -3552968.11444  24024960.2134   24024963.7534
 -10044229.31344  -7826669.82544  20421804.2334   20421803.4364
 96  2 24  3 12  0.0000000  0  8G20G 7G 4G 9G16G24G 6G 5
 -15663395.06344 -12205238.06744  21801352.2274   21801351.9534
    857486.05544                  24892207.4974
  10824717.67144   8434845.61744  22764135.5014   22764135.1344
  10394966.55044   8099971.86544  23107837.8494   23107837.5624
  -7017592.15644  -5468252.01844  22956903.0144   22956904.8174
  -1531712.46944  -1193539.60344  20562982.1674   20562981.7274
  -4628552.13344  -3606660.97444  24011848.1894   24011846.2784
 -10074822.83344  -7850508.93744  20415982.7564   20415981.7394
 96  2 24  3 12 30.0000000  0  8G20G 7G 4G 9G16G24G 6G 5
 -15741547.20444 -12266135.81644  21786480.5684   21786480.4024
    929196.06044                  24905875.9454
  10914648.72944   8504921.77144  22781249.0884   22781247.8084
  10483165.36244   8168698.24044  23124621.8864   23124622.0594
  -7105493.89344  -5536746.82544  22940176.7114   22940177.9094
  -1499013.40044  -1168059.79544  20569204.5624   20569204.3184
  -4697447.89544  -3660345.95144  23998738.3894   23998737.7504
 -10104956.70544  -7873989.87244  20410248.2834   20410247.6134
 96  2 24  3 13  0.0000000  0  7G20G 4G 9G16G24G 6G 5
 -15819411.30744 -12326809.11444  21771663.1104   21771662.4164
  11004735.68944   8575119.39944  22798392.2924   22798390.2794
  10571486.65544   8237520.01744  23141429.1094   23141430.3864
  -7193198.09344  -5605087.70844  22923486.8804   22923487.7124
  -1465939.60744  -1142288.00144  20575498.2914   20575497.9814
  -4766365.99744  -3714048.35544  23985624.4274   23985624.7344
 -10134652.01944  -7897129.08244  20404597.6534   20404596.6924
 96  2 24  3 13 30.0000000  0  7G20G 4G 9G16G24G 6G 5
 -15896992.80744 -12387262.19144  21756899.7464   21756899.8794
  11094973.66244   8645434.69844  22815563.2504   22815561.6524
  10659919.64044   8306428.80344  23158256.7704   23158257.3794
  -7280704.42744  -5673274.42344  22906834.4054   22906835.6394
  -1432485.62944  -1116219.95944  20581864.2694   20581863.9754
  -4835299.01644  -3767762.37544  23972505.4674   23972507.8784
 -10163901.82644  -7919921.16144  20399031.4114   20399030.4224
 96  2 24  3 14  0.0000000  0  7G20G 4G 9G16G24G 6G 5
 -15974259.23444 -12447469.78644  21742196.2134   21742196.4294
  11185404.72844   8715900.47544  22832772.1194   22832770.4504
  10748496.94144   8375450.09244  23175112.7044   23175112.6454
  -7367969.98744  -5741273.51744  22890228.2324   22890231.1624
  -1398584.41944  -1089803.43944  20588315.5844   20588315.5644
  -4904180.81544  -3821436.42744  23959398.3214   23959400.0384
 -10192660.71344  -7942330.68344  20393558.8274   20393558.1624
 96  2 24  3 14 30.0000000  0  7G20G 4G 9G16G24G 6G 5
 -16051222.95144 -12507441.49344  21727550.5904   21727550.4984
  11276028.26644   8786516.22044  22850016.8124   22850015.1614
  10837202.70144   8444571.47044  23191992.4974   23191993.2444
  -7454996.15744  -5809086.08144  22873668.4844   22873668.8474
  -1364232.55744  -1063035.75644  20594852.6484   20594852.2244
  -4972988.83544  -3875053.02344  23946305.2604   23946306.5284
 -10220947.46444  -7964372.30944  20388176.1914   20388175.2224
 96  2 24  3 15  0.0000000  0  8G20G 7G 4G 9G16G24G 6G 5
 -16127906.19344 -12567194.66044  21712958.5934   21712958.3504
        -0.72354                  24974200.0204
  11366798.41244   8857246.20444  22867289.6794   22867288.4954
  10926009.43144   8513771.51544  23208891.6564   23208892.5084
  -7541826.16844  -5876745.77344  22857144.5054   22857144.8544
  -1329458.74144  -1035939.26544  20601469.8434   20601469.3934
  -5041746.38344  -3928630.30344  23933220.4914   23933222.5684
 -10248788.65344  -7986066.72444  20382878.0954   20382877.1724
 96  2 24  3 15 30.0000000  0  8G20G 7G 4G 9G16G24G 6G 5
 -16204312.87444 -12626732.32244  21698418.4534   21698418.0914
     71914.65644                  24987883.5784
  11457686.27744   8928067.92844  22884585.3884   22884583.6454
  11014905.57344   8583041.22444  23225808.6324   23225809.1054
  -7628485.84544  -5944272.75044  22840653.6544   22840654.8774
  -1294277.96444  -1008525.66444  20608164.5294   20608164.1154
  -5110465.20744  -3982177.40144  23920143.9284   23920144.9554
 -10276195.36644  -8007422.60044  20377662.5844   20377661.8154
 96  2 24  3 16  0.0000000  0  8G20G 7G 4G 9G16G24G 6G 5
 -16280414.69644 -12686032.42644  21683936.7834   21683936.4334
    143861.84744                  25001575.5074
  11548711.94344   8998997.02744  22901906.5024   22901905.2284
  11103926.93344   8652408.53144  23242748.9244   23242749.2684
  -7714954.26444  -6011650.69744  22824199.7684   22824199.7604
  -1258687.26944   -980792.65244  20614936.9404   20614936.5484
  -5179131.60944  -4035683.66944  23907076.0844   23907077.6684
 -10303141.02044  -8028419.20644  20372534.9564   20372533.9684
 96  2 24  3 16 30.0000000  0  8G20G 7G 4G 9G16G24G 6G 5
 -16356206.73944 -12745091.16044  21669514.2614   21669514.5564
    215833.33444                  25015270.7954
  11639860.12744   9070021.56444  22919251.4144   22919250.2164
  11193070.28744   8721870.89444  23259712.4114   23259712.6204
  -7801238.86844  -6078885.41444  22807780.7274   22807781.9294
  -1222709.58644   -952758.09544  20621783.2414   20621783.0434
  -5247768.08044  -4089166.59944  23894015.6254   23894017.0194
 -10329620.13244  -8049052.29244  20367496.1704   20367495.4474
 96  2 24  3 17  0.0000000  0  7G20G 4G 9G16G24G 6G 5
 -16431672.48544 -12803895.64544  21655153.6504   21655153.2334
  11731134.95244   9141144.81344  22936620.9834   22936619.0154
  11282357.37144   8791445.22544  23276702.5104   23276704.7214
  -7887337.03944  -6145974.84744  22791396.0964   22791396.7964
  -1186350.57144   -924426.40344  20628702.6234   20628702.2254
  -5316386.97344  -4142635.81044  23880958.3054   23880959.3074
 -10355627.73244  -8069317.93144  20362547.1474   20362546.0184
 96  2 24  3 17 30.0000000  0  7G20G 4G 9G16G24G 6G 5
 -16506809.76644 -12862444.15744  21640855.6144   21640855.0094
  11822560.06544   9212385.15844  22954018.5814   22954017.2564
  11371812.00844   8861150.13944  23293725.7374   23293725.9404
  -7973210.38744  -6212889.12044  22775055.2304   22775056.4164
  -1149591.06944   -895782.63244  20635697.3644   20635696.9624
  -5384971.34144  -4196078.16044  23867907.6274   23867909.1574
 -10381163.00844  -8089215.54444  20357688.0494   20357687.2374
 96  2 24  3 18  0.0000000  0  7G20G 4G 9G16G24G 6G 5
 -16581622.91744 -12920740.12144  21626619.1054   21626618.7904
  11914131.72244   9283739.71244  22971444.0734   22971443.0194
  11461424.81144   8930978.30444  23310777.6274   23310778.7814
  -8058847.94944  -6279619.65744  22758758.8794   22758760.1454
  -1112423.83544   -866821.13944  20642770.0704   20642769.9524
  -5453521.97544  -4249494.21344  23854861.8184   23854863.6254
 -10406235.32044  -8108752.42044  20352916.7754   20352915.9784
 96  2 24  3 18 30.0000000  0  7G20G 4G 9G16G24G 6G 5
 -16656097.64144 -12978772.38344  21612446.7624   21612446.6944
  12005860.19644   9355216.43444  22988899.9044   22988897.9674
  11551196.08444   9000929.93744  23327860.6364   23327861.5514
  -8144227.41944  -6346149.07344  22742511.3054   22742512.4494
  -1074837.92144   -837533.40544  20649922.5764   20649922.2524
  -5522030.78244  -4302877.61544  23841825.2344   23841826.8994
 -10430828.06044  -8127915.59244  20348237.0734   20348236.3514
 96  2 24  3 19  0.0000000  0  7G20G 4G 9G16G24G 6G 5
 -16730240.90044 -13036546.33944  21598337.7374   21598337.6604
  12097737.53444   9426809.15744  23006382.8184   23006381.4634
  11641119.40144   9071000.05544  23344972.9704   23344974.1534
  -8229346.65044  -6412475.71244  22726313.7884   22726314.7124
  -1036838.90044   -807923.77044  20657153.2764   20657153.1594
  -5590499.07144  -4356229.51844  23828796.7284   23828796.6014
 -10454956.24944  -8146716.76644  20343645.7654   20343645.0254
 96  2 24  3 19 30.0000000  0  7G20G 4G 9G16G24G 6G 5
 -16804069.60244 -13094075.20444  21584288.2864   21584288.2164
  12189733.21844   9498494.10044  23023889.2234   23023887.5704
  11731157.85744   9141159.86944  23362106.5284   23362108.3044
  -8314213.65744  -6478605.80944  22710164.5184   22710165.8084
   -998451.36044   -778011.40444  20664458.3284   20664458.0964
  -5658942.04244  -4409561.69744  23815772.6274   23815773.4954
 -10478625.86444  -8165160.62644  20339141.3494   20339140.2514
 96  2 24  3 20  0.0000000  0  7G20G 4G 9G16G24G 6G 5
 -16877554.95744 -13151336.51644  21570304.7304   21570304.8854
  12281857.23144   9570279.04344  23041420.2194   23041419.6624
  11821319.46944   9211415.64444  23379264.5854   23379265.2374
  -8398819.49044  -6544532.39944  22694064.8154   22694066.4354
   -959673.82044   -747795.14544  20671837.6044   20671837.3514
  -5727347.57544  -4462864.67944  23802754.9944   23802756.2434
 -10501799.62344  -8183218.09444  20334731.5684   20334730.7754
 96  2 24  3 20 30.0000000  0  7G20G 4G 9G16G24G 6G 5
 -16950716.59344 -13208345.52644  21556382.5654   21556382.0454
  12374101.74444   9642157.87944  23058973.0574   23058972.5594
  11911578.91444   9281747.69844  23396439.5854   23396439.7154
  -8483180.85744  -6610268.49344  22678010.6614   22678011.1444
   -920541.23644   -717302.22244  20679284.0124   20679283.8924
  -5795742.73844  -4516159.57644  23789739.5034   23789739.7454
 -10524490.51244  -8200899.31044  20330413.7704   20330412.8184
 96  2 24  3 21  0.0000000  0  7G20G 4G 9G16G24G 6G 5
 -17023548.87044 -13265097.91844  21542522.8684   21542522.4084
  12466463.69244   9714128.21044  23076549.2974   23076548.4794
  12001928.06344   9352149.64844  23413632.7954   23413633.9134
  -8567297.52944  -6675813.91444  22662003.9894   22662005.1034
   -881037.39044   -686520.01344  20686801.5354   20686801.0994
  -5864124.10644  -4569443.72744  23776726.7654   23776728.3814
 -10546701.38644  -8218206.50444  20326187.1544   20326186.5154
 96  2 24  3 21 30.0000000  0  7G20G 4G 9G16G24G 6G 5
 -17096051.48444 -13321593.44444  21528726.5664   21528726.2474
  12558959.69744   9786203.03244  23094150.2614   23094149.6894
  12092367.10344   9422621.62444  23430841.8004   23430842.2744
  -8651164.41944  -6741164.70644  22646044.6834   22646046.0654
   -841153.68944   -655441.80544  20694391.0174   20694390.6794
  -5932488.39144  -4622714.59844  23763718.4674   23763718.1434
 -10568405.25844  -8235118.61444  20322057.0284   20322056.0364
 96  2 24  3 22  0.0000000  0  7G20G 4G 9G16G24G 6G 5
 -17168212.56844 -13377822.83944  21514994.6334   21514994.4984
  12651601.85744   9858391.73544  23111779.8604   23111778.3624
  12182906.62044   9493171.88244  23448071.4414   23448072.4154
  -8734777.16844  -6806317.46144  22630133.4464   22630133.8084
   -800870.63644   -624052.41844  20702056.8134   20702056.6214
  -6000822.25344  -4675961.74244  23750714.6034   23750715.4384
 -10589593.15944  -8251628.67344  20318024.9224   20318024.2094
 96  2 24  3 22 30.0000000  0  7G20G 4G 9G16G24G 6G 5
 -17240030.10844 -13433784.53844  21501327.9344   21501328.2494
  12744387.93444   9930692.59044  23129436.3814   23129434.5294
  12273535.61344   9563791.87944  23465317.4924   23465317.9284
  -8818135.19844  -6871271.73944  22614270.9884   22614271.6094
   -760189.20344   -592352.59244  20709798.0214   20709797.8104
  -6069117.11144  -4729178.47944  23737718.4904   23737719.2164
 -10610273.59144  -8267743.29444  20314089.7814   20314088.8784
 96  2 24  3 23  0.0000000  0  7G20G 4G 9G16G24G 6G 5
 -17311507.06244 -13489480.87444  21487726.9994   21487726.6314
  12837310.39044  10003099.70644  23147119.4864   23147116.3964
  12364263.75644   9634489.12844  23482583.1674   23482583.5194
  -8901240.07944  -6936028.74644  22598456.9964   22598457.4614
   -719113.92244   -560345.87944  20717614.4814   20717614.1834
  -6137363.91344  -4782357.77544  23724731.7674   23724732.1894
 -10630446.43244  -8283462.38644  20310250.9464   20310250.2104
 96  2 24  3 23 30.0000000  0  7G20G 4G 9G16G24G 6G 5
 -17382642.11844 -13544910.74944  21474190.1104   21474189.3614
  12930367.46444  10075611.70044  23164827.2254   23164826.6604
  12455095.05744   9705266.77444  23499868.1084   23499868.7234
  -8984087.16744  -7000584.87644  22582690.6904   22582691.3184
   -677671.39144   -528052.99444  20725500.3674   20725500.2104
  -6205560.42944  -4835497.93444  23711754.3084   23711754.8754
 -10650118.78744  -8298791.48744  20306507.4864   20306506.7084
 96  2 24  3 24  0.0000000  0  7G20G 4G 9G16G24G 6G 5
 -17453412.27144 -13600056.31644  21460722.7634   21460722.4214
  13023550.09844  10148221.55044  23182559.8384   23182558.4694
  12546023.04944   9776119.76544  23517171.2154   23517171.1404
  -9066663.42944  -7064929.95344  22566977.5474   22566978.7324
   -635859.19644   -495472.05844  20733457.2494   20733456.8984
  -6273704.81544  -4888597.41944  23698787.2274   23698787.6664
 -10669313.84844  -8313748.67444  20302854.7184   20302854.0754
 96  2 24  3 24 30.0000000  0  7G20G 4G 9G16G24G 6G 5
 -17523826.63544 -13654924.66644  21447323.3564   21447323.2404
  13116852.84744  10220924.99844  23200314.4754   23200312.4354
  12637036.06044   9847039.00944  23534490.0184   23534490.3694
  -9148974.90444  -7129068.71744  22551314.0234   22551315.2004
   -593694.99844   -462616.83544  20741481.1214   20741480.8284
  -6341804.76644  -4941662.29044  23685827.7914   23685829.0054
 -10688040.07044  -8328340.55644  20299291.3504   20299290.5024
 96  2 24  3 25  0.0000000  0  7G20G 4G 9G16G24G 6G 5
 -17593896.38244 -13709524.48044  21433989.5264   21433989.2934
  13210254.01244  10293705.11644  23218087.9584   23218085.8534
  12728118.06344   9918012.01144  23551822.5124   23551822.2444
  -9231028.29344  -7193006.38944  22535700.0104   22535700.4394
   -551187.66444   -429494.23844  20749569.7234   20749569.4494
  -6409883.89244  -4994710.92744  23672872.7144   23672873.3634
 -10706312.56444  -8342578.86144  20295814.2694   20295813.3684
 96  2 24  3 25 30.0000000  0  7G20G 4G 9G16G24G 6G 5
 -17663602.21144 -13763840.72044  21420724.5934   21420724.5334
  13303743.19444  10366553.81644  23235878.6244   23235876.6464
  12819253.91344   9989026.96544  23569164.1724   23569164.6074
  -9312819.23544  -7256739.56844  22520135.3234   22520135.9364
   -508317.94144   -396089.25744  20757727.4384   20757727.4484
  -6477931.74544  -5047735.20044  23659923.6024   23659924.2134
 -10724124.63344  -8356458.38144  20292424.4414   20292423.7134
 96  2 24  3 26  0.0000000  0  7G20G 4G 9G16G24G 6G 5
 -17732938.13244 -13817868.67444  21407530.8484   21407530.9244
  13397336.32644  10439483.53244  23253689.0504   23253687.3074
  12910455.93444  10060093.45344  23586518.8114   23586520.2814
  -9394337.86544  -7320260.53044  22504623.2884   22504624.2374
   -465059.61544   -362381.47244  20765959.2734   20765959.3874
  -6545929.88844  -5100720.74744  23646984.7194   23646984.1464
 -10741449.09644  -8369957.95844  20289127.7964   20289127.1094
 96  2 24  3 26 30.0000000  0  7G20G 4G 9G16G24G 6G 5
 -17801922.83644 -13871622.96644  21394403.8514   21394403.2974
  13491026.77544  10512489.09744  23271517.2304   23271514.7884
  13001736.72244  10131221.35644  23603890.3584   23603891.8254
  -9475594.00044  -7383576.96244  22489160.7864   22489161.4474
   -421439.89544   -328392.08144  20774260.0684   20774260.0104
  -6613878.05544  -5153667.35844  23634053.5244   23634052.7374
 -10758275.61444  -8383069.52644  20285925.8924   20285925.1274
 96  2 24  3 27  0.0000000  0  7G20G 4G 9G16G24G 6G 5
 -17870553.63244 -13925101.50744  21381343.3224   21381343.3884
  13584790.86544  10585552.03244  23289359.9184   23289358.3684
  13093100.85344  10202414.16544  23621275.8724   23621276.6134
  -9556570.56444  -7446675.54944  22473750.8024   22473751.6124
   -377464.49444   -294125.53644  20782628.3194   20782628.3204
  -6681791.33944  -5206586.76544  23621130.3144   23621130.0764
 -10774608.95244  -8395796.80044  20282817.7434   20282817.0464
 96  2 24  3 27 30.0000000  0  7G20G 4G 9G16G24G 6G 5
 -17938816.90244 -13978293.67144  21368353.1844   21368353.1314
  13678650.02144  10658689.02044  23307220.5384   23307219.5654
  13184567.07344  10273686.54744  23638681.5014   23638682.2494
  -9637241.89544  -7509536.29944  22458399.9114   22458400.4524
   -333128.51044   -259578.01644  20791064.9674   20791064.9404
  -6749659.33844  -5259470.81444  23608215.3654   23608215.7764
 -10790434.86444  -8408128.68444  20279806.2904   20279805.2384
 96  2 24  3 28  0.0000000  0  7G20G 4G 9G16G24G 6G 5
 -18006741.05544 -14031221.57544  21355427.8334   21355427.6154
  13772595.90644  10731893.61744  23325098.2624   23325097.0574
  13276126.02644  10345031.20344  23656104.7394   23656105.2624
  -9717620.20744  -7572168.70844  22443104.4364   22443105.3964
   -288465.55844   -224775.71544  20799564.1184   20799563.8654
  -6817526.88244  -5312354.27944  23595300.1414   23595301.6624
 -10805774.82244  -8420081.89644  20276887.0314   20276886.3454
 96  2 24  3 28 30.0000000  0  7G20G 4G 9G16G24G 6G 5
 -18074315.58144 -14083877.02344  21342568.7104   21342568.3604
  13866619.18044  10805158.51244  23342989.8624   23342988.8924
  13367777.21344  10416447.72244  23673545.3114   23673545.9844
  -9797686.35844  -7634557.88844  22427867.9614   22427869.3084
   -243467.38444   -189712.19944  20808127.1144   20808126.7504
  -6885403.26844  -5365245.35944  23582383.4614   23582385.7844
 -10820620.76744  -8431650.16944  20274062.0454   20274061.1404
 96  2 24  3 29  0.0000000  0  7G20G 4G 9G16G24G 6G 5
 -18141541.80644 -14136261.08144  21329775.9274   21329775.7834
  13960717.24744  10878481.66444  23360896.0174   23360893.0114
  13459483.76844  10487907.39544  23690995.4474   23690996.2524
  -9877440.98644  -7696704.32344  22412691.0894   22412692.3824
   -198112.95744   -154371.08944  20816757.8634   20816757.6874
  -6953302.40444  -5418153.73944  23569463.2904   23569463.4094
 -10834972.63144  -8442833.45744  20271331.0044   20271330.3014
 96  2 24  3 29 30.0000000  0  7G20G 4G 9G16G24G 6G 5
 -18208419.66044 -14188373.73044  21317049.3404   21317048.8924
  14054921.08744  10951887.24944  23378822.6394   23378821.3594
  13551241.97644  10559407.29144  23708456.8644   23708457.4904
  -9956900.83444  -7758621.06244  22397571.2344   22397571.6174
   -152397.06144   -118748.31744  20825457.2944   20825456.9744
  -7021203.93444  -5471064.00044  23556541.3884   23556542.5634
 -10848815.16044  -8453619.84044  20268696.8824   20268695.9764
 96  2 24  3 30  0.0000000  0  7G20G 4G 9G16G24G 6G 5
 -18274943.58644 -14240210.54844  21304390.1774   21304390.1074
  14149219.28544  11025366.33444  23396766.2794   23396765.7454
  13643040.52544  10630938.63444  23725925.9694   23725927.0524
 -10036091.57244  -7820328.09944  22382501.6714   22382502.8774
   -106317.27244    -82841.98944  20834225.9534   20834225.6424
  -7089105.86244  -5523974.54244  23543620.2804   23543621.3984
 -10862144.95844  -8464006.71144  20266160.2894   20266159.4814
 96  2 24  3 30 30.0000000  0  7G20G 4G 9G16G24G 6G 5
 -18341075.15244 -14291741.61544  21291806.1564   21291805.8804
  14243622.78244  11098927.50344  23414731.4744   23414729.6414
  13734888.96244  10702508.84144  23743404.0854   23743404.0284
 -10114995.20644  -7881811.41444  22367486.4444   22367487.7124
    -59849.61844    -46633.43244  20843068.3114   20843067.9564
  -7156959.91144  -5576847.81944  23530707.9764   23530708.3344
 -10874931.02144  -8473969.88344  20263727.0294   20263726.4184
 96  2 24  3 31  0.0000000  0  7G20G 4G 9G16G24G 6G 5
 -18406788.98444 -14342947.16644  21279301.5514   21279300.9924
  14338137.64144  11172575.44744  23432716.8584   23432713.7324
  13826781.40844  10774113.35544  23760890.8344   23760890.3144
 -10193605.26944  -7943065.97544  22352527.4154   22352528.0144
    -13002.31044    -10129.04144  20851982.9024   20851983.0784
  -7224740.48144  -5629663.84744  23517810.7224   23517811.1904
 -10887185.40644  -8483518.76244  20261395.1924   20261394.2334
 96  2 24  3 31 30.0000000  0  7G20G 4G 9G16G24G 6G 5
 -18472075.95644 -14393820.15244  21266877.3624   21266877.1744
  14432760.13844  11246307.22944  23450723.2614   23450720.8814
  13918728.56844  10845760.52744  23778387.0834   23778388.7194
 -10271926.78444  -8004095.70444  22337623.3124   22337623.9934
     34207.69544     26657.97144  20860966.7854   20860966.6424
  -7292446.53944  -5682421.80144  23504925.5904   23504926.3934
 -10898918.01544  -8492661.06044  20259162.6724   20259161.9684
 96  2 24  3 32  0.0000000  0  7G20G 4G 9G16G24G 6G 5
 -18536930.23144 -14444355.93144  21254536.1454   21254535.7284
  14527470.70644  11320107.64844  23468746.0574   23468745.4144
  14010725.52144  10917446.46044  23795894.6814   23795893.8224
 -10349933.49744  -8064880.13044  22322778.8584   22322779.7124
     81776.44344     63724.53544  20870018.9644   20870018.6064
  -7360089.77644  -5735130.77244  23492053.4304   23492054.7964
 -10910123.34044  -8501392.47644  20257030.1614   20257029.5554
 96  2 24  3 32 30.0000000  0  7G20G 4G 9G16G24G 6G 5
 -18601374.90744 -14494572.55844  21242272.7204   21242272.1714
  14622257.43144  11393967.41644  23486783.1554   23486782.7984
  14102755.75244  10989158.35044  23813407.3774   23813407.1744
 -10427600.38144  -8125399.76044  22307999.7604   22308001.1604
    129670.83744    101044.83744  20879132.8464   20879132.8244
  -7427685.97444  -5787803.09944  23479190.2894   23479190.2184
 -10920811.66444  -8509721.04144  20254996.4314   20254995.6134
 96  2 24  3 33  0.0000000  0  7G20G16G 4G 9G24G 6G 5
 -18665425.84044 -14544482.41744  21230084.0924   21230083.9614
 -10504923.11444  -8185651.22044  22293285.6394   22293286.8804
  14717125.90044  11467890.87544  23504835.8384   23504833.8314
  14194817.26044  11060894.60144  23830924.7504   23830926.4394
    177873.13644    138605.05344  20888305.5554   20888305.1554
  -7495259.22844  -5840457.57944  23466332.7124   23466331.9814
 -10930991.30044  -8517653.23344  20253059.1464   20253058.1454
 96  2 24  3 33 30.0000000  0  7G20G 4G 9G16G24G 6G 5
 -18729093.31844 -14594093.44144  21217969.2424   21217968.8534
  14812080.60144  11541881.57244  23522905.0364   23522904.5944
  14286918.00344  11132661.41644  23848452.0444   23848452.8164
 -10581907.17944  -8245638.79044  22278635.6874   22278636.6184
    226379.04944    176401.87044  20897535.8594   20897535.4204
  -7562828.86844  -5893109.24344  23453474.2164   23453472.8844
 -10940650.75344  -8525180.08144  20251220.9514   20251220.1354
 96  2 24  3 34  0.0000000  0  7G20G 4G 9G16G24G 6G 5
 -18792364.89344 -14643395.93444  21205928.6204   21205928.1784
  14907119.42644  11615937.78044  23540991.1554   23540989.0044
  14379057.66544  11204458.58344  23865985.1814   23865986.0784
 -10658527.75644  -8305343.10744  22264055.5194   22264055.8024
    275191.92044    214437.87144  20906824.9294   20906824.5624
  -7630382.37644  -5945748.31444  23440619.4934   23440618.9034
 -10949782.78644  -8532295.97244  20249483.2814   20249482.5364
 96  2 24  3 34 30.0000000  0  7G20G 4G 9G16G24G 6G 5
 -18855239.13244 -14692388.88544  21193963.9104   21193963.6164
  15002225.06644  11690046.05244  23559088.8464   23559087.4474
  14471228.15044  11276279.74344  23883524.3704   23883524.8494
 -10734806.24744  -8364780.87244  22249540.3404   22249540.8864
    324308.48144    252710.51244  20916171.2784   20916170.7764
  -7697918.58944  -5998373.91344  23427767.1954   23427767.6634
 -10958414.61044  -8539022.08044  20247840.7934   20247840.0364
 96  2 24  3 35  0.0000000  0  7G20G 4G 9G16G24G 6G 5
 -18917693.49744 -14741054.59344  21182079.1054   21182079.1744
  15097405.78444  11764212.86044  23577201.5464   23577200.2634
  14563437.99144  11348131.57144  23901071.6964   23901072.6794
 -10810752.61844  -8423959.84144  22235088.0464   22235088.4654
    373760.37544    291244.45944  20925581.4044   20925581.1824
  -7765431.57744  -6050981.39744  23414919.9174   23414921.2194
 -10966536.33944  -8545350.71544  20246295.2154   20246294.5294
 96  2 24  3 35 30.0000000  0  7G20G16G 4G 9G24G 6G 5
 -18979743.09344 -14789404.92044  21170271.6324   21170271.1584
 -10886378.80044  -8482889.32044  22220696.9334   22220697.4124
  15192633.02544  11838415.89344  23595322.0894   23595321.7184
  14655668.06044  11419999.19244  23918622.2574   23918622.0844
    423548.46944    330040.37444  20935055.7864   20935055.5724
  -7832926.81144  -6103575.07144  23402076.1654   23402076.7334
 -10974165.01944  -8551295.14044  20244843.4694   20244842.6894
 96  2 24  3 36  0.0000000  0  7G20G16G 4G 9G24G 6G 5
 -19041375.71744 -14837430.36344  21158543.2224   21158542.8184
 -10961664.96544  -8541553.83244  22206370.1324   22206370.7044
  15287908.66844  11912656.62644  23613451.8984   23613452.4044
  14747917.53944  11491881.89244  23936176.7534   23936177.1634
    473697.51544    369117.55144  20944599.1344   20944598.7194
  -7900382.44544  -6156137.88044  23389239.5064   23389239.0714
 -10981275.26244  -8556835.59744  20243490.4194   20243489.6084
 96  2 24  3 36 30.0000000  0  7G20G16G 4G 9G24G 6G 5
 -19102600.79644 -14885138.18444  21146892.4534   21146892.3324
 -11036625.34044  -8599964.49344  22192105.8754   22192106.3684
  15383235.81644  11986937.51644  23631593.3554   23631590.7034
  14840175.12744  11563770.93844  23953732.9354   23953733.5364
    524204.80144    408473.87944  20954210.5124   20954210.2124
  -7967803.31944  -6208673.60444  23376409.6994   23376410.8004
 -10987863.61744  -8561969.40744  20242236.8414   20242235.9964
 96  2 24  3 37  0.0000000  0  7G20G16G 4G 9G24G 6G 5
 -19163414.42344 -14932525.39544  21135320.1364   21135319.9364
 -11111238.78744  -8658104.80644  22177907.0864   22177907.5984
  15478646.54544  12061283.53144  23649748.7474   23649745.4384
  14932446.16044  11635670.43744  23971291.5994   23971292.1144
    575078.11344    448115.42144  20963890.9884   20963890.8364
  -8035172.98544  -6261169.39944  23363589.7174   23363589.9894
 -10993907.59944  -8566679.02944  20241086.6594   20241085.9174
 96  2 24  3 37 30.0000000  0  7G20G 4G 9G16G24G 6G 5
 -19223813.38744 -14979589.52244  21123826.4254   21123826.4854
  15574141.01644  12135694.78644  23667920.4524   23667919.4624
  15024730.71544  11707580.47944  23988853.5784   23988853.2224
 -11185494.97044  -8715966.73844  22163776.7944   22163777.7194
    626306.19244    488033.40144  20973639.4504   20973639.0044
  -8102476.18744  -6313613.45344  23350782.0474   23350783.1064
 -10999409.28244  -8570966.06244  20240039.8294   20240039.0354
 96  2 24  3 38  0.0000000  0  7G20G 4G 9G16G24G 6G 5
 -19283800.47344 -15026332.71944  21112411.3414   21112411.1864
  15669711.45844  12210165.24044  23686107.7584   23686106.9104
  15117022.39644  11779496.10644  24006416.2704   24006417.2114
 -11259413.98044  -8773565.94444  22149710.3064   22149710.7214
    677854.14344    528200.63844  20983448.7444   20983448.4674
  -8169731.37844  -6366020.05844  23337984.4174   23337985.1864
 -11004385.66044  -8574843.77144  20239092.8694   20239091.8594
 96  2 24  3 38 30.0000000  0  7G20G 4G 9G16G24G 6G 5
 -19343387.20944 -15072763.94644  21101072.1554   21101072.2124
  15765362.13144  12284698.22644  23704309.9684   23704307.5784
  15209328.35544  11851422.82944  24023980.7324   24023981.8884
 -11332993.41144  -8830900.53444  22135709.0074   22135709.6564
    729699.71344    568599.78544  20993314.6964   20993314.5634
  -8236939.20444  -6418389.76344  23325194.7464   23325195.4234
 -11008858.06044  -8578328.78344  20238241.8574   20238241.2014
 96  2 24  3 39  0.0000000  0  7G20G 4G 9G16G24G 6G 5
 -19402574.83044 -15118884.17044  21089809.5864   21089809.2424
  15861087.92244  12359289.77644  23722524.9314   23722523.2634
  15301660.86644  11923370.23944  24041550.5354   24041552.1334
 -11406218.59744  -8887959.08444  22121774.3854   22121775.2214
    781841.31444    609229.60344  21003236.6294   21003236.2314
  -8304104.06744  -6470726.00344  23312413.7854   23312413.5514
 -11012824.44944  -8581419.50544  20237487.2034   20237486.3814
 96  2 24  3 39 30.0000000  0  7G20G 4G 9G16G24G 6G 5
 -19461371.86244 -15164700.06144  21078620.7774   21078620.6094
  15956847.71644  12433907.77044  23740747.2274   23740746.8304
  15394005.92444  11995327.41944  24059124.0584   24059123.5564
 -11479099.73944  -8944749.54944  22107905.7134   22107906.2814
    834253.20544    650070.04744  21013210.6614   21013210.0194
  -8371251.09944  -6523048.33244  23299635.5494   23299636.1214
 -11016294.09444  -8584123.12944  20236826.6624   20236825.8994
 96  2 24  3 40  0.0000000  0  7G20G 4G 9G16G24G 6G 5
 -19519793.33844 -15210223.29044  21067503.3664   21067503.2794
  16052625.52544  12508539.84844  23758974.0784   23758973.3594
  15486349.65744  12067283.60744  24076696.6724   24076696.8714
 -11551639.76944  -9001274.22144  22094101.2894   22094102.2164
    886918.22844    691107.73144  21023232.3314   21023231.8944
  -8438400.06444  -6575372.16644  23286857.1154   23286859.1174
 -11019275.28844  -8586446.13844  20236259.4334   20236258.4854
 96  2 24  3 40 30.0000000  0  7G20G 4G 9G16G24G 6G 5
 -19577812.32044 -15255432.88144  21056462.8834   21056462.5254
  16148438.91144  12583199.61444  23777205.7994   23777205.6484
  15578693.24544  12139239.65244  24094268.4484   24094269.5664
 -11623802.24044  -9057504.68544  22080369.0504   22080370.6244
    939866.85444    732366.39544  21033308.1094   21033307.7114
  -8505521.14644  -6627674.30744  23274084.0904   23274086.0504
 -11021730.89344  -8588359.61144  20235792.1884   20235791.4344
 96  2 24  3 41  0.0000000  0  7G20G 4G 9G16G24G 6G 5
 -19635406.87844 -15300311.74344  21045503.0574   21045502.7644
  16244265.57444  12657869.70744  23795440.8714   23795438.4514
  15671021.39544  12211183.70244  24111838.6564   24111838.8814
 -11695595.00044  -9113447.07244  22066707.8034   22066708.8274
    993104.63144    773850.37744  21043438.9874   21043438.6054
  -8572627.66544  -6679965.07844  23261314.2494   23261314.8374
 -11023659.20944  -8589862.21044  20235425.2674   20235424.3244
 96  2 24  3 41 30.0000000  0  7G20G 4G 9G16G24G 6G 5
 -19692548.07344 -15344837.33744  21034629.3614   21034629.1784
  16340106.44044  12732550.86444  23813679.2804   23813677.7084
  15763323.58044  12283107.48244  24129402.7234   24129402.6494
 -11767017.14044  -9169100.67544  22053116.3874   22053116.9984
   1046630.47644    815558.82644  21053624.5114   21053624.1914
  -8639712.07944  -6732238.63644  23248549.1684   23248549.8584
 -11025055.17244  -8590949.99844  20235159.8164   20235159.0704
 96  2 24  3 42  0.0000000  0  7G20G 4G 9G16G24G 6G 5
 -19749233.00944 -15389007.41144  21023842.6054   21023842.1614
  16435968.41944  12807248.51744  23831921.3844   23831920.6354
  15855585.05444  12354999.54144  24146959.2454   24146961.1884
 -11838086.66144  -9224479.50444  22039592.5274   22039593.2794
   1100439.79844    857488.16344  21063863.7644   21063863.6084
  -8706788.89844  -6784506.25044  23235784.5804   23235784.8294
 -11025932.32844  -8591633.51044  20234992.7244   20234992.0664
 96  2 24  3 42 30.0000000  0  7G20G 4G 9G16G24G 6G 5
 -19805414.47544 -15432785.18944  21013151.4434   21013151.1074
  16531885.00444  12881988.68344  23850174.0024   23850172.4194
  15947832.35444  12426880.58344  24164513.1644   24164514.1724
 -11908770.81044  -9279558.02644  22026141.7304   22026142.3844
   1154576.27144    899672.42244  21074166.0074   21074165.9104
  -8773826.61644  -6836743.39844  23223028.2384   23223028.4094
 -11026243.68744  -8591876.15344  20234933.3914   20234932.7404
 96  2 24  3 43  0.0000000  0  7G20G 4G 9G16G24G 6G 5
 -19861099.85144 -15476176.39244  21002555.0774   21002554.8184
  16627844.33344  12956762.16644  23868433.2794   23868431.9584
  16040073.62544  12498756.91144  24182066.0204   24182065.6054
 -11979078.74344  -9334343.39744  22012762.3704   22012762.9854
   1209028.20444    942102.49544  21084527.6614   21084527.3614
  -8840837.81944  -6888959.89644  23210276.2974   23210277.3194
 -11026001.93844  -8591687.78944  20234979.3054   20234978.6474
 96  2 24  3 43 30.0000000  0  7G20G 4G 9G16G24G 6G 5
 -19916322.04744 -15519206.65844  20992046.4614   20992046.3014
  16723848.33044  13031570.47844  23886702.8264   23886702.3514
  16132291.22444  12570614.78244  24199613.0424   24199612.4234
 -12049016.17544  -9388840.08144  21999453.5574   21999454.5544
   1263765.34844    984754.80944  21094943.7544   21094943.4304
  -8907837.07144  -6941167.11944  23197528.0234   23197528.0204
 -11025218.70544  -8591077.49844  20235128.6034   20235128.0114
 96  2 24  3 44  0.0000000  0  7G16G 4G 9G20G24G 6G 5
 -12118568.39744  -9443036.59944  21986218.3434   21986219.5134
  16819914.79744  13106427.42544  23904984.2164   23904982.7134
  16224498.75644  12642464.81144  24217160.9004   24217160.5814
 -19971095.02244 -15561886.89544  20981623.6884   20981623.3944
   1318797.09744   1027636.68744  21105416.1794   21105415.9124
  -8974808.37044  -6993352.53044  23184783.1414   23184783.5354
 -11023883.03544  -8590036.72744  20235382.7174   20235382.0194
 96  2 24  3 44 30.0000000  0  7G16G 4G 9G20G24G 6G 5
 -12187700.59844  -9496905.83444  21973063.1284   21973063.6254
  16916051.25444  13181338.92544  23923277.2304   23923275.4504
  16316711.20244  12714318.70644  24234708.2244   24234707.4464
 -20025426.29544 -15604222.96344  20971284.9274   20971284.6084
   1374143.39744   1070763.68044  21115948.4834   21115948.0954
  -9041721.48844  -7045492.59044  23172050.4734   23172050.2754
 -11021986.10944  -8588558.61544  20235743.7214   20235743.0884
 96  2 24  3 45  0.0000000  0  7G16G 4G 9G20G24G 6G 5
 -12256427.23644  -9550459.04044  21959984.5764   21959985.5704
  17012239.94944  13256291.12544  23941582.1894   23941580.6434
  16408910.55144  12786162.35744  24252253.9874   24252255.5604
 -20079344.09844 -15646236.84244  20961024.6114   20961024.1754
   1429774.04444   1114112.22744  21126534.4764   21126534.4184
  -9108584.03044  -7097593.26044  23159326.2914   23159326.3664
 -11019560.72844  -8586668.72244  20236205.1454   20236204.5494
 96  2 24  3 45 30.0000000  0  7G 4G 9G16G20G24G 6G 5
  17108480.49344  13331283.75744  23959896.2564   23959894.0194
  16501079.14144  12857982.01844  24269792.5944   24269793.5874
 -12324751.77044  -9603698.91744  21946983.0224   21946983.5664
 -20132854.48744 -15687933.22644  20950841.9154   20950841.5364
   1485683.38344   1157677.94744  21137173.5384   21137173.2264
  -9175392.93744  -7149652.11744  23146613.4814   23146612.9304
 -11016605.10244  -8584365.66144  20236767.7764   20236767.1814
 96  2 24  3 46  0.0000000  0  7G 4G 9G16G20G24G 6G 5
  17204751.23444  13406299.91044  23978215.9624   23978214.4714
  16593206.94844  12929769.93344  24287323.6824   24287324.2154
 -12392680.35444  -9656630.25944  21934056.9674   21934057.5434
 -20185958.07844 -15729312.64544  20940736.6274   20940736.6054
   1541879.58244   1201467.19344  21147867.2844   21147866.9974
  -9242144.81244  -7201666.55944  23133910.9284   23133910.2904
 -11013123.04044  -8581652.36944  20237430.3264   20237429.5864
 96  2 24  3 46 30.0000000  0  7G 4G 9G16G20G24G 6G 5
  17301027.84144  13481320.61344  23996536.8674   23996536.2274
  16685279.33244  13001514.68444  24304845.3044   24304846.7524
 -12460219.66144  -9709258.26144  21921204.2474   21921204.7754
 -20238648.59844 -15770370.18944  20930710.0484   20930709.6424
   1598347.28644   1245467.99344  21158612.5844   21158612.2824
  -9308855.61144  -7253648.98144  23121216.1514   23121215.6354
 -11009132.90844  -8578543.19644  20238189.6714   20238189.1344
 96  2 24  3 47  0.0000000  0  7G 4G 9G16G20G24G 6G 5
  17397294.03544  13556333.18944  24014855.1694   24014852.6884
  16777286.80144  13073208.84144  24322353.5944   24322354.8334
 -12527387.99944  -9761597.19644  21908422.7274   21908423.1674
 -20290893.34844 -15811080.38344  20920768.0414   20920767.6014
   1655067.21644   1289665.34444  21169406.2084   21169405.8084
  -9375535.76044  -7305607.52644  23108527.1254   23108527.9694
 -11004626.83644  -8575031.97544  20239047.0834   20239046.2984
 96  2 24  3 47 30.0000000  0  7G 4G 9G16G20G24G 6G 5
  17493555.52844  13631342.14944  24033173.5194   24033174.0554
  16869235.47044  13144857.13144  24339850.6164   24339849.5064
 -12594176.20744  -9813639.93744  21895712.7254   21895713.6504
 -20342669.67944 -15851425.58244  20910915.2504   20910914.8914
   1712051.78544   1334068.90644  21180250.1784   21180249.8804
  -9442187.65244  -7357544.06144  23095843.7754   23095844.1454
 -10999591.84544  -8571108.61944  20240005.3684   20240004.7564
 96  2 24  3 48  0.0000000  0  7G 4G 9G16G20G24G 6G 5
  17589812.85544  13706347.82344  24051490.0254   24051487.5434
  16961130.73444  13216463.81044  24357337.4514   24357338.0574
 -12660573.75844  -9865378.24744  21883077.6234   21883078.4594
 -20393966.78344 -15891397.34444  20901154.0184   20901153.7614
   1769306.50744   1378682.97044  21191145.3404   21191145.1254
  -9508810.02544  -7409457.59844  23083164.9744   23083165.5004
 -10994029.09144  -8566774.02044  20241063.9274   20241063.1784
 96  2 24  3 48 30.0000000  0  7G 4G 9G16G20G24G 6G 5
  17686080.91944  13781361.86644  24069809.4764   24069807.1514
  17052992.42744  13288044.36144  24374817.6914   24374817.0764
 -12726564.56644  -9916799.63144  21870520.1864   21870521.0254
 -20444748.80644 -15930967.75544  20891490.1984   20891490.1034
   1826841.25144   1423515.22944  21202093.9244   21202093.6454
  -9575398.30644  -7461344.55644  23070494.4404   23070494.0084
 -10987923.74044  -8562016.61944  20242225.9274   20242225.3304
 96  2 24  3 49  0.0000000  0  7G 4G 9G16G20G24G 6G 5
  17782367.38344  13856390.28744  24088131.6674   24088130.3894
  17144825.64944  13359602.74144  24392293.6414   24392293.3214
 -12792149.77844  -9967904.96244  21858040.3294   21858041.1734
 -20495021.64144 -15970141.41144  20881923.9184   20881923.3254
   1884662.91244   1468571.06544  21213096.8544   21213096.5724
  -9641951.20144  -7513203.93944  23057829.5224   23057829.7044
 -10981257.38444  -8556822.07444  20243494.2894   20243493.6854
 96  2 24  3 49 30.0000000  0  7G 4G 9G20G16G24G 6G 5
  17878696.46444  13931451.87344  24106462.7704   24106459.6634
  17236633.30944  13431141.17544  24409764.0564   24409761.3534
 -20544810.12344 -16008937.64644  20872449.2174   20872448.8834
 -12857306.14944 -10018676.13244  21845641.3574   21845641.9794
   1942782.77544   1513859.27144  21224156.8444   21224156.2514
  -9708470.65944  -7565037.27344  23045171.2614   23045170.8914
 -10974034.03344  -8551193.50944  20244868.6824   20244868.1654
 96  2 24  3 50  0.0000000  0  7G 4G 9G20G16G24G 6G 5
  17975052.18244  14006534.26144  24124798.9714   24124797.0294
  17328404.08344  13502650.89944  24427226.7234   24427227.4264
 -20594122.89344 -16047363.20044  20863065.5224   20863065.0504
 -12922033.49944 -10069112.99444  21833324.0414   21833324.5914
   2001190.98144   1559372.16244  21235271.5964   21235271.1904
  -9774962.14644  -7616848.81344  23032518.2134   23032518.5244
 -10966258.63744  -8545134.76544  20246348.3174   20246347.5594
 96  2 24  3 50 30.0000000  0  7G 4G 9G20G16G24G 6G 5
  18071411.52044  14081619.41644  24143135.6554   24143134.3664
  17420105.52944  13574106.59744  24444676.8344   24444676.5224
 -20642985.93044 -16085438.28544  20853766.7774   20853766.7644
 -12986350.38944 -10119230.02444  21821085.0784   21821085.1394
   2059858.25144   1605086.91144  21246435.6414   21246435.2504
  -9841452.66944  -7668659.59144  23019865.4644   23019865.3244
 -10957955.77844  -8538665.02044  20247928.5224   20247927.9584
 96  2 24  3 51  0.0000000  0  7G 4G 9G20G16G24G 6G 5
  18167797.97444  14156725.75844  24161477.6924   24161477.9964
  17511754.31144  13645521.21244  24462116.5974   24462117.9634
 -20691395.70544 -16123160.18444  20844555.1584   20844554.7254
 -13050225.20844 -10169002.57844  21808930.1814   21808930.3834
   2118797.99544   1651013.98244  21257651.4044   21257651.0764
  -9907904.23344  -7720440.01344  23007220.3204   23007220.4484
 -10949108.50844  -8531771.06044  20249611.9484   20249611.0754
 96  2 24  3 51 30.0000000  0  7G 4G 9G20G16G24G 6G 5
  18264202.50244  14231846.16344  24179822.9184   24179821.2064
  17603342.12344  13716888.34644  24479545.6824   24479545.1164
 -20739328.63444 -16160510.53044  20835433.7344   20835433.2844
 -13113647.63644 -10218422.62944  21796861.1374   21796861.6764
   2178009.77544   1697153.03144  21268918.9984   21268918.8194
  -9974304.30444  -7772180.31944  22994585.2134   22994585.4554
 -10939719.13444  -8524454.68744  20251398.7604   20251398.2034
 96  2 24  3 52  0.0000000  0  7G 4G 9G20G16G24G 6G 5
  18360589.13044  14306952.61844  24198165.0904   24198163.3554
  17694840.70944  13788185.94944  24496958.2194   24496957.7964
 -20786784.80944 -16197489.36844  20826403.3054   20826402.9464
 -13176652.58344 -10267517.36044  21784871.0104   21784871.5234
   2237459.27544   1743477.31544  21280231.7024   21280231.4754
 -10040671.53544  -7823895.02344  22981955.3654   22981954.7194
 -10929804.74244  -8516729.20244  20253285.4654   20253284.8994
 96  2 24  3 52 30.0000000  0  7G 4G20G 9G16G24G 6G 5
  18456967.76744  14382052.83244  24216504.9604   24216505.1044
 -20833765.83544 -16234097.96344  20817462.9344   20817462.6694
  17786263.99544  13859424.87844  24514354.7914   24514352.7074
 -13239245.83344 -10316291.29644  21772960.4434   21772960.9124
   2297144.82244   1789985.53044  21291589.3294   21291589.1234
 -10106993.28244  -7875574.29244  22969334.7284   22969334.3294
 -10919366.30544  -8508595.36744  20255271.7494   20255271.2194
 96  2 24  3 53  0.0000000  0  7G 4G20G 9G16G24G 6G 5
  18553362.23544  14457165.40744  24234848.7164   24234848.3674
 -20880233.41344 -16270306.47044  20808620.4714   20808620.0584
  17877640.71244  13930627.52344  24531743.7214   24531743.0824
 -13301393.01544 -10364717.65344  21761134.1144   21761134.6474
   2357097.05344   1836701.55244  21302997.9454   21302997.9934
 -10173246.16644  -7927199.88444  22956727.6394   22956728.1164
 -10908360.08544  -8500019.10944  20257366.0094   20257365.4614
 96  2 24  3 53 30.0000000  0  7G 4G20G 9G16G24G 6G 5
  18649764.51044  14532284.06144  24253193.1104   24253191.3454
 -20926193.89144 -16306119.83944  20799874.5294   20799874.2634
  17968948.14244  14001776.18044  24549118.2024   24549117.6204
 -13363103.04944 -10412803.37044  21749390.6584   21749391.5594
   2417290.22544   1883605.31344  21314452.2324   21314451.8744
 -10239460.90844  -7978795.74644  22944127.3994   22944127.9014
 -10896787.49044  -8491001.51844  20259568.4564   20259567.8464
 96  2 24  3 54  0.0000000  0  7G 4G20G 9G16G24G 6G 5
  18746187.24944  14607418.61544  24271540.6114   24271538.8484
 -20971671.41844 -16341556.87044  20791220.4864   20791220.0904
  18060194.06444  14072876.93144  24566482.0934   24566482.7424
 -13424372.98244 -10460546.15244  21737731.6354   21737732.2264
   2477717.39844   1930691.42044  21325951.3114   21325950.9124
 -10305638.93044  -8030363.01344  22931533.8944   22931533.2304
 -10884654.41044  -8481547.18044  20261877.3474   20261876.7624
 96  2 24  3 54 30.0000000  0  7G 4G20G 9G16G24G 6G 5
  18842615.65244  14682557.60044  24289890.4514   24289889.9244
 -21016685.69444 -16376632.93044  20782654.3544   20782653.9744
  18151364.57044  14143918.85744  24583831.7894   24583834.4904
 -13485196.07844 -10507940.74944  21726157.6224   21726158.1994
   2538373.54044   1977955.93744  21337493.7254   21337493.5844
 -10371786.15144  -8081906.27344  22918946.5064   22918945.9384
 -10871968.87744  -8471662.36544  20264291.2814   20264290.4844
 96  2 24  3 55  0.0000000  0  7G16G20G 4G 9G24G 6G 5
 -13545554.95344 -10554973.61644  21714671.2264   21714671.7234
 -21061224.34944 -16411338.37544  20774178.9594   20774178.5284
  18939056.30344  14757706.13244  24308241.5054   24308241.5294
  18242445.05644  14214890.64044  24601162.8954   24601165.2304
   2599257.19944   2025397.74444  21349079.7734   21349079.4524
 -10437899.21444  -8133422.90944  22906365.5944   22906365.2834
 -10858729.29644  -8461345.82444  20266810.9004   20266810.2854
 96  2 24  3 55 30.0000000  0  7G16G20G 4G 9G24G 6G 5
 -13605457.24344 -10601650.70544  21703272.7514   21703273.2224
 -21105291.67644 -16445676.55244  20765793.2364   20765792.9884
  19035514.03544  14832867.98044  24326597.0374   24326599.3084
  18333434.39144  14285791.44544  24618478.7894   24618479.8804
   2660369.40344   2073017.64044  21360709.0254   21360708.6814
 -10503958.86944  -8184897.93844  22893795.2254   22893794.0044
 -10844953.66644  -8450611.58844  20269432.1394   20269431.4714
 96  2 24  3 56  0.0000000  0  7G16G20G 4G 9G24G 6G 5
 -13664918.14344 -10647983.85144  21691957.5994   21691958.2494
 -21148886.88044 -16479646.83644  20757497.3154   20757497.0214
  19131977.97644  14908034.72044  24344953.2904   24344952.9454
  18424330.54444  14356619.61144  24635774.6504   24635774.4994
   2721732.09944   2120832.72844  21372385.7294   21372385.8914
 -10569962.09044  -8236328.99244  22881234.3664   22881234.9294
 -10830655.15344  -8439469.90344  20272153.1624   20272152.6424
 96  2 24  3 56 30.0000000  0  7G16G20G 4G 9G24G 6G 5
 -13723935.76044 -10693971.58044  21680726.7584   21680727.1794
 -21191987.30844 -16513231.58644  20749295.5664   20749295.2354
  19228440.93944  14983200.61844  24363309.5204
  18515118.72644  14427363.60444  24653050.9904   24653051.0124
   2783348.99144   2168845.88444  21384111.3584   21384111.1074
 -10635920.45744  -8287725.09044  22868683.3094   22868683.4794
 -10815832.09944  -8427919.48444  20274973.8764   20274973.1814
 96  2 24  3 57  0.0000000  0  7G16G20G 4G 9G24G 6G 5
 -13782528.14744 -10739627.96444  21669577.3004   21669577.7544
 -21234594.67544 -16546432.13544  20741187.5034   20741187.2414
  19324898.58444  15058362.33244  24381666.5584
  18605798.84744  14498023.46644  24670307.1284   24670305.5984
   2845211.61344   2217050.51644  21395883.4994   21395883.1744
 -10701847.52044  -8339096.80744  22856137.5114   22856137.7494
 -10800492.63744  -8415966.66544  20277892.7394   20277892.0874
 96  2 24  3 57 30.0000000  0  7G16G20G 4G 9G24G 6G 5
 -13840692.66244 -10784950.93744  21658508.7244   21658509.3554
 -21276698.09044 -16579240.00144  20733175.8484   20733175.4704
  19421337.62644  15133509.54844  24400017.8514   24400013.6424
  18696389.70544  14568613.75044  24687545.9824   24687546.4904
   2907331.74744   2265455.81244  21407704.3924   21407704.4924
 -10767748.42844  -8390448.13144  22843597.3664   22843596.9364
 -10784621.02844  -8403599.19444  20280913.2184   20280912.6304
 96  2 24  3 58  0.0000000  0  7G20G 4G 9G16G24G 6G 5
 -21318289.65444 -16611649.03644  20725261.4524   20725260.9894
  19517747.72744  15208634.30744  24418365.1324
  18786891.48144  14639134.61344  24704766.9734   24704772.9664
 -13898413.92544 -10829928.51744  21647524.4864   21647524.9544
   2969702.84744   2314056.66344  21419573.0924   21419573.0514
 -10833639.77044  -8441791.99844  22831058.6554   22831058.0534
 -10768211.16644  -8390812.30844  20284035.7464   20284035.2684
 96  2 24  3 58 30.0000000  0  7G20G 4G 9G16G24G 6G 5
 -21359364.35944 -16643655.30344  20717444.9884   20717445.0304
  19614123.18644  15283732.03144  24436704.5164   24436703.1884
  18877305.09744  14709586.80844  24721973.3974   24721975.2484
 -13955676.99244 -10874549.05744  21636627.6934   21636628.3894
   3032300.45744   2362834.02044  21431485.0964   21431484.9434
 -10899522.57644  -8493129.23244  22818521.5254   22818520.8844
 -10751259.60244  -8377603.32044  20287261.6544   20287260.9424
 96  2 24  3 59  0.0000000  0  7G16G20G 4G 9G24G 6G 5
 -14012495.46944 -10918823.17544  21625815.4114   21625816.2184
 -21399943.30144 -16675275.25344  20709722.7404   20709722.6534
  19710439.33144  15358783.48544  24455032.7214   24455028.8724
  18967618.00244  14779960.52444  24739158.1134   24739161.2974
   3095104.04444   2411771.86544  21443436.4064   21443436.3024
 -10965404.13944  -8544465.48744  22805984.3564   22805984.4994
 -10733774.89344  -8363978.89344  20290588.8314   20290588.2764
 96  2 24  3 59 30.0000000  0  8G16G20G17G 4G 9G24G 6G 5
 -14068821.66044 -10962713.69044  21615096.8914   21615097.3564
 -21439994.59844 -16706484.06044  20702101.6364   20702101.2514
        -0.68954                  25504868.8074
  19806724.23444  15433810.64244  24473355.0384   24473353.1794
  19057844.24544  14850266.69844  24756329.0374   24756328.1734
   3158137.48844   2460888.83644  21455430.8854   21455431.1014
 -11031241.81444  -8595767.53044  22793455.6974   22793455.8844
 -10715719.32244  -8349909.63944  20294024.7714   20294024.1714
 96  2 24  4  0  0.0000000  0  8G16G20G17G 4G 9G24G 6G 5
 -14124675.61744 -11006236.22544  21604468.4784   21604468.9064
 -21479540.02544 -16737298.67344  20694576.2384   20694575.8524
    -98380.56844                  25486149.3894
  19902974.49044  15508810.75844  24491671.9384   24491671.0314
  19147944.90244  14920475.03344  24773473.9264   24773474.5784
   3221364.66644   2510156.76544  21467462.7514   21467462.6244
 -11097042.62444  -8647040.83744  22780934.6864   22780934.4684
 -10697111.17544  -8335409.79844  20297565.7904   20297564.9904
 96  2 24  4  0 30.0000000  0  7G16G20G 4G 9G24G 6G 5
 -14180033.89544 -11049372.51844  21593933.9834   21593934.7764
 -21518555.21844 -16767700.12044  20687152.1404   20687151.5864
  19999220.95344  15583807.98044  24509987.3024   24509986.3664
  19237942.40544  14990602.97444  24790601.1834   24790599.0684
   3284809.81744   2559594.54244  21479535.9914   21479535.8034
 -11162767.01244  -8698254.58844  22768427.5854   22768428.3034
 -10677909.62644  -8320447.56744  20301219.6514   20301218.8714
 96  2 24  4  1  0.0000000  0  7G16G20G 4G 9G24G 6G 5
 -14234921.92744 -11092142.39244  21583488.9804   21583489.5394
 -21557070.68144 -16797712.16144  20679822.5114   20679822.2444
  20095439.99544  15658783.79544  24528295.9554   24528292.5194
  19327812.85044  15060631.89344  24807701.9524   24807702.4364
   3348461.98844   2609193.63244  21491648.4584   21491648.0954
 -11228426.45644  -8749417.75344  22755933.0884   22755933.5174
 -10658144.09744  -8305045.87944  20304980.8184   20304980.3274
 96  2 24  4  1 30.0000000  0  7G16G20G 4G 9G24G 6G 5
 -14289336.11344 -11134543.03844  21573134.4944   21573134.8574
 -21595075.59144 -16827326.37944  20672590.4354   20672590.2084
  20191654.10744  15733755.82744  24546605.7584   24546602.4314
  19417567.65744  15130570.72744  24824782.6534   24824780.5054
   3412328.86844   2658960.02644  21503801.6634   21503801.6274
 -11294012.32844  -8800523.59444  22743452.3174   22743452.0044
 -10637813.58544  -8289203.94944  20308849.7154   20308849.2524
 96  2 24  4  2  0.0000000  0  8G16G20G17G 4G 9G24G 6G 5
 -14343260.34744 -11176561.91044  21562873.0544   21562873.3494
 -21632539.23744 -16856518.84844  20665461.5994   20665461.3734
        -1.20854                  25411521.3254
  20287888.17344  15808743.41244  24564917.6914   24564917.5554
  19507234.01644  15200440.67044  24841843.7284   24841843.4634
   3476440.42244   2708917.07844  21516001.8694   21516002.2064
 -11359520.58544  -8851568.93944  22730986.9644   22730986.4224
 -10616915.00544  -8272919.35444  20312826.5394   20312825.9974
 96  2 24  4  2 30.0000000  0  8G16G20G17G 4G 9G24G 6G 5
 -14396700.96144 -11218203.93144  21552703.3984   21552704.0434
 -21669480.16844 -16885303.98944  20658432.0684   20658431.7584
    -97697.94544                  25392932.1484
  20384122.01044  15883730.80744  24583230.8904   24583231.8344
  19596791.37144  15270225.59344  24858886.6464   24858884.8174
   3540788.84344   2759058.69844  21528246.7874   21528247.2824
 -11424973.94044  -8902571.52644  22718531.3264   22718530.5144
 -10595478.86644  -8256215.89744  20316906.0064   20316905.4824
 96  2 24  4  3  0.0000000  0  8G16G20G17G 4G 9G24G 6G 5
 -14449666.25244 -11259475.57344  21542624.6454   21542625.1204
 -21705895.62844 -16913679.68244  20651502.1344   20651501.9984
   -195287.53344                  25374362.7004
  20480352.78044  15958715.79544  24601541.6664   24601538.4734
  19686231.61544  15339919.37744  24875905.5364
   3605369.58044   2809381.34644  21540536.3454   21540536.3494
 -11490381.39744  -8953538.33144  22706085.1864   22706085.3964
 -10573519.38944  -8239104.63444  20321084.5874   20321084.1024
 96  2 24  4  3 30.0000000  0  8G16G24G20G17G 4G 9G 6G 5
 -14502160.56844 -11300380.22244  21532635.3924   21532635.8374
   3670156.43644   2859864.60644  21552864.8024   21552864.8584
 -21741784.41044 -16941644.97544  20644672.6694   20644672.5224
   -292805.40744                  25355806.2854
  20576574.06444  16033693.41844  24619853.5194   24619849.3564
  19775531.17044  15409503.46244  24892898.7674   24892899.1204
 -11555769.26844  -9004489.90444  22693641.7554   22693641.3004
 -10551048.09744  -8221594.54744  20325360.5974   20325360.0564
 96  2 24  4  4  0.0000000  0  8G16G20G17G 4G 9G24G 6G 5
 -14554165.60744 -11340903.61544  21522739.2764   21522739.7014
 -21777146.43444 -16969199.81144  20637943.6254   20637943.2584
   -390257.01844                  25337263.5704
  20672768.49844  16108650.09744  24638158.4784   24638157.0014
  19864688.12144  15478976.38944  24909865.1704
   3735145.04044   2910505.06444  21565232.1314   21565231.7344
 -11621132.66144  -9055422.40344  22681203.1654   22681203.5534
 -10528057.45044  -8203679.77444  20329735.8494   20329735.1124
 96  2 24  4  4 30.0000000  0  8G16G24G20G17G 4G 9G 6G 5
 -14605676.87844 -11381042.25644  21512936.5544   21512937.1654
   3800326.01344   2961295.41844  21577635.5444   21577635.2334
 -21811992.48444 -16996352.57844  20631312.6884   20631312.1524
   -487619.46444   -379962.98644  25318735.8454
  20768920.13244  16183573.43144  24656456.0934   24656455.7264
  19953709.52444  15548343.76444  24926805.7204   24926806.6894
 -11686454.36844  -9106322.41444  22668773.3954   22668773.3144
 -10504528.20744  -8185345.31444  20334213.1124   20334212.4734
 96  2 24  4  5  0.0000000  0  8G16G24G20G17G 4G 9G 6G 5
 -14656704.61344 -11420804.11144  21503226.1624   21503226.7524
   3865688.84044   3012227.48144  21590073.5324   21590073.3194
 -21846316.92544 -17023098.90444  20624780.8974   20624780.5264
   -584888.58944                  25300226.1854
  20865004.50444  16258444.39244  24674740.2534   24674739.7144
  20042598.49844  15617607.89544  24943720.3264   24943717.4534
 -11751744.96044  -9157198.18544  22656348.4384   22656347.9194
 -10480462.41244  -8166592.77444  20338792.9504   20338792.4794
 96  2 24  4  5 30.0000000  0  8G16G24G20G17G 4G 9G 6G 5
 -14707207.52044 -11460157.00744  21493616.0764   21493616.7674
   3931253.39944   3063316.74544  21602550.3014   21602550.0784
 -21880097.46144 -17049421.40944  20618352.9034   20618352.6934
   -682028.36244   -531450.46844  25281735.4774
  20961029.15744  16333268.82044  24693011.8074   24693010.8954
  20131383.86944  15686791.33644  24960617.1884   24960617.7504
 -11816984.22444  -9208033.96144  22643933.9224   22643934.2374
 -10455836.02144  -8147403.40444  20343479.0494   20343478.5414
 96  2 24  4  6  0.0000000  0  8G16G24G20G17G 4G 9G 6G 5
 -14757212.17544 -11499121.65844  21484100.5734   21484101.0284
   3997010.05944   3114555.69044  21615063.1014   21615063.1504
 -21913357.27844 -17075338.15944  20612023.4684   20612023.2894
   -779036.20644                  25263271.6154
  21056969.42544  16408027.48544  24711268.7204   24711266.3424
  20220049.49444  15755881.45044  24977488.8274   24977490.4224
 -11882182.10944  -9258837.51144  22631527.3474   22631527.2724
 -10430661.03144  -8127786.54444  20348269.7674   20348269.2344
 96  2 24  4  6 30.0000000  0  8G16G24G20G17G 4G 9G 6G 5
 -14806732.04544 -11537708.55644  21474677.1614   21474677.4384
   4062959.74344   3165945.04544  21627612.9674   21627612.9404
 -21946093.74844 -17100847.10744  20605793.9884   20605793.7964
   -875912.99444   -682529.43144  25244836.3774
  21152844.10644  16482735.00444  24729513.1064   24729511.9704
  20308578.57244  15824865.15644  24994334.8834   24994334.2284
 -11947349.22044  -9309617.08244  22619126.6874   22619126.2294
 -10404951.54744  -8107753.19644  20353161.9424   20353161.5554
 96  2 24  4  7  0.0000000  0  8G16G24G20G17G 4G 9G 6G 5
 -14855751.16844 -11575905.26344  21465349.4944   21465349.8424
   4129135.25944   3217510.37044  21640205.7944   21640205.7064
 -21978278.13444 -17125925.85644  20599669.5224   20599669.1634
   -972641.45644                  25226432.1934
  21248690.73944  16557420.65744  24747750.5034   24747751.3104
  20396988.16344  15893755.79244  25011159.6994   25011163.8694
 -12012469.53944  -9360360.17944  22606734.4954   22606733.9524
 -10378691.85244  -8087291.12144  20358159.0954   20358158.6804
 96  2 24  4  7 30.0000000  0  8G16G24G20G17G 4G 9G 6G 5
 -14904259.99144 -11613704.33444  21456117.9354   21456118.4884
   4195532.37844   3269248.37944  21652840.9974   21652840.6664
 -22009919.33244 -17150581.34744  20593648.5694   20593648.3384
  -1069212.27044   -833152.15144  25208060.4544   25208062.3704
  21344538.87244  16632107.53244  24765990.4244
  20485270.80344  15962547.43444  25027959.0964   25027958.3664
 -12077532.10744  -9411058.26044  22594353.7444   22594352.7504
 -10351871.70344  -8066392.32944  20363262.9694   20363262.5204
 96  2 24  4  8  0.0000000  0  8G16G24G 6G20G17G 4G 9G 5
 -14952286.69144 -11651127.72344  21446979.1164   21446979.5954
   4262130.99144   3321143.39344  21665514.2634   21665513.5584
 -12142539.65044  -9461713.47144  22581983.3054   22581981.8144
 -22041028.45344 -17174822.23244  20587728.7974   20587728.3014
  -1165646.08444   -908295.34644  25189711.5274   25189707.9404
  21440396.11044  16706801.51244  24784231.7524   24784227.1204
  20573404.29144  16031222.88144  25044731.5834   25044730.4254
 -10324503.60544  -8045066.57544  20368470.8014   20368470.2364
 96  2 24  4  8 30.0000000  0  8G16G24G 6G20G17G 4G 9G 5
 -14999819.58144 -11688166.32044  21437933.9644   21437934.2724
   4328909.91544   3373178.90944  21678221.7054   21678221.1484
 -12207501.29944  -9512332.93244  22569621.9184   22569621.0004
 -22071612.05644 -17198653.62344  20581908.7744   20581908.3144
  -1261961.36544   -983346.25944  25171383.5684   25171381.1444
  21536248.22944  16781491.47244  24802473.0304   24802471.3784
  20661373.98644  16099770.77744  25061470.2744
 -10296587.89244  -8023314.08144  20373783.1024   20373782.6654
 96  2 24  4  9  0.0000000  0  8G16G24G 6G20G17G 4G 9G 5
 -15046836.07944 -11724802.54044  21428986.7414   21428987.3334
   4395865.28744   3425351.91244  21690962.9574   21690962.7674
 -12272397.68444  -9562901.52844  22557271.8564   22557270.9554
 -22101649.32344 -17222059.29244  20576192.6994   20576192.5434
  -1358149.34044  -1058297.92044  25153080.5464   25153075.7514
  21632085.14244  16856169.63944  24820711.0144   24820705.4904
  20749197.05544  16168204.28444  25078182.8404
 -10268103.10844  -8001118.16944  20379203.4704   20379203.0264
 96  2 24  4  9 30.0000000  0  8G16G24G 6G20G17G 4G 9G 5
 -15093345.46644 -11761043.60844  21420136.1934   21420136.9244
   4462963.12244   3477635.92344  21703730.9134   21703730.7504
 -12337245.99544  -9613432.65544  22544931.9064   22544931.2854
 -22131149.78844 -17245046.68644  20570579.2994   20570578.9684
  -1454233.40344  -1133168.64944  25134794.8164   25134791.6174
  21727879.67844  16930814.73044  24838940.1984   24838938.6484
  20836848.75844  16236504.31744  25094860.6414   25094861.0904
 -10239070.52344  -7978495.40544  20384728.2774   20384727.9464
 96  2 24  4 10  0.0000000  0  8G16G24G 6G20G17G 4G 9G 5
 -15139352.24944 -11796893.03144  21411381.6294   21411381.9534
   4530219.41744   3530043.40844  21716529.6974   21716529.6184
 -12402044.82244  -9663925.21344  22532600.4954   22532599.6404
 -22160108.48144 -17267611.91044  20565068.6114   20565068.4474
  -1550223.09844  -1207965.83144  25116529.3684   25116525.0914
  21823602.95844  17005404.30544  24857155.1964   24857155.0964
  20924335.95844                  25111510.2884
 -10209504.99644  -7955457.35244  20390354.3054   20390353.9344
 96  2 24  4 10 30.0000000  0  8G16G24G 6G20G17G 4G 9G 5
 -15184852.50944 -11832347.76444  21402723.1294   21402723.4894
   4597655.97144   3582591.36044  21729361.8544   21729362.3924
 -12466805.34644  -9714387.93144  22520277.1514   22520277.0424
 -22188525.42944 -17289754.99844  20559660.7834   20559660.4754
  -1646105.99444  -1282679.79044  25098278.6174
  21919238.05244  17079925.15544  24875354.1734
  21011666.82444  16372726.17444  25128127.4154
 -10179411.88744  -7932008.20044  20396081.0224   20396080.5914
 96  2 24  4 11  0.0000000  0  7G16G24G 6G20G 4G 9G 5
 -15229873.63344 -11867429.14544  21394155.7774   21394156.1474
   4665283.08044   3635287.80244  21742231.3164   21742231.1904
 -12531523.47044  -9764817.61544  22507961.4164   22507960.8274
 -22216400.96644 -17311476.19744  20554356.4234   20554356.1484
  22014781.51844  17154374.61944  24893535.7544
  21098838.53244  16440652.20844  25144716.7204   25144719.0284
 -10148819.03544  -7908169.63344  20401902.6534   20401902.1494
 96  2 24  4 11 30.0000000  0  7G16G24G 6G20G 4G 9G 5
 -15274371.20744 -11902102.56944  21385688.3324   21385688.9294
   4733164.73244   3688182.58444  21755148.6434   21755148.9594
 -12596148.44944  -9815174.72544  22495663.9194   22495663.1884
 -22243705.76744 -17332752.67444  20549160.4954   20549160.0834
  22110284.26944  17228792.34944  24911708.5534
  21185890.63944  16508485.00444  25161282.7004
 -10117688.86644  -7883912.37144  20407826.4724   20407825.9234
 96  2 24  4 12  0.0000000  0  8G16G24G 6G20G17G 4G 9G 5
 -15318311.10844 -11936341.43844  21377326.9394   21377327.0864
   4801323.26144   3741293.10544  21768118.9824   21768119.1104
 -12660658.68244  -9865442.42144  22483387.9414   22483387.2764
 -22270417.62444 -17353567.11644  20544077.3184   20544077.4144
        -0.48154        -0.82354  25043703.1734
  22205767.32044                  24929878.3844
  21272836.62244  16576235.16444  25177827.0894   25177827.5794
 -10085994.56244  -7859215.53244  20413857.7104   20413857.2344
 96  2 24  4 12 30.0000000  0  8G16G24G 6G20G17G 4G 9G 5
 -15361764.69144 -11970201.35944  21369057.6994   21369058.0944
   4869659.89444   3794542.41444  21781123.0884   21781123.1324
 -12725135.88144  -9915684.38644  22471118.5164   22471118.0934
 -22296608.89344 -17373975.90444  20539093.3944   20539093.0164
    -95303.47944    -74262.89144  25025568.3564   25025571.7324
  22301170.26744  17377534.66544  24948032.9624
  21359573.53744  16643822.41644  25194333.7694   25194332.4184
 -10053795.02744  -7834125.01544  20419985.0194   20419984.6054
 96  2 24  4 13  0.0000000  0  8G16G24G 6G20G17G 4G 9G 5
 -15404716.43044 -12003670.23844  21360884.3904   21360884.8024
   4938144.71644   3847907.19844  21794155.3204   21794155.2414
 -12789566.79544  -9965890.29444  22458857.8534   22458857.0814
 -22322282.23044 -17393981.11144  20534207.8654   20534207.8734
   -190506.27144   -148446.94144  25007454.4874   25007456.8004
  22396508.42644                  24966175.2334
  21446097.81744  16711243.93144  25210798.0064   25210796.4914
 -10021078.34144  -7808631.51744  20426211.1214   20426210.6654
 96  2 24  4 13 30.0000000  0  8G16G24G 6G20G17G 4G 9G 5
 -15447135.97044 -12036724.41144  21352811.9244   21352812.2904
   5006760.51644   3901374.04244  21807212.3324   21807211.9434
 -12853966.43044 -10016071.80444  22446603.4124   22446602.8954
 -22347436.00044 -17413581.46444  20529421.0914   20529421.1404
   -285604.94344   -222549.84144  24989359.5714   24989357.5794
  22491789.48644                  24984306.6274
  21532417.39644  16778505.97344  25227224.6554   25227229.5794
  -9987814.85044  -7782711.93344  20432540.8384   20432540.3684
 96  2 24  4 14  0.0000000  0  7G16G24G20G17G 9G 6G 5
 -15489035.56844 -12069373.43344  21344839.0914   21344839.4474
   5075481.05044   3954922.50744  21820289.3214   21820288.8914
 -22372071.57644 -17432778.03144  20524733.3364   20524732.9714
   -380602.84744   -296574.16444  24971280.7394   24971279.9824
  21618522.09044  16845600.55044  25243609.3064   25243608.9104
 -12918353.02744 -10066243.17144  22434350.7354   22434349.9934
  -9953997.30644  -7756360.62444  20438975.8214   20438975.4264
 96  2 24  4 14 30.0000000  0  7G16G24G 6G20G17G 9G 5
 -15530410.70744 -12101613.79444  21336965.4874   21336965.9734
   5144316.47344   4008560.48444  21833388.0834   21833387.7804
 -12982712.34244 -10116393.27544  22422103.1284   22422102.6324
 -22396179.80544 -17451563.66544  20520145.6344   20520145.2024
   -475479.91144   -370504.37544  24953225.5154   24953223.0294
  21704444.77644  16912553.28444  25259959.3204   25259961.6404
  -9919617.55944  -7729571.24744  20445518.1654   20445517.8414
 96  2 24  4 15  0.0000000  0  8G16G24G 6G20G17G25G 9G 5
 -15571243.49844 -12133431.54044  21329195.4214   21329195.9224
   5213289.91144   4062306.00844  21846514.0244   21846513.6184
 -13047034.13544 -10166514.15544  22409863.3694   22409862.7874
 -22419742.99644 -17469924.60144  20515661.5734   20515661.1834
   -570209.69144   -444319.75944  24935197.4914   24935197.3784
        -0.57454                  25098542.2984
  21790216.47344  16979388.37844  25276281.8124   25276283.6374
  -9884681.69244  -7702348.51944  20452166.3574   20452165.9644
 96  2 24  4 15 30.0000000  0  8G16G24G 6G20G17G25G 9G 5
 -15611503.53844 -12164802.99344  21321533.9684   21321534.3694
   5282453.42244   4116199.63444  21859675.1924   21859675.1674
 -13111295.58844 -10216588.00944  22397634.9164   22397634.3534
 -22442706.28444 -17487818.07944  20511291.9864   20511291.9324
   -664758.07044   -517993.80844  24917202.4124
    -28600.90544                  25093100.7304
  21875861.73344  17046124.96644  25292579.3544   25292579.1704
  -9849176.69244  -7674682.31944  20458922.7904   20458922.2254
 96  2 24  4 16  0.0000000  0  8G16G24G 6G20G17G25G 9G 5
 -15651220.43044 -12195751.20744  21313976.2024   21313976.7734
   5351794.31444   4170231.48544  21872870.2234   21872870.1784
 -13175508.94244 -10266624.38244  22385415.4914   22385414.2244
 -22465082.60644 -17505254.18644  20507033.6214   20507033.6514
   -759156.46744                  24899237.2474
    -56700.07144                  25087758.4654
  21961341.99644  17112732.97844  25308845.8014   25308845.7324
  -9813155.25244  -7646613.69344  20465777.3834   20465776.9594
 96  2 24  4 16 30.0000000  0  8G16G24G 6G20G17G25G 9G 5
 -15690380.92044 -12226265.86444  21306523.9764   21306524.6154
   5421325.78544   4224411.84744  21886101.6784   21886101.4994
 -13239660.83444 -10316612.86144  22373207.5514   22373207.0914
 -22486859.43744 -17522223.16044  20502889.7824   20502889.5954
   -853401.27344                  24881304.9914
    -84277.23044                  25082515.0734
  22046665.44544  17179218.76644  25325081.8324
  -9776633.37944  -7618155.10644  20472727.5634   20472727.1924
 96  2 24  4 17  0.0000000  0  8G16G24G 6G20G17G25G 9G 5
 -15728962.63244 -12256329.52944  21299182.2464   21299182.7854
   5491070.08944   4278758.04844  21899373.4904   21899373.4134
 -13303721.67844 -10366530.38644  22361016.9154   22361016.6114
 -22508008.23244 -17538702.77044  20498865.3154   20498864.9654
   -947486.47844                  24863403.3774
   -111292.97844                  25077378.1964
  22131833.75744  17245583.76844  25341288.9824   25341287.0294
  -9739580.48944  -7589282.73844  20479778.1924   20479777.7394
 96  2 24  4 17 30.0000000  0  7G16G24G 6G20G17G 9G 5
 -15766980.20244 -12285953.60344  21291947.6294   21291948.0554
   5560992.86544   4333243.31644  21912679.6834   21912679.2134
 -13367693.03644 -10416378.16844  22348843.2904   22348842.9434
 -22528548.72344 -17554708.36744  20494956.7624   20494956.4054
  -1041436.92744   -811509.84144  24845525.8314
  22216823.48244                  25357462.3574
  -9701996.56344  -7559996.59844  20486930.6304   20486930.2864
 96  2 24  4 18  0.0000000  0  7G16G24G 6G20G17G 9G 5
 -15804458.09744 -12315157.15044  21284815.9994   21284816.3014
   5631065.32344   4387845.22644  21926013.8674   21926013.7394
 -13431575.02344 -10466156.32544  22336687.1144   22336686.9774
 -22548517.40344 -17570268.39144  20491156.6864   20491156.3294
  -1135258.90844   -884617.91744  24827673.3734   24827668.1594
  22301624.61744                  25373598.7034
  -9663876.32044  -7530292.54644  20494184.4054   20494184.0004
 96  2 24  4 18 30.0000000  0  8G16G24G 6G20G17G25G 9G 5
 -15841370.75244 -12343920.24744  21277791.8054   21277792.2044
   5701320.20244   4442589.27644  21939383.0104   21939382.6404
 -13495317.89944 -10515826.08844  22324557.1454   22324556.5294
 -22567894.08044 -17585367.11844  20487469.5934   20487469.2854
  -1228906.75244   -957590.30544  24809851.8424   24809850.9144
        -0.31454                  25062562.9204
  22386278.53144                  25389708.6304
  -9625161.71244  -7500125.34744  20501551.4294   20501551.1364
 96  2 24  4 19  0.0000000  0  8G16G24G 6G20G17G25G 9G 5
 -15877865.40244 -12372357.62844  21270846.8304   21270847.0454
   5771613.69544   4497363.42144  21952759.3604   21952758.9954
 -13559063.42844 -10565497.91444  22312427.1914   22312426.7384
 -22586821.76944 -17600115.97444  20483867.8114   20483867.4734
  -1322518.52944  -1030534.54144  24792038.6544   24792036.2944
    -25024.55244                  25057800.0584
  22470635.02644                  25405760.5054
  -9585985.30544  -7469598.28844  20509006.4844   20509006.0984
 96  2 24  4 19 30.0000000  0  8G16G24G 6G20G17G25G 9G 5
 -15913859.48144 -12400404.95344  21263997.7184   21263997.9784
   5842019.57244   4552225.14444  21966157.2044   21966156.6384
 -13622749.39044 -10615123.30944  22300308.0294   22300307.8994
 -22605236.38144 -17614465.04344  20480363.4904   20480363.2134
  -1416003.19544  -1103379.78044  24774249.2764   24774246.7314
    -49609.48844                  25053118.4634
  22554761.75444                  25421769.8684
  -9546294.36444  -7438670.30544  20516559.4714   20516559.1864
 96  2 24  4 20  0.0000000  0  8G16G24G 6G20G17G25G 9G 5
 -15949311.22144 -12428029.68144  21257251.1744   21257251.5864
   5912602.85244   4607225.08544  21979588.6574   21979588.5154
 -13686342.53644 -10664676.36744  22288206.5364   22288205.5454
 -22623097.22344 -17628382.59844  20476964.7794   20476964.5394
  -1509308.17944  -1176084.95244  24756493.4704   24756496.8614
    -73713.38544                  25048530.8714
  22638692.24744                  25437741.1064
  -9506058.12844  -7407317.43944  20524216.2614   20524215.9154
 96  2 24  4 20 30.0000000  0  8G16G24G 6G20G17G25G 9G 5
 -15984200.91344 -12455216.45044  21250611.9804   21250612.6464
   5983362.22844   4662362.25144  21993053.5384   21993053.3174
 -13749861.28444 -10714171.48344  22276119.3234   22276118.9434
 -22640385.78344 -17641854.21044  20473674.9874   20473674.9674
  -1602429.90344  -1248647.38844  24738772.5844   24738773.8244
    -97323.05144    -75836.21444  25044039.4054   25044034.5914
  22722416.42444                  25453673.6044
  -9465279.63544  -7375542.01744  20531976.2534   20531975.9254
 96  2 24  4 21  0.0000000  0  8G16G24G 6G20G17G25G 9G 5
 -16018505.13444 -12481947.00844  21244084.1284   21244084.6314
   6054289.63544   4717630.35544  22006550.9204   22006550.5034
 -13813335.73844 -10763632.07544  22264040.8034   22264040.1324
 -22657084.76344 -17654866.40944  20470497.2014   20470496.8434
  -1695382.36044  -1321077.85944  24721083.4694   24721087.6214
   -120450.18644    -93857.41844  25039638.3674   25039630.1764
  22805925.28744                  25469563.5454
  -9423976.99244  -7343358.15044  20539835.7314   20539835.2964
 96  2 24  4 21 30.0000000  0  8G16G24G 6G20G17G25G 9G 5
 -16052255.20344 -12508245.75644  21237661.9244   21237662.4574
   6125338.94444   4772993.45844  22020071.5834   22020070.8684
 -13876822.88544 -10813102.55444  22251959.7044   22251958.9224
 -22673233.64144 -17667449.96244  20467424.1894   20467423.9344
  -1788213.65444  -1393413.95344  24703417.2844   24703421.6964
   -143145.46644   -111542.04044  25035319.4834   25035314.2994
  22889177.29744                  25485408.4064
  -9382197.94844  -7310803.07144  20547786.1604   20547785.6974
 96  2 24  4 22  0.0000000  0  7G16G24G20G17G25G 6G 5
 -16085435.47444 -12534100.50944  21231347.9194   21231348.4944
   6196523.75344   4828462.13744  22033617.2774   22033617.0914
 -22688788.86744 -17679570.93444  20464464.0184   20464463.7624
  -1880911.10644  -1465645.74444  24685778.1204   24685778.6284
   -165383.33444                  25031087.0774   25031084.7204
 -13940295.95744 -10862562.09744  22239881.1104   22239880.5894
  -9339897.90844  -7277842.02244  20555835.4354   20555835.1484
 96  2 24  4 22 30.0000000  0  7G16G24G 6G20G17G25G 5
 -16118050.16244 -12559514.54244  21225141.3794   21225141.6774
   6267820.86744   4884018.32544  22047184.2304   22047184.5284
 -14003752.28744 -10912008.59644  22227805.5174   22227805.3244
 -22703750.63544 -17691229.46544  20461617.1014   20461616.7304
  -1973484.35644  -1537780.82444  24668161.9924   24668163.1334
   -187166.97444   -145844.69644  25026939.2614   25026929.0844
  -9297080.13244  -7244477.54744  20563983.5444   20563983.2394
 96  2 24  4 23  0.0000000  0  8G16G24G 6G20G17G25G 4G 5
 -16150100.10144 -12584488.50944  21219042.5744   21219042.7124
   6339250.83344   4939678.03044  22060777.0244   22060776.9324
 -14067160.70344 -10961417.74644  22215739.0764   22215738.7094
 -22718109.63544 -17702418.31244  20458884.6064   20458884.3864
  -2065917.87744  -1609806.93144  24650572.0544   24650573.7784
   -208478.08244   -162450.69644  25022883.2154   25022883.0944
        -1.12754                  25326639.9814
  -9253739.03544  -7210705.28144  20572230.9744   20572230.6004
 96  2 24  4 23 30.0000000  0  8G16G24G 6G20G17G25G 4G 5
 -16181587.74244 -12609024.31944  21213050.5534   21213050.8554
   6410827.10644   4995451.75644  22074397.2734   22074397.7194
 -14130467.52944 -11010747.72144  22203692.4594   22203692.1514
 -22731854.33744 -17713128.48144  20456268.9564   20456268.6604
  -2158171.17344  -1681692.66844  24633016.5384   24633018.5324
   -229272.25444   -178653.93144  25018925.5734   25018924.0574
     94009.51244                  25344528.0764
  -9209842.47644  -7176500.20744  20580584.1674   20580583.7934
 96  2 24  4 24  0.0000000  0  8G16G24G 6G20G17G25G 4G 5
 -16212506.83344 -12633117.11144  21207166.8964   21207167.1044
   6482558.65144   5051346.46544  22088047.6744   22088047.6974
 -14193624.93944 -11059961.25944  22191673.8334   22191673.0594
 -22744980.49644 -17723356.66744  20453771.1174   20453771.1074
  -2250211.22944  -1753412.25744  24615502.4344   24615504.8714
   -249525.32144   -194435.55844  25015072.2914   25015072.1014
    187998.76444                  25362413.5834
  -9165372.04944  -7141847.95944  20589046.6774   20589046.2994
 96  2 24  4 24 30.0000000  0  7G16G24G 6G20G17G25G 5
 -16242912.90844 -12656810.14644  21201380.7354   21201381.3194
   6554395.06744   5107322.89044  22101717.5884   22101717.5834
 -14256689.13544 -11109102.17044  22179672.9394   22179672.4174
 -22757564.32744 -17733162.26844  20451376.5394   20451376.2654
  -2342084.18944  -1825001.60444  24598020.8014   24598021.8004
   -269289.30744   -209836.04544  25011311.7424
  -9120397.53544  -7106802.91744  20597605.3524   20597605.0704
 96  2 24  4 25  0.0000000  0  7G16G24G 6G17G20G25G 5
 -16272778.65144 -12680082.13944  21195697.3304   21195697.7464
   6626366.42744   5163404.45044  22115413.4974   22115413.8384
 -14319648.16244 -11158161.13844  22167692.6214   22167691.5204
  -2433768.17744  -1896443.69244  24580574.2704   24580574.5614
 -22769583.01144 -17742527.49744  20449089.6874   20449089.6494
   -288540.44144   -224836.92044  25007649.4274   25007647.8414
  -9074899.22644  -7071349.71744  20606263.1034   20606262.7664
 96  2 24  4 25 30.0000000  0  7G16G24G 6G20G17G25G 5
 -16302066.70944 -12702903.99244  21190124.1554   21190124.5764
   6698484.01444   5219599.96544  22129136.8184   22129136.7104
 -14382481.64144 -11207122.25744  22155735.6694   22155734.7134
 -22781028.71944 -17751446.24644  20446911.4964   20446911.2254
  -2525254.73744  -1967732.00044  24563166.6074   24563166.2664
   -307265.04244   -239427.59144  25004088.1454
  -9028858.15844  -7035473.58844  20615024.9874   20615024.6524
 96  2 24  4 26  0.0000000  0  7G16G24G 6G17G20G25G 5
 -16330796.29844 -12725290.67044  21184656.9354   21184657.2684
   6770718.49444   5275886.57244  22142882.3634   22142882.7224
 -14445251.98144 -11256034.21644  22143790.9744   22143790.1224
  -2616599.71644  -2038909.96544  24545785.5434   24545780.4644
 -22791938.03344 -17759947.01944  20444835.4824   20444835.1734
   -325513.33144                  25000615.1714
  -8982315.66144  -6999206.71644  20623881.5604   20623881.1754
 96  2 24  4 26 30.0000000  0  7G16G24G 6G20G17G25G 5
 -16358938.47144 -12747219.62544  21179301.9724   21179302.0804
   6843095.50844   5332284.23844  22156655.0814   22156655.7134
 -14507969.84444 -11304905.28644  22131856.2304   22131855.8674
 -22802277.60044 -17768003.83644  20442867.8894   20442867.6374
  -2707802.41144  -2109977.01444  24528428.0694   24528427.0054
   -343266.22244                  24997240.7844
  -8935251.41344  -6962533.29944  20632837.2924   20632836.9694
 96  2 24  4 27  0.0000000  0  7G16G24G 6G17G20G25G 5
 -16386485.39144 -12768684.73844  21174059.7594   21174060.0424
   6915602.97044   5388783.54944  22170452.8064   22170452.8704
 -14570634.21744 -11353734.65244  22119931.4434   22119930.9214
  -2798881.30344  -2180947.58644  24511095.3644   24511094.1254
 -22812044.74144 -17775614.60844  20441009.4004   20441009.1244
   -360543.84744                  24993953.4114
  -8887675.08144  -6925460.87144  20641890.9194   20641890.6004
 96  2 24  4 27 30.0000000  0  7G16G24G 6G17G20G25G 5
 -16413480.10444 -12789719.56644  21168922.8754   21168923.1524
   6988202.04244   5445354.25244  22184268.6154   22184268.7274
 -14633262.83244 -11402536.17644  22108013.6614   22108013.0824
  -2889858.31944  -2251838.76644  24493782.3574   24493784.2144
 -22821265.01044 -17782799.24444  20439254.7864   20439254.6374
   -377382.30844                  24990745.0154
  -8839608.37244  -6888006.32344  20651037.7474   20651037.5124
 96  2 24  4 28  0.0000000  0  7G16G24G17G20G25G 6G 5
 -16439884.64144 -12810294.51344  21163898.5674   21163898.9974
   7060948.89644   5502040.11244  22198111.3154   22198111.5074
  -2980668.20344  -2322599.74244  24476501.6214   24476504.4164
 -22829872.04544 -17789506.04344  20437616.9424   20437616.7494
   -393724.04344                  24987634.1934
 -14695819.80044 -11451281.85244  22096109.3934   22096108.9394
  -8791001.22844  -6850130.65444  20660287.2834   20660287.1344
 96  2 24  4 28 30.0000000  0  7G16G24G17G20G25G 6G 5
 -16465725.78344 -12830430.44944  21158980.7454   21158981.1194
   7133815.06144   5558818.92744  22211977.1914   22211977.2064
  -3071329.59844  -2393245.03744  24459248.1024   24459254.5814
 -22837884.80044 -17795749.76244  20436092.3834   20436092.2614
   -409586.59544                  24984613.5924
 -14758315.60544 -11499979.86544  22084216.6684   22084216.3064
  -8741887.51244  -6811860.24644  20669633.4014   20669633.1224
 96  2 24  4 29  0.0000000  0  7G16G24G17G20G25G 6G 5
 -16491010.69444 -12850132.95944  21154169.3034   21154169.6264
   7206785.32544   5615678.86844  22225863.5074   22225863.4494
  -3161830.12244  -2463764.91344  24442027.1824   24442030.3854
 -22845314.15744 -17801538.88644  20434678.4774   20434678.3324
   -424971.69444                  24981686.5434
 -14820735.61844 -11548618.81544  22072338.5264   22072337.8764
  -8692281.76144  -6773206.44144  20679072.9174   20679072.8344
 96  2 24  4 29 30.0000000  0  7G16G24G17G25G20G 6G 5
 -16515743.20344 -12869405.02144  21149462.9904   21149463.1834
   7279859.48144   5672619.77244  22239769.2284   22239768.9754
  -3252156.05444  -2534148.75544  24424838.7014   24424840.1784
   -439868.82744                  24978853.1414
 -22852158.05344 -17806871.80544  20433376.2814   20433376.2984
 -14883084.94644 -11597202.70244  22060474.0074   22060473.4214
  -8642181.71744  -6734167.47844  20688606.8684   20688606.8514
 96  2 24  4 30  0.0000000  0  7G16G24G17G20G25G 6G 5
 -16539904.96644 -12888232.35644  21144865.0704   21144865.3674
   7353028.38044   5729634.48644  22253692.4914   22253692.8014
  -3342319.30844  -2604405.85544  24407682.4204   24407686.4474
 -22858423.90444 -17811754.29844  20432183.8894   20432183.6584
   -454283.26344   -353987.51944  24976111.7744
 -14945365.80844 -11645733.21444  22048622.3714   22048621.7374
  -8591606.80244  -6694758.47344  20698230.9564   20698230.9584
 96  2 24  4 30 30.0000000  0  7G16G24G17G20G25G 6G 5
 -16563488.08244 -12906608.79944  21140377.4084   21140377.7974
   7426286.25844   5786718.54444  22267633.1194   22267633.0924
  -3432328.83544  -2674543.19044  24390554.2124   24390555.6174
 -22864118.54244 -17816191.68944  20431100.0374   20431100.0354
   -468221.15744   -364848.20944  24973461.9274
 -15007556.37544 -11694193.37944  22036788.2154   22036787.6124
  -8540558.05344  -6654980.26744  20707945.4644   20707945.1464
 96  2 24  4 31  0.0000000  0  7G16G24G17G20G25G 6G 5
 -16586476.66744 -12924521.97044  21136002.7044   21136003.1444
   7499657.22944   5843890.71344  22281595.3434   22281594.9844
  -3522164.23044  -2744544.74644  24373458.5764   24373462.8044
 -22869227.76544 -17820172.91044  20430127.8314   20430127.7864
   -481673.01944                  24970902.2954
 -15069643.94244 -11742573.31544  22024973.1624   22024972.2084
  -8489010.52044  -6614813.39744  20717754.6364   20717754.3234
 96  2 24  4 31 30.0000000  0  7G16G24G17G20G25G 6G 5
 -16608883.65044 -12941981.94344  21131738.7354   21131739.2044
   7573145.58244   5901154.36244  22295579.9174   22295579.0914
  -3611842.09344  -2814423.60144  24356394.7264   24356396.2964
 -22873747.81944 -17823695.03244  20429267.7674   20429267.4984
   -494637.69444   -385432.56844  24968434.1514
 -15131641.10944 -11790882.78944  22013175.1184   22013174.3614
  -8436956.41344  -6574251.77844  20727659.9474   20727659.6444
 96  2 24  4 32  0.0000000  0  7G16G24G17G20G25G 6G 5
 -16630711.95644 -12958991.00144  21127584.9414   21127585.3584
   7646760.47544   5958516.59844  22309588.2354   22309587.9034
  -3701359.15744  -2884177.23744  24339360.1004   24339358.3244
 -22877670.06444 -17826751.33444  20428521.3614   20428520.9104
   -507114.28644   -395154.65544  24966058.0234   24966056.2384
 -15193542.91944 -11839117.94644  22001395.6944   22001395.1354
  -8384386.11744  -6533287.93044  20737663.9364   20737663.5804
 96  2 24  4 32 30.0000000  0  7G16G24G17G25G20G 6G 5
 -16651977.96544 -12975561.90444  21123538.2244   21123538.5444
   7720505.85644   6015980.52844  22323620.9534   22323621.3354
  -3790718.88944  -2953808.21444  24322355.3864   24322356.3044
   -519110.59444   -404502.44144  24963773.5574   24963771.8244
 -22880997.75844 -17829344.35444  20427888.1694   20427888.1914
 -15255375.52444 -11887299.16944  21989629.7514   21989629.0374
  -8331304.47744  -6491925.63044  20747764.9404   20747764.5724
 96  2 24  4 33  0.0000000  0  7G16G24G17G20G25G 6G 5
 -16672673.66344 -12991688.41144  21119599.7114   21119599.6614
   7794388.65844   6073551.52644  22337680.9514   22337680.7054
  -3879897.61144  -3023298.11244  24305385.1304   24305386.6104
 -22883705.12144 -17831454.00844  20427373.0734   20427372.7304
   -530620.24244   -413471.00844  24961581.2094   24961582.3654
 -15317144.48644 -11935430.80844  21977875.5944   21977874.7644
  -8277698.07144  -6450154.43744  20757965.5974   20757965.7434
 96  2 24  4 33 30.0000000  0  7G16G24G17G25G20G 6G 5
 -16692802.13344 -13007372.92444  21115769.0554   21115769.3714
   7868381.05244   6131207.93144  22351761.5284   22351760.9364
  -3968899.39544  -3092650.16244  24288449.7924   24288449.2514
   -541656.86544   -422070.97044  24959483.5394   24959481.2524
 -22885791.83044 -17833080.03144  20426976.3264   20426976.0364
 -15378846.45044 -11983510.24944  21966133.9124   21966132.8844
  -8223579.08744  -6407983.82344  20768264.4414   20768264.0074
 96  2 24  4 34  0.0000000  0  7G16G24G17G25G20G 6G 5
 -16712334.89644 -13022593.25144  21112052.4434   21112052.7614
   7942474.89744   6188943.39344  22365860.3814   22365859.8694
  -4057704.71344  -3161849.11744  24271550.1554   24271550.0844
   -552222.34544   -430303.82644  24957470.1934   24957466.6174
 -22887251.68344 -17834217.59344  20426697.9264   20426697.4824
 -15440472.38844 -12031530.48644  21954406.8054   21954406.1874
  -8168953.16144  -6365418.17244  20778659.3444   20778659.1194
 96  2 24  4 34 30.0000000  0  7G16G24G17G25G20G 6G 5
 -16731283.11044 -13037358.08944  21108447.0754   21108447.3464
   8016644.13944   6246737.60144  22379974.9014   22379974.3984
  -4146319.73544  -3230899.82244  24254686.3964   24254685.9114
   -562317.24944                  24955548.7524
 -22888106.46744 -17834883.67844  20426535.4334   20426535.3344
 -15502030.18344 -12079497.60644  21942692.6124   21942692.0374
  -8113840.53444  -6322473.28944  20789146.7194   20789146.5744
 96  2 24  4 35  0.0000000  0  7G16G17G25G24G20G 6G 5
 -16749647.87844 -13051668.29444  21104951.9724   21104952.4184
  -4234744.53744  -3299802.27844  24237859.6664   24237862.7054
   -571941.04244                  24953715.9044
   8090866.33844   6304573.07444  22394098.9894   22394098.6364
 -22888369.98244 -17835089.02244  20426485.2144   20426485.0214
 -15563503.20944 -12127398.66444  21930994.7014   21930993.5094
  -8058241.44344  -6279149.34844  20799726.8864   20799726.7594
 96  2 24  4 35 30.0000000  0  6G16G17G24G 6G20G 5
 -16767415.94544 -13065513.54344  21101571.1394   21101570.9554
  -4322972.14644  -3368551.08444  24221071.6954   24221072.9624
   8165160.94844   6362464.98344  22408235.9094   22408236.2754
 -15624866.58144 -12175214.26144  21919317.3654   21919316.7404
 -22888048.58144 -17834838.58844  20426546.5524   20426546.6084
  -8002141.22844  -6235434.91444  20810402.7204   20810402.6604
 96  2 24  4 36  0.0000000  0  7G16G17G25G20G24G 6G 5
 -16784579.77644 -13078887.94344  21098304.6814   21098304.9124
  -4410990.88344  -3437137.07944  24204320.2334   24204325.6614
        -0.52254        -0.26454  24950340.8874   24950345.6414
 -22887144.45744 -17834134.09144  20426718.3324   20426718.2424
   8239546.39744   6420427.66544  22422391.0274   22422391.0194
 -15686126.43844 -12222949.20244  21907660.3594   21907659.6384
  -7945529.91544  -6191322.22744  20821175.4414   20821174.9424
 96  2 24  4 36 30.0000000  0  7G16G17G25G24G20G 6G 5
 -16801138.87944 -13091791.12944  21095153.6034   21095153.6814
  -4498804.96044  -3505563.63244  24187609.1074   24187612.0344
     -8080.62644     -6296.43544  24948803.5414   24948803.7464
   8314034.07144   6478469.99944  22436566.0394   22436565.6084
 -22885663.45644 -17832980.08144  20427000.4164   20427000.2344
 -15747268.74244 -12270592.54544  21896024.8174   21896024.2584
  -7888403.85644  -6146808.45344  20832046.3434   20832046.2704
 96  2 24  4 37  0.0000000  0  7G16G17G25G24G20G 6G 5
 -16817099.33444 -13104227.83244  21092116.2634   21092116.5514
  -4586434.95644  -3573846.77544  24170935.4904   24170937.4194
    -15663.66644    -12205.35444  24947364.5044   24947361.4534
   8388627.15044   6536594.45944  22450760.6564   22450760.2754
 -22883600.61044 -17831372.68944  20427392.8794   20427392.8084
 -15808293.57844 -12318144.35844  21884412.2274   21884411.6294
  -7830770.10044  -6101899.05944  20843013.5444   20843013.6694
 96  2 24  4 37 30.0000000  0  7G16G17G25G24G20G 6G 5
 -16832497.92544 -13116226.72144  21089186.4614   21089186.3834
  -4673920.54244  -3642017.36244  24154287.5174   24154289.5274
    -22789.23744    -17757.78044  24946012.0734   24946011.0704
   8463295.38344   6594777.48344  22464969.6624   22464969.2804
 -22880972.74944 -17829325.02444  20427893.1424   20427892.7674
 -15869237.05744 -12365632.76944  21872815.5314   21872814.9364
  -7772672.20244  -6056628.00544  20854068.9104   20854068.9784
 96  2 24  4 38  0.0000000  0  7G16G17G25G24G20G 6G 5
 -16847322.51044 -13127778.33044  21086365.1554   21086365.2644
  -4761267.35544  -3710079.80744  24137664.4054   24137668.8164
    -29465.41044    -22959.97244  24944740.0804   24944739.9724
   8538035.91044   6653016.84044  22479191.6834   22479191.6514
 -22877763.36844 -17826824.22644  20428503.7514   20428503.4564
 -15930093.98544 -12413053.75344  21861235.0924   21861234.5394
  -7714114.98644  -6010999.04844  20865212.0724   20865212.0924
 96  2 24  4 38 30.0000000  0  7G16G17G25G24G20G 6G 5
 -16861574.03844 -13138883.40344  21083653.1394   21083653.1334
  -4848480.54144  -3778038.10444  24121069.9294   24121070.0364
    -35699.65044    -27817.80044  24943554.2564   24943551.9794
   8612858.29844   6711319.98144  22493430.1054   22493430.4754
 -22873959.35244 -17823860.07444  20429227.5674   20429227.3394
 -15990851.73444 -12460397.43744  21849672.9034   21849672.4564
  -7655098.37944  -5965012.12444  20876442.5664   20876442.4764
 96  2 24  4 39  0.0000000  0  7G16G17G25G24G20G 6G 5
 -16875251.76044 -13149541.35244  21081050.4434   21081050.8074
  -4935550.16644  -3845884.58544  24104501.7114   24104503.6074
    -41459.82844    -32306.31844  24942455.9234   24942455.4784
   8687767.78744   6769691.00644  22507685.2064   22507685.6604
 -22869545.74444 -17820420.91444  20430067.4494   20430067.3494
 -16051515.03944 -12507667.51644  21838129.0734   21838128.3814
  -7595617.65344  -5918663.54244  20887761.7204   20887761.3254
 96  2 24  4 39 30.0000000  0  7G16G17G25G24G20G 6G 5
 -16888337.14244 -13159737.74444  21078560.3504   21078560.5274
  -5022454.94144  -3913602.56944  24087963.9944   24087966.7034
    -46719.29244    -36404.71444  24941456.3004   24941456.0104
   8762776.72744   6828139.51744  22521959.0774   22521958.7654
 -22864523.83444 -17816507.75344  20431023.1144   20431022.8024
 -16112084.68844 -12554864.63044  21826602.8294   21826602.5344
  -7535660.67344  -5871943.85844  20899171.3774   20899171.1974
 96  2 24  4 40  0.0000000  0  7G16G17G25G24G20G 6G 5
 -16900820.34944 -13169464.91144  21076184.8904   21076184.8854
  -5109175.77044  -3981177.23844  24071460.2284   24071461.7044
    -51464.07444    -40101.93944  24940553.6824   24940554.6894
   8837901.48944   6886678.27744  22536254.3694   22536253.9934
 -22858891.52644 -17812118.94944  20432094.9964   20432094.6964
 -16172557.00444 -12601985.90144  21815095.2804   21815094.7674
  -7475206.35644  -5824836.63944  20910675.2864   20910675.1594
 96  2 24  4 40 30.0000000  0  7G16G17G25G24G20G 6G 5
 -16912712.40644 -13178731.43544  21073922.0584   21073921.6634
  -5195703.61444  -4048601.50744  24054994.3974   24054994.1674
    -55702.11244    -43404.31444  24939745.2474   24939743.7484
   8913135.67244   6945302.30644  22550571.0544   22550571.5834
 -22852659.21944 -17807262.62644  20433280.8904   20433280.8544
 -16232942.99344 -12649039.90844  21803603.9964   21803603.4194
  -7414264.56144  -5777349.54044  20922272.2074   20922272.1784
 96  2 24  4 41  0.0000000  0  7G17G25G16G24G 6G20G 5
  -5282026.84944  -4115866.35244  24038568.9334   24038569.0804
    -59427.53244    -46307.26744  24939037.1384
 -16923991.22144 -13187520.11344  21071775.5474   21071775.3244
   8988479.12844   7004011.47944  22564908.1364   22564908.1214
 -16293229.43944 -12696016.36144  21792132.2024   21792131.3514
 -22845825.56944 -17801937.72444  20434581.4144   20434581.4564
  -7352820.57144  -5729471.13844  20933964.4864   20933964.2564
 96  2 24  4 41 30.0000000  0  7G16G17G25G24G 6G20G 5
 -16934662.34744 -13195835.26144  21069744.6114   21069744.5844
  -5368153.51044  -4182977.99944  24022180.3274   24022180.9394
    -62675.75244    -48838.29944  24938418.4924   24938416.3684
   9063918.44044   7062795.35444  22579264.0284   22579264.3664
 -16353431.63044 -12742927.16544  21780676.0734   21780675.3644
 -22838407.06044 -17796157.07944  20435993.0944   20435993.0074
  -7290883.03944  -5681208.17644  20945750.7484   20945750.8084
 96  2 24  4 42  0.0000000  0  7G16G17G25G24G20G 6G 5
 -16944727.11944 -13203677.93144  21067829.4394   21067829.5484
  -5454094.53244  -4249945.01444  24005825.8194   24005827.2724
    -65473.20744    -51018.23244  24937885.0864   24937887.5364
   9139432.37644   7121637.36144  22593633.6344   22593633.7554
 -22830405.83344 -17789922.37644  20437515.9284   20437515.7604
 -16413553.81444 -12789775.61444  21769235.6614   21769234.5954
  -7228464.58644  -5632570.45444  20957628.3664   20957628.5464
 96  2 24  4 42 30.0000000  0  7G17G25G16G24G20G 6G 5
  -5539865.09944  -4316779.18744  23989503.7234   23989504.5574
    -67835.82744    -52859.24344  24937436.1244
 -16954193.30844 -13211054.16944  21066028.2974   21066028.6174
   9214999.64444   7180520.92544  22608014.0154   22608013.0554
 -22821841.58944 -17783248.95844  20439145.4304   20439145.2524
 -16473594.89744 -12836560.86844  21757809.6564   21757808.9074
  -7165587.05844  -5583575.00044  20969593.8944   20969594.0464
 96  2 24  4 43  0.0000000  0  7G20G17G25G16G24G 6G 5
 -22812722.09944 -17776142.88344  20440880.7394   20440880.6474
  -5625461.34044  -4383477.54544  23973214.5484   23973214.9384
    -69756.45444    -54355.80344  24937068.8944
 -16963061.47144 -13217964.41644  21064340.7654   21064341.0784
   9290606.64044   7239435.45744  22622401.5614   22622401.1034
 -16533554.45944 -12883282.59144  21746399.6794   21746399.3334
  -7102247.97044  -5534219.90044  20981646.8274   20981647.1084
 96  2 24  4 43 30.0000000  0  7G20G17G25G16G24G 6G 5
 -22803040.15244 -17768598.53144  20442723.2624   20442723.1534
  -5710869.04344  -4450028.97244  23956962.3794   23956963.1194
    -71238.22844    -55510.50644  24936785.7234   24936786.6684
 -16971348.29244 -13224421.66444  21062763.8144   21062763.7854
   9366248.25244   7298376.97244  22636795.7834   22636795.0254
 -16593429.56044 -12929938.52144  21735005.7564   21735005.3054
  -7038458.13544  -5484513.56444  20993785.9624   20993786.1934
 96  2 24  4 44  0.0000000  0  7G20G17G25G16G24G 6G 5
 -22792790.57544 -17760611.89344  20444673.8634   20444673.9854
  -5796090.47344  -4516435.27744  23940745.4474   23940745.9604
    -72281.72244    -56323.66344  24936588.1174   24936589.6824
 -16979064.10844 -13230433.97644  21061295.5244   21061295.2944
   9441908.80144   7357333.23044  22651193.7934   22651193.3794
 -16653193.92844 -12976508.15744  21723633.1844   21723632.5154
  -6974226.07144  -5434462.61444  21006008.8844   21006008.8204
 96  2 24  4 44 30.0000000  0  7G20G17G25G16G24G 6G 5
 -22781962.13644 -17752174.18444  20446734.1164   20446734.2284
  -5881108.15644  -4582682.79144  23924566.9204   23924567.6474
    -72867.60944    -56780.22644  24936476.8834   24936475.8554
 -16986212.70944 -13236004.30044  21059935.1804   21059935.2664
   9517592.64944   7416307.65044  22665595.5874   22665595.3394
 -16712835.37544 -13022981.99644  21712283.7524   21712282.8774
  -6909546.23844  -5384062.76444  21018317.0594   21018316.8854
 96  2 24  4 45  0.0000000  0  7G20G17G25G16G24G 6G 5
 -22770527.25244 -17743263.89844  20448910.2374   20448910.0714
  -5965918.44544  -4648768.69644  23908427.5904   23908430.7214
    -72987.83644    -56873.95344  24936454.7704   24936455.6694
 -16992785.97044 -13241126.31344  21058684.2944   21058684.1284
   9593309.93844   7475308.11944  22680003.8474   22680003.4154
 -16772353.88644 -13069360.03144  21700958.0424   21700957.0194
  -6844425.79244  -5333319.58244  21030708.9514   21030708.6104
 96  2 24  4 45 30.0000000  0  7G20G17G25G16G24G 6G 5
 -22758463.96544 -17733863.94044  20451206.0214   20451205.7694
  -6050539.19644  -4714706.92144  23892324.3544   23892325.3364
    -72646.31344    -56607.88344  24936517.8794
 -16998778.83944 -13245796.07244  21057543.7134   21057543.8304
   9669076.72344   7534347.16444  22694422.1494   22694421.7754
 -16831746.64044 -13115640.09044  21689655.8624   21689655.2704
  -6778862.01444  -5282230.95444  21043185.5814   21043185.1864
 96  2 24  4 46  0.0000000  0  7G20G17G25G16G24G 6G 5
 -22745768.92144 -17723971.70844  20453621.6624   20453621.4514
  -6134970.73244  -4780497.70444  23876258.0434   23876260.2814
    -71820.83544                  24936674.7054
 -17004165.09144 -13249993.14244  21056518.5854   21056518.9764
   9744907.28344   7593435.90844  22708852.6414   22708852.4494
 -16891013.27144 -13161821.90044  21678377.6644   21678376.8714
  -6712840.60744  -5230785.72544  21055748.8114   21055749.1204
